Time,TemperatureF,DewpointF,PressureIn,WindDirection,WindDirectionDegrees,WindSpeedMPH,WindSpeedGustMPH,Humidity,HourlyPrecipIn,Conditions,Clouds,dailyrainin,SoftwareType,DateUTC
2013-03-03 00:00:00,37.8,25.6,30.18,NNE,17,4.0,14.0,61,0.00,,SKC,0.00,VWS V14.01,2013-03-03 06:00:00,
2013-03-03 00:01:00,37.8,25.6,30.18,North,355,4.0,4.0,61,0.00,,SKC,0.00,VWS V14.01,2013-03-03 06:01:00,
2013-03-03 00:02:00,37.8,25.6,30.18,NNW,341,4.0,6.0,61,0.00,,SKC,0.00,VWS V14.01,2013-03-03 06:02:00,
2013-03-03 00:03:00,37.8,25.6,30.18,NW,306,2.0,7.0,61,0.00,,SKC,0.00,VWS V14.01,2013-03-03 06:03:00,
2013-03-03 00:04:00,37.8,25.6,30.18,NW,308,3.0,7.0,61,0.00,,SKC,0.00,VWS V14.01,2013-03-03 06:04:00,
2013-03-03 00:05:00,37.8,25.6,30.18,NW,306,7.0,8.0,61,0.00,,SKC,0.00,VWS V14.01,2013-03-03 06:05:00,
2013-03-03 00:06:00,37.8,25.6,30.18,NW,324,4.0,8.0,61,0.00,,SKC,0.00,VWS V14.01,2013-03-03 06:06:00,
2013-03-03 00:07:00,37.8,25.6,30.18,NW,304,6.0,8.0,61,0.00,,SKC,0.00,VWS V14.01,2013-03-03 06:07:00,
2013-03-03 00:08:00,37.8,25.6,30.18,NNW,329,6.0,9.0,61,0.00,,SKC,0.00,VWS V14.01,2013-03-03 06:08:00,
2013-03-03 00:09:00,37.8,25.2,30.18,North,350,6.0,10.0,60,0.00,,SKC,0.00,VWS V14.01,2013-03-03 06:09:00,
2013-03-03 00:10:00,37.8,25.2,30.18,NNW,338,6.0,10.0,60,0.00,,SKC,0.00,VWS V14.01,2013-03-03 06:10:00,
2013-03-03 00:11:00,37.8,25.2,30.18,NW,316,6.0,10.0,60,0.00,,SKC,0.00,VWS V14.01,2013-03-03 06:11:00,
2013-03-03 00:12:00,37.8,25.2,30.18,NW,317,7.0,10.0,60,0.00,,SKC,0.00,VWS V14.01,2013-03-03 06:12:00,
2013-03-03 00:13:00,37.8,24.8,30.18,NNW,338,5.0,10.0,59,0.00,,SKC,0.00,VWS V14.01,2013-03-03 06:13:00,
2013-03-03 00:14:00,37.8,24.8,30.18,NW,320,6.0,10.0,59,0.00,,SKC,0.00,VWS V14.01,2013-03-03 06:14:00,
2013-03-03 00:15:00,37.8,24.8,30.18,North,10,6.0,10.0,59,0.00,,SKC,0.00,VWS V14.01,2013-03-03 06:15:00,
2013-03-03 00:16:00,37.8,24.8,30.18,NNE,16,3.0,10.0,59,0.00,,SKC,0.00,VWS V14.01,2013-03-03 06:16:00,
2013-03-03 00:17:00,37.9,24.9,30.18,NW,326,2.0,10.0,59,0.00,,SKC,0.00,VWS V14.01,2013-03-03 06:17:00,
2013-03-03 00:18:00,37.9,24.9,30.18,NNW,348,9.0,14.0,59,0.00,,SKC,0.00,VWS V14.01,2013-03-03 06:18:00,
2013-03-03 00:19:00,37.8,24.8,30.18,NW,325,4.0,14.0,59,0.00,,SKC,0.00,VWS V14.01,2013-03-03 06:19:00,
2013-03-03 00:20:00,37.8,24.8,30.18,NNW,334,5.0,14.0,59,0.00,,SKC,0.00,VWS V14.01,2013-03-03 06:20:00,
2013-03-03 00:21:00,37.8,24.8,30.18,NNE,24,3.0,14.0,59,0.00,,SKC,0.00,VWS V14.01,2013-03-03 06:21:00,
2013-03-03 00:22:00,37.8,24.8,30.18,NNE,24,1.0,14.0,59,0.00,,SKC,0.00,VWS V14.01,2013-03-03 06:22:00,
2013-03-03 00:23:00,37.8,24.8,30.18,NNW,343,1.0,14.0,59,0.00,,SKC,0.00,VWS V14.01,2013-03-03 06:23:00,
2013-03-03 00:24:00,37.7,24.7,30.18,NNW,343,4.0,14.0,59,0.00,,SKC,0.00,VWS V14.01,2013-03-03 06:24:00,
2013-03-03 00:25:00,37.7,24.7,30.18,NNW,334,6.0,14.0,59,0.00,,SKC,0.00,VWS V14.01,2013-03-03 06:25:00,
2013-03-03 00:26:00,37.7,24.7,30.18,NNW,334,8.0,14.0,59,0.00,,SKC,0.00,VWS V14.01,2013-03-03 06:26:00,
2013-03-03 00:27:00,37.7,24.7,30.18,North,351,4.0,14.0,59,0.00,,SKC,0.00,VWS V14.01,2013-03-03 06:27:00,
2013-03-03 00:28:00,37.7,25.1,30.18,NW,313,5.0,14.0,60,0.00,,SKC,0.00,VWS V14.01,2013-03-03 06:28:00,
2013-03-03 00:29:00,37.7,25.1,30.18,NNW,339,7.0,14.0,60,0.00,,SKC,0.00,VWS V14.01,2013-03-03 06:29:00,
2013-03-03 00:30:00,37.7,25.1,30.18,NNW,341,7.0,14.0,60,0.00,,SKC,0.00,VWS V14.01,2013-03-03 06:30:00,
2013-03-03 00:31:00,37.7,25.1,30.18,NNW,341,2.0,7.0,60,0.00,,SKC,0.00,VWS V14.01,2013-03-03 06:31:00,
2013-03-03 00:32:00,37.6,25.0,30.18,WNW,303,2.0,8.0,60,0.00,,SKC,0.00,VWS V14.01,2013-03-03 06:32:00,
2013-03-03 00:33:00,37.7,25.1,30.18,NNW,346,3.0,8.0,60,0.00,,SKC,0.00,VWS V14.01,2013-03-03 06:33:00,
2013-03-03 00:34:00,37.6,25.0,30.18,NW,319,7.0,8.0,60,0.00,,SKC,0.00,VWS V14.01,2013-03-03 06:34:00,
2013-03-03 00:35:00,37.6,25.0,30.18,North,5,7.0,8.0,60,0.00,,SKC,0.00,VWS V14.01,2013-03-03 06:35:00,
2013-03-03 00:36:00,37.6,25.0,30.18,NNW,344,7.0,9.0,60,0.00,,SKC,0.00,VWS V14.01,2013-03-03 06:36:00,
2013-03-03 00:37:00,37.5,24.9,30.18,NNW,342,5.0,9.0,60,0.00,,SKC,0.00,VWS V14.01,2013-03-03 06:37:00,
2013-03-03 00:38:00,37.5,24.9,30.18,North,355,6.0,9.0,60,0.00,,SKC,0.00,VWS V14.01,2013-03-03 06:38:00,
2013-03-03 00:39:00,37.5,24.9,30.18,North,350,5.0,9.0,60,0.00,,SKC,0.00,VWS V14.01,2013-03-03 06:39:00,
2013-03-03 00:40:00,37.5,25.3,30.18,NNW,340,6.0,12.0,61,0.00,,SKC,0.00,VWS V14.01,2013-03-03 06:40:00,
2013-03-03 00:41:00,37.5,25.3,30.18,North,5,5.0,12.0,61,0.00,,SKC,0.00,VWS V14.01,2013-03-03 06:41:00,
2013-03-03 00:42:00,37.5,25.3,30.18,North,355,5.0,12.0,61,0.00,,SKC,0.00,VWS V14.01,2013-03-03 06:42:00,
2013-03-03 00:43:00,37.5,25.3,30.18,North,355,2.0,12.0,61,0.00,,SKC,0.00,VWS V14.01,2013-03-03 06:43:00,
2013-03-03 00:44:00,37.4,25.6,30.18,North,355,0.0,12.0,62,0.00,,SKC,0.00,VWS V14.01,2013-03-03 06:44:00,
2013-03-03 00:45:00,37.4,25.2,30.18,NNW,340,5.0,12.0,61,0.00,,SKC,0.00,VWS V14.01,2013-03-03 06:45:00,
2013-03-03 00:46:00,37.4,25.2,30.18,NNE,17,6.0,12.0,61,0.00,,SKC,0.00,VWS V14.01,2013-03-03 06:46:00,
2013-03-03 00:47:00,37.4,25.2,30.18,NNE,15,6.0,12.0,61,0.00,,SKC,0.00,VWS V14.01,2013-03-03 06:47:00,
2013-03-03 00:48:00,37.3,25.5,30.18,NNW,340,5.0,12.0,62,0.00,,SKC,0.00,VWS V14.01,2013-03-03 06:48:00,
2013-03-03 00:49:00,37.3,25.5,30.18,North,355,4.0,12.0,62,0.00,,SKC,0.00,VWS V14.01,2013-03-03 06:49:00,
2013-03-03 00:50:00,37.3,25.5,30.18,NNW,342,4.0,12.0,62,0.00,,SKC,0.00,VWS V14.01,2013-03-03 06:50:00,
2013-03-03 00:51:00,37.3,25.5,30.18,NNE,12,1.0,12.0,62,0.00,,SKC,0.00,VWS V14.01,2013-03-03 06:51:00,
2013-03-03 00:52:00,37.3,25.5,30.18,NNE,13,1.0,12.0,62,0.00,,SKC,0.00,VWS V14.01,2013-03-03 06:52:00,
2013-03-03 00:53:00,37.3,25.5,30.18,NW,318,7.0,12.0,62,0.00,,SKC,0.00,VWS V14.01,2013-03-03 06:53:00,
2013-03-03 00:54:00,37.3,25.5,30.18,NNW,330,2.0,12.0,62,0.00,,SKC,0.00,VWS V14.01,2013-03-03 06:54:00,
2013-03-03 00:55:00,37.3,25.5,30.18,NNW,330,0.0,12.0,62,0.00,,SKC,0.00,VWS V14.01,2013-03-03 06:55:00,
2013-03-03 00:56:00,37.2,25.8,30.18,NNW,330,5.0,12.0,63,0.00,,SKC,0.00,VWS V14.01,2013-03-03 06:56:00,
2013-03-03 00:57:00,37.2,25.8,30.18,North,350,8.0,12.0,63,0.00,,SKC,0.00,VWS V14.01,2013-03-03 06:57:00,
2013-03-03 00:58:00,37.2,25.4,30.18,NW,318,6.0,12.0,62,0.00,,SKC,0.00,VWS V14.01,2013-03-03 06:58:00,
2013-03-03 00:59:00,37.1,25.3,30.18,NNW,339,5.0,12.0,62,0.00,,SKC,0.00,VWS V14.01,2013-03-03 06:59:00,
2013-03-03 01:00:00,37.1,25.3,30.18,NW,309,7.0,12.0,62,0.00,,SKC,0.00,VWS V14.01,2013-03-03 07:00:00,
2013-03-03 01:01:00,37.1,25.3,30.18,NW,313,4.0,7.0,62,0.00,,SKC,0.00,VWS V14.01,2013-03-03 07:01:00,
2013-03-03 01:02:00,37.1,25.3,30.18,NW,313,4.0,7.0,62,0.00,,SKC,0.00,VWS V14.01,2013-03-03 07:02:00,
2013-03-03 01:03:00,37.1,25.3,30.18,NNW,342,4.0,7.0,62,0.00,,SKC,0.00,VWS V14.01,2013-03-03 07:03:00,
2013-03-03 01:04:00,37.1,25.3,30.18,North,349,6.0,7.0,62,0.00,,SKC,0.00,VWS V14.01,2013-03-03 07:04:00,
2013-03-03 01:05:00,37.1,25.3,30.18,NNW,327,7.0,8.0,62,0.00,,SKC,0.00,VWS V14.01,2013-03-03 07:05:00,
2013-03-03 01:06:00,37.1,25.3,30.18,NNW,332,7.0,10.0,62,0.00,,SKC,0.00,VWS V14.01,2013-03-03 07:06:00,
2013-03-03 01:07:00,37.1,25.3,30.18,NW,318,5.0,10.0,62,0.00,,SKC,0.00,VWS V14.01,2013-03-03 07:07:00,
2013-03-03 01:08:00,37.1,25.7,30.18,NW,322,2.0,10.0,63,0.00,,SKC,0.00,VWS V14.01,2013-03-03 07:08:00,
2013-03-03 01:09:00,37.1,25.3,30.18,NNW,336,4.0,10.0,62,0.00,,SKC,0.00,VWS V14.01,2013-03-03 07:09:00,
2013-03-03 01:10:00,37.0,25.2,30.18,NW,325,7.0,10.0,62,0.00,,SKC,0.00,VWS V14.01,2013-03-03 07:10:00,
2013-03-03 01:11:00,37.0,25.2,30.18,NW,325,2.0,10.0,62,0.00,,SKC,0.00,VWS V14.01,2013-03-03 07:11:00,
2013-03-03 01:12:00,37.0,25.6,30.18,NNW,329,2.0,10.0,63,0.00,,SKC,0.00,VWS V14.01,2013-03-03 07:12:00,
2013-03-03 01:13:00,37.0,25.2,30.18,NNW,329,0.0,10.0,62,0.00,,SKC,0.00,VWS V14.01,2013-03-03 07:13:00,
2013-03-03 01:14:00,37.0,25.6,30.18,North,350,5.0,10.0,63,0.00,,SKC,0.00,VWS V14.01,2013-03-03 07:14:00,
2013-03-03 01:15:00,37.0,25.6,30.18,NNW,337,5.0,10.0,63,0.00,,SKC,0.00,VWS V14.01,2013-03-03 07:15:00,
2013-03-03 01:16:00,37.0,25.2,30.18,WNW,288,7.0,10.0,62,0.00,,SKC,0.00,VWS V14.01,2013-03-03 07:16:00,
2013-03-03 01:17:00,37.0,25.2,30.18,North,360,1.0,10.0,62,0.00,,SKC,0.00,VWS V14.01,2013-03-03 07:17:00,
2013-03-03 01:18:00,37.0,25.6,30.18,North,355,3.0,10.0,63,0.00,,SKC,0.00,VWS V14.01,2013-03-03 07:18:00,
2013-03-03 01:19:00,36.9,25.1,30.18,North,355,6.0,10.0,62,0.00,,SKC,0.00,VWS V14.01,2013-03-03 07:19:00,
2013-03-03 01:20:00,36.9,25.1,30.17,North,355,4.0,10.0,62,0.00,,SKC,0.00,VWS V14.01,2013-03-03 07:20:00,
2013-03-03 01:21:00,36.9,25.1,30.17,NNW,336,7.0,10.0,62,0.00,,SKC,0.00,VWS V14.01,2013-03-03 07:21:00,
2013-03-03 01:22:00,36.9,25.1,30.18,NW,321,6.0,10.0,62,0.00,,SKC,0.00,VWS V14.01,2013-03-03 07:22:00,
2013-03-03 01:23:00,36.9,25.1,30.18,North,5,4.0,10.0,62,0.00,,SKC,0.00,VWS V14.01,2013-03-03 07:23:00,
2013-03-03 01:24:00,36.9,25.1,30.18,North,355,5.0,10.0,62,0.00,,SKC,0.00,VWS V14.01,2013-03-03 07:24:00,
2013-03-03 01:25:00,36.9,25.1,30.17,North,355,3.0,10.0,62,0.00,,SKC,0.00,VWS V14.01,2013-03-03 07:25:00,
2013-03-03 01:26:00,36.9,25.1,30.17,North,355,4.0,10.0,62,0.00,,SKC,0.00,VWS V14.01,2013-03-03 07:26:00,
2013-03-03 01:27:00,36.9,25.1,30.17,NNW,345,7.0,10.0,62,0.00,,SKC,0.00,VWS V14.01,2013-03-03 07:27:00,
2013-03-03 01:28:00,36.9,25.1,30.17,North,350,6.0,10.0,62,0.00,,SKC,0.00,VWS V14.01,2013-03-03 07:28:00,
2013-03-03 01:29:00,36.9,25.1,30.17,NW,323,6.0,10.0,62,0.00,,SKC,0.00,VWS V14.01,2013-03-03 07:29:00,
2013-03-03 01:30:00,36.8,25.0,30.17,NW,317,5.0,10.0,62,0.00,,SKC,0.00,VWS V14.01,2013-03-03 07:30:00,
2013-03-03 01:31:00,36.8,25.0,30.17,NW,316,3.0,7.0,62,0.00,,SKC,0.00,VWS V14.01,2013-03-03 07:31:00,
2013-03-03 01:32:00,36.8,25.0,30.17,NW,326,6.0,7.0,62,0.00,,SKC,0.00,VWS V14.01,2013-03-03 07:32:00,
2013-03-03 01:33:00,36.8,25.0,30.17,North,11,11.0,11.0,62,0.00,,SKC,0.00,VWS V14.01,2013-03-03 07:33:00,
2013-03-03 01:34:00,36.8,25.0,30.17,North,5,9.0,11.0,62,0.00,,SKC,0.00,VWS V14.01,2013-03-03 07:34:00,
2013-03-03 01:35:00,36.8,25.0,30.17,NNE,19,0.0,11.0,62,0.00,,SKC,0.00,VWS V14.01,2013-03-03 07:35:00,
2013-03-03 01:36:00,36.8,25.0,30.17,NNW,328,4.0,11.0,62,0.00,,SKC,0.00,VWS V14.01,2013-03-03 07:36:00,
2013-03-03 01:37:00,36.8,25.0,30.17,NW,315,7.0,11.0,62,0.00,,SKC,0.00,VWS V14.01,2013-03-03 07:37:00,
2013-03-03 01:38:00,36.8,25.0,30.17,NNW,342,2.0,11.0,62,0.00,,SKC,0.00,VWS V14.01,2013-03-03 07:38:00,
2013-03-03 01:39:00,36.8,25.0,30.17,NNW,338,0.0,11.0,62,0.00,,SKC,0.00,VWS V14.01,2013-03-03 07:39:00,
2013-03-03 01:40:00,36.8,25.0,30.17,North,355,5.0,11.0,62,0.00,,SKC,0.00,VWS V14.01,2013-03-03 07:40:00,
2013-03-03 01:41:00,36.8,25.0,30.17,North,355,4.0,11.0,62,0.00,,SKC,0.00,VWS V14.01,2013-03-03 07:41:00,
2013-03-03 01:42:00,36.8,25.0,30.17,North,350,6.0,11.0,62,0.00,,SKC,0.00,VWS V14.01,2013-03-03 07:42:00,
2013-03-03 01:43:00,36.8,25.0,30.17,NNW,330,2.0,11.0,62,0.00,,SKC,0.00,VWS V14.01,2013-03-03 07:43:00,
2013-03-03 01:44:00,36.8,25.0,30.17,NW,326,5.0,11.0,62,0.00,,SKC,0.00,VWS V14.01,2013-03-03 07:44:00,
2013-03-03 01:45:00,36.8,25.0,30.17,NW,325,5.0,11.0,62,0.00,,SKC,0.00,VWS V14.01,2013-03-03 07:45:00,
2013-03-03 01:46:00,36.8,25.0,30.17,North,5,6.0,11.0,62,0.00,,SKC,0.00,VWS V14.01,2013-03-03 07:46:00,
2013-03-03 01:47:00,36.8,25.0,30.17,NW,313,4.0,11.0,62,0.00,,SKC,0.00,VWS V14.01,2013-03-03 07:47:00,
2013-03-03 01:48:00,36.7,24.9,30.17,NW,313,5.0,11.0,62,0.00,,SKC,0.00,VWS V14.01,2013-03-03 07:48:00,
2013-03-03 01:49:00,36.7,24.9,30.17,NW,310,8.0,11.0,62,0.00,,SKC,0.00,VWS V14.01,2013-03-03 07:49:00,
2013-03-03 01:50:00,36.7,24.9,30.17,NNW,337,6.0,11.0,62,0.00,,SKC,0.00,VWS V14.01,2013-03-03 07:50:00,
2013-03-03 01:51:00,36.7,24.9,30.17,NW,325,3.0,12.0,62,0.00,,SKC,0.00,VWS V14.01,2013-03-03 07:51:00,
2013-03-03 01:52:00,36.8,25.0,30.17,NNE,13,4.0,12.0,62,0.00,,SKC,0.00,VWS V14.01,2013-03-03 07:52:00,
2013-03-03 01:53:00,36.8,25.0,30.17,NW,316,10.0,12.0,62,0.00,,SKC,0.00,VWS V14.01,2013-03-03 07:53:00,
2013-03-03 01:54:00,36.8,25.0,30.17,NNW,327,1.0,12.0,62,0.00,,SKC,0.00,VWS V14.01,2013-03-03 07:54:00,
2013-03-03 01:55:00,36.9,25.1,30.17,North,349,7.0,12.0,62,0.00,,SKC,0.00,VWS V14.01,2013-03-03 07:55:00,
2013-03-03 01:56:00,36.9,25.1,30.17,North,5,9.0,12.0,62,0.00,,SKC,0.00,VWS V14.01,2013-03-03 07:56:00,
2013-03-03 01:57:00,37.0,25.2,30.17,NNW,340,5.0,12.0,62,0.00,,SKC,0.00,VWS V14.01,2013-03-03 07:57:00,
2013-03-03 01:58:00,37.0,25.2,30.17,NNW,340,5.0,12.0,62,0.00,,SKC,0.00,VWS V14.01,2013-03-03 07:58:00,
2013-03-03 01:59:00,37.0,25.2,30.17,NNE,24,4.0,12.0,62,0.00,,SKC,0.00,VWS V14.01,2013-03-03 07:59:00,
2013-03-03 02:00:00,37.0,25.2,30.17,North,9,6.0,12.0,62,0.00,,SKC,0.00,VWS V14.01,2013-03-03 08:00:00,
2013-03-03 02:01:00,37.1,25.3,30.17,North,9,3.0,6.0,62,0.00,,SKC,0.00,VWS V14.01,2013-03-03 08:01:00,
2013-03-03 02:02:00,37.1,25.3,30.17,NNW,346,7.0,8.0,62,0.00,,SKC,0.00,VWS V14.01,2013-03-03 08:02:00,
2013-03-03 02:03:00,37.1,25.3,30.17,NNW,336,8.0,12.0,62,0.00,,SKC,0.00,VWS V14.01,2013-03-03 08:03:00,
2013-03-03 02:04:00,37.1,24.9,30.17,NW,310,9.0,16.0,61,0.00,,SKC,0.00,VWS V14.01,2013-03-03 08:04:00,
2013-03-03 02:05:00,37.1,25.3,30.17,NNE,17,8.0,16.0,62,0.00,,SKC,0.00,VWS V14.01,2013-03-03 08:05:00,
2013-03-03 02:06:00,37.1,25.3,30.17,NNE,16,2.0,16.0,62,0.00,,SKC,0.00,VWS V14.01,2013-03-03 08:06:00,
2013-03-03 02:07:00,37.1,25.3,30.17,NNE,13,4.0,16.0,62,0.00,,SKC,0.00,VWS V14.01,2013-03-03 08:07:00,
2013-03-03 02:08:00,37.1,25.3,30.16,NNE,23,2.0,16.0,62,0.00,,SKC,0.00,VWS V14.01,2013-03-03 08:08:00,
2013-03-03 02:09:00,37.1,25.3,30.17,NNE,19,1.0,16.0,62,0.00,,SKC,0.00,VWS V14.01,2013-03-03 08:09:00,
2013-03-03 02:10:00,37.1,25.3,30.17,NNW,336,7.0,16.0,62,0.00,,SKC,0.00,VWS V14.01,2013-03-03 08:10:00,
2013-03-03 02:11:00,37.1,25.3,30.17,NW,321,5.0,16.0,62,0.00,,SKC,0.00,VWS V14.01,2013-03-03 08:11:00,
2013-03-03 02:12:00,37.1,25.3,30.17,NW,320,0.0,16.0,62,0.00,,SKC,0.00,VWS V14.01,2013-03-03 08:12:00,
2013-03-03 02:13:00,37.1,25.7,30.16,NW,309,5.0,16.0,63,0.00,,SKC,0.00,VWS V14.01,2013-03-03 08:13:00,
2013-03-03 02:14:00,37.1,25.7,30.16,North,11,11.0,16.0,63,0.00,,SKC,0.00,VWS V14.01,2013-03-03 08:14:00,
2013-03-03 02:15:00,37.1,25.3,30.16,North,355,2.0,16.0,62,0.00,,SKC,0.00,VWS V14.01,2013-03-03 08:15:00,
2013-03-03 02:16:00,37.1,25.3,30.16,NNW,336,5.0,16.0,62,0.00,,SKC,0.00,VWS V14.01,2013-03-03 08:16:00,
2013-03-03 02:17:00,37.1,25.3,30.16,NW,315,8.0,16.0,62,0.00,,SKC,0.00,VWS V14.01,2013-03-03 08:17:00,
2013-03-03 02:18:00,37.1,25.3,30.16,North,5,8.0,16.0,62,0.00,,SKC,0.00,VWS V14.01,2013-03-03 08:18:00,
2013-03-03 02:19:00,37.1,25.3,30.16,North,5,11.0,16.0,62,0.00,,SKC,0.00,VWS V14.01,2013-03-03 08:19:00,
2013-03-03 02:20:00,37.1,25.3,30.16,WNW,296,5.0,16.0,62,0.00,,SKC,0.00,VWS V14.01,2013-03-03 08:20:00,
2013-03-03 02:21:00,37.1,25.3,30.16,North,355,8.0,16.0,62,0.00,,SKC,0.00,VWS V14.01,2013-03-03 08:21:00,
2013-03-03 02:22:00,37.1,25.7,30.16,NNW,348,2.0,16.0,63,0.00,,SKC,0.00,VWS V14.01,2013-03-03 08:22:00,
2013-03-03 02:23:00,37.1,25.7,30.16,NNW,346,1.0,16.0,63,0.00,,SKC,0.00,VWS V14.01,2013-03-03 08:23:00,
2013-03-03 02:24:00,37.1,25.7,30.16,NNW,327,6.0,16.0,63,0.00,,SKC,0.00,VWS V14.01,2013-03-03 08:24:00,
2013-03-03 02:25:00,37.1,25.3,30.16,North,9,4.0,16.0,62,0.00,,SKC,0.00,VWS V14.01,2013-03-03 08:25:00,
2013-03-03 02:26:00,37.1,25.3,30.16,WNW,299,9.0,16.0,62,0.00,,SKC,0.00,VWS V14.01,2013-03-03 08:26:00,
2013-03-03 02:27:00,37.1,25.7,30.16,NW,313,6.0,16.0,63,0.00,,SKC,0.00,VWS V14.01,2013-03-03 08:27:00,
2013-03-03 02:28:00,37.1,25.3,30.16,NNW,339,5.0,16.0,62,0.00,,SKC,0.00,VWS V14.01,2013-03-03 08:28:00,
2013-03-03 02:29:00,37.1,25.3,30.16,North,355,3.0,16.0,62,0.00,,SKC,0.00,VWS V14.01,2013-03-03 08:29:00,
2013-03-03 02:30:00,37.1,25.3,30.16,NW,311,7.0,16.0,62,0.00,,SKC,0.00,VWS V14.01,2013-03-03 08:30:00,
2013-03-03 02:31:00,37.1,25.3,30.16,North,355,4.0,16.0,62,0.00,,SKC,0.00,VWS V14.01,2013-03-03 08:31:00,
2013-03-03 02:32:00,37.1,25.3,30.16,North,355,0.0,16.0,62,0.00,,SKC,0.00,VWS V14.01,2013-03-03 08:32:00,
2013-03-03 02:33:00,37.1,25.3,30.16,NNW,342,6.0,16.0,62,0.00,,SKC,0.00,VWS V14.01,2013-03-03 08:33:00,
2013-03-03 02:34:00,37.1,25.3,30.16,NW,307,4.0,16.0,62,0.00,,SKC,0.00,VWS V14.01,2013-03-03 08:34:00,
2013-03-03 02:35:00,37.1,25.3,30.16,NNW,331,5.0,16.0,62,0.00,,SKC,0.00,VWS V14.01,2013-03-03 08:35:00,
2013-03-03 02:36:00,37.0,25.2,30.16,NNW,339,1.0,16.0,62,0.00,,SKC,0.00,VWS V14.01,2013-03-03 08:36:00,
2013-03-03 02:37:00,37.0,25.2,30.16,NNW,336,9.0,16.0,62,0.00,,SKC,0.00,VWS V14.01,2013-03-03 08:37:00,
2013-03-03 02:38:00,37.0,25.2,30.16,NNW,331,8.0,16.0,62,0.00,,SKC,0.00,VWS V14.01,2013-03-03 08:38:00,
2013-03-03 02:39:00,37.0,25.2,30.16,North,360,5.0,16.0,62,0.00,,SKC,0.00,VWS V14.01,2013-03-03 08:39:00,
2013-03-03 02:40:00,37.0,25.2,30.16,NNW,347,11.0,16.0,62,0.00,,SKC,0.00,VWS V14.01,2013-03-03 08:40:00,
2013-03-03 02:41:00,37.0,25.2,30.16,WNW,302,12.0,16.0,62,0.00,,SKC,0.00,VWS V14.01,2013-03-03 08:41:00,
2013-03-03 02:42:00,36.9,25.1,30.16,NNW,331,9.0,16.0,62,0.00,,SKC,0.00,VWS V14.01,2013-03-03 08:42:00,
2013-03-03 02:43:00,37.0,25.2,30.16,NW,324,4.0,16.0,62,0.00,,SKC,0.00,VWS V14.01,2013-03-03 08:43:00,
2013-03-03 02:44:00,36.9,25.1,30.16,NNW,338,7.0,16.0,62,0.00,,SKC,0.00,VWS V14.01,2013-03-03 08:44:00,
2013-03-03 02:45:00,36.9,25.1,30.16,NNW,335,6.0,16.0,62,0.00,,SKC,0.00,VWS V14.01,2013-03-03 08:45:00,
2013-03-03 02:46:00,36.9,25.1,30.16,NNW,336,6.0,16.0,62,0.00,,SKC,0.00,VWS V14.01,2013-03-03 08:46:00,
2013-03-03 02:47:00,36.9,25.1,30.16,NNW,329,5.0,16.0,62,0.00,,SKC,0.00,VWS V14.01,2013-03-03 08:47:00,
2013-03-03 02:48:00,36.9,25.1,30.16,North,350,9.0,16.0,62,0.00,,SKC,0.00,VWS V14.01,2013-03-03 08:48:00,
2013-03-03 02:49:00,36.9,25.1,30.16,NNW,343,7.0,16.0,62,0.00,,SKC,0.00,VWS V14.01,2013-03-03 08:49:00,
2013-03-03 02:50:00,36.8,25.0,30.16,NNW,339,1.0,16.0,62,0.00,,SKC,0.00,VWS V14.01,2013-03-03 08:50:00,
2013-03-03 02:51:00,36.8,25.0,30.16,NNW,336,6.0,16.0,62,0.00,,SKC,0.00,VWS V14.01,2013-03-03 08:51:00,
2013-03-03 02:52:00,36.8,25.0,30.16,NNW,327,9.0,16.0,62,0.00,,SKC,0.00,VWS V14.01,2013-03-03 08:52:00,
2013-03-03 02:53:00,36.8,25.0,30.16,NNE,17,2.0,16.0,62,0.00,,SKC,0.00,VWS V14.01,2013-03-03 08:53:00,
2013-03-03 02:54:00,36.8,25.0,30.16,NNE,12,4.0,16.0,62,0.00,,SKC,0.00,VWS V14.01,2013-03-03 08:54:00,
2013-03-03 02:55:00,36.7,25.3,30.16,North,5,5.0,16.0,63,0.00,,SKC,0.00,VWS V14.01,2013-03-03 08:55:00,
2013-03-03 02:56:00,36.7,25.3,30.16,WNW,303,7.0,16.0,63,0.00,,SKC,0.00,VWS V14.01,2013-03-03 08:56:00,
2013-03-03 02:57:00,36.7,25.3,30.16,NW,318,7.0,16.0,63,0.00,,SKC,0.00,VWS V14.01,2013-03-03 08:57:00,
2013-03-03 02:58:00,36.6,25.2,30.16,NW,323,2.0,16.0,63,0.00,,SKC,0.00,VWS V14.01,2013-03-03 08:58:00,
2013-03-03 02:59:00,36.6,25.2,30.16,NW,323,2.0,16.0,63,0.00,,SKC,0.00,VWS V14.01,2013-03-03 08:59:00,
2013-03-03 03:00:00,36.6,25.2,30.16,NNW,337,5.0,16.0,63,0.00,,SKC,0.00,VWS V14.01,2013-03-03 09:00:00,
2013-03-03 03:01:00,36.5,25.1,30.16,NNW,344,3.0,9.0,63,0.00,,SKC,0.00,VWS V14.01,2013-03-03 09:01:00,
2013-03-03 03:02:00,36.5,25.1,30.16,NNW,338,4.0,9.0,63,0.00,,SKC,0.00,VWS V14.01,2013-03-03 09:02:00,
2013-03-03 03:03:00,36.5,25.1,30.16,NNW,338,4.0,9.0,63,0.00,,SKC,0.00,VWS V14.01,2013-03-03 09:03:00,
2013-03-03 03:04:00,36.5,25.1,30.16,NNW,332,1.0,9.0,63,0.00,,SKC,0.00,VWS V14.01,2013-03-03 09:04:00,
2013-03-03 03:05:00,36.5,25.1,30.16,NNW,332,1.0,9.0,63,0.00,,SKC,0.00,VWS V14.01,2013-03-03 09:05:00,
2013-03-03 03:06:00,36.4,25.0,30.16,NNW,332,0.0,9.0,63,0.00,,SKC,0.00,VWS V14.01,2013-03-03 09:06:00,
2013-03-03 03:07:00,36.4,25.0,30.16,NNW,332,1.0,9.0,63,0.00,,SKC,0.00,VWS V14.01,2013-03-03 09:07:00,
2013-03-03 03:08:00,36.4,25.0,30.16,NNW,332,1.0,9.0,63,0.00,,SKC,0.00,VWS V14.01,2013-03-03 09:08:00,
2013-03-03 03:09:00,36.4,25.0,30.16,NNW,332,0.0,9.0,63,0.00,,SKC,0.00,VWS V14.01,2013-03-03 09:09:00,
2013-03-03 03:10:00,36.3,25.3,30.16,NW,319,5.0,9.0,64,0.00,,SKC,0.00,VWS V14.01,2013-03-03 09:10:00,
2013-03-03 03:11:00,36.3,25.3,30.16,NW,314,1.0,9.0,64,0.00,,SKC,0.00,VWS V14.01,2013-03-03 09:11:00,
2013-03-03 03:12:00,36.2,25.2,30.16,NW,314,1.0,9.0,64,0.00,,SKC,0.00,VWS V14.01,2013-03-03 09:12:00,
2013-03-03 03:13:00,36.2,25.2,30.16,NW,314,3.0,9.0,64,0.00,,SKC,0.00,VWS V14.01,2013-03-03 09:13:00,
2013-03-03 03:14:00,36.1,25.1,30.16,NW,314,1.0,9.0,64,0.00,,SKC,0.00,VWS V14.01,2013-03-03 09:14:00,
2013-03-03 03:15:00,36.1,25.1,30.16,NW,315,3.0,9.0,64,0.00,,SKC,0.00,VWS V14.01,2013-03-03 09:15:00,
2013-03-03 03:16:00,36.1,25.1,30.16,NW,315,5.0,9.0,64,0.00,,SKC,0.00,VWS V14.01,2013-03-03 09:16:00,
2013-03-03 03:17:00,36.0,25.0,30.16,NW,306,9.0,9.0,64,0.00,,SKC,0.00,VWS V14.01,2013-03-03 09:17:00,
2013-03-03 03:18:00,36.0,25.0,30.16,NNW,331,4.0,9.0,64,0.00,,SKC,0.00,VWS V14.01,2013-03-03 09:18:00,
2013-03-03 03:19:00,36.0,25.0,30.16,NNW,331,2.0,9.0,64,0.00,,SKC,0.00,VWS V14.01,2013-03-03 09:19:00,
2013-03-03 03:20:00,35.9,24.9,30.16,NNW,331,3.0,9.0,64,0.00,,SKC,0.00,VWS V14.01,2013-03-03 09:20:00,
2013-03-03 03:21:00,35.9,24.9,30.16,NNW,331,2.0,9.0,64,0.00,,SKC,0.00,VWS V14.01,2013-03-03 09:21:00,
2013-03-03 03:22:00,35.8,24.8,30.16,NW,315,4.0,9.0,64,0.00,,SKC,0.00,VWS V14.01,2013-03-03 09:22:00,
2013-03-03 03:23:00,35.8,24.8,30.16,NW,318,6.0,9.0,64,0.00,,SKC,0.00,VWS V14.01,2013-03-03 09:23:00,
2013-03-03 03:24:00,35.7,24.7,30.16,North,360,3.0,9.0,64,0.00,,SKC,0.00,VWS V14.01,2013-03-03 09:24:00,
2013-03-03 03:25:00,35.7,24.7,30.16,NW,313,6.0,9.0,64,0.00,,SKC,0.00,VWS V14.01,2013-03-03 09:25:00,
2013-03-03 03:26:00,35.7,24.7,30.16,NW,321,5.0,9.0,64,0.00,,SKC,0.00,VWS V14.01,2013-03-03 09:26:00,
2013-03-03 03:27:00,35.6,24.6,30.16,NW,322,2.0,9.0,64,0.00,,SKC,0.00,VWS V14.01,2013-03-03 09:27:00,
2013-03-03 03:28:00,35.6,25.0,30.16,NNW,331,1.0,9.0,65,0.00,,SKC,0.00,VWS V14.01,2013-03-03 09:28:00,
2013-03-03 03:29:00,35.6,25.0,30.16,NNW,330,1.0,9.0,65,0.00,,SKC,0.00,VWS V14.01,2013-03-03 09:29:00,
2013-03-03 03:30:00,35.5,24.9,30.16,NNW,330,4.0,9.0,65,0.00,,SKC,0.00,VWS V14.01,2013-03-03 09:30:00,
2013-03-03 03:31:00,35.5,24.9,30.16,NNW,334,5.0,5.0,65,0.00,,SKC,0.00,VWS V14.01,2013-03-03 09:31:00,
2013-03-03 03:32:00,35.5,24.9,30.16,NW,323,4.0,6.0,65,0.00,,SKC,0.00,VWS V14.01,2013-03-03 09:32:00,
2013-03-03 03:33:00,35.4,24.8,30.16,NW,320,6.0,7.0,65,0.00,,SKC,0.00,VWS V14.01,2013-03-03 09:33:00,
2013-03-03 03:34:00,35.4,24.8,30.16,NW,320,0.0,7.0,65,0.00,,SKC,0.00,VWS V14.01,2013-03-03 09:34:00,
2013-03-03 03:35:00,35.3,24.7,30.16,NW,321,5.0,7.0,65,0.00,,SKC,0.00,VWS V14.01,2013-03-03 09:35:00,
2013-03-03 03:36:00,35.2,24.6,30.16,NNW,341,5.0,7.0,65,0.00,,SKC,0.00,VWS V14.01,2013-03-03 09:36:00,
2013-03-03 03:37:00,35.2,24.6,30.16,NNW,337,4.0,7.0,65,0.00,,SKC,0.00,VWS V14.01,2013-03-03 09:37:00,
2013-03-03 03:38:00,35.2,24.6,30.16,NNW,331,5.0,7.0,65,0.00,,SKC,0.00,VWS V14.01,2013-03-03 09:38:00,
2013-03-03 03:39:00,35.2,24.6,30.16,NW,309,4.0,9.0,65,0.00,,SKC,0.00,VWS V14.01,2013-03-03 09:39:00,
2013-03-03 03:40:00,35.1,24.5,30.16,NW,310,4.0,9.0,65,0.00,,SKC,0.00,VWS V14.01,2013-03-03 09:40:00,
2013-03-03 03:41:00,35.1,24.5,30.16,NW,318,3.0,9.0,65,0.00,,SKC,0.00,VWS V14.01,2013-03-03 09:41:00,
2013-03-03 03:42:00,35.0,24.4,30.16,NW,324,4.0,9.0,65,0.00,,SKC,0.00,VWS V14.01,2013-03-03 09:42:00,
2013-03-03 03:43:00,35.0,24.4,30.16,NW,310,1.0,9.0,65,0.00,,SKC,0.00,VWS V14.01,2013-03-03 09:43:00,
2013-03-03 03:44:00,35.0,24.4,30.16,NW,310,2.0,9.0,65,0.00,,SKC,0.00,VWS V14.01,2013-03-03 09:44:00,
2013-03-03 03:45:00,35.0,24.8,30.16,NW,310,1.0,9.0,66,0.00,,SKC,0.00,VWS V14.01,2013-03-03 09:45:00,
2013-03-03 03:46:00,34.9,24.7,30.16,NW,310,1.0,9.0,66,0.00,,SKC,0.00,VWS V14.01,2013-03-03 09:46:00,
2013-03-03 03:47:00,34.9,24.7,30.16,NW,310,0.0,9.0,66,0.00,,SKC,0.00,VWS V14.01,2013-03-03 09:47:00,
2013-03-03 03:48:00,34.8,24.6,30.16,NW,310,5.0,9.0,66,0.00,,SKC,0.00,VWS V14.01,2013-03-03 09:48:00,
2013-03-03 03:49:00,34.8,24.6,30.16,NW,310,2.0,9.0,66,0.00,,SKC,0.00,VWS V14.01,2013-03-03 09:49:00,
2013-03-03 03:50:00,34.8,24.6,30.16,NW,310,3.0,9.0,66,0.00,,SKC,0.00,VWS V14.01,2013-03-03 09:50:00,
2013-03-03 03:51:00,34.7,24.5,30.16,NW,310,2.0,9.0,66,0.00,,SKC,0.00,VWS V14.01,2013-03-03 09:51:00,
2013-03-03 03:52:00,34.7,24.5,30.16,NW,310,1.0,9.0,66,0.00,,SKC,0.00,VWS V14.01,2013-03-03 09:52:00,
2013-03-03 03:53:00,34.6,24.4,30.16,NW,310,2.0,9.0,66,0.00,,SKC,0.00,VWS V14.01,2013-03-03 09:53:00,
2013-03-03 03:54:00,34.5,24.7,30.16,NW,310,0.0,9.0,67,0.00,,SKC,0.00,VWS V14.01,2013-03-03 09:54:00,
2013-03-03 03:55:00,34.4,24.6,30.17,NW,310,5.0,9.0,67,0.00,,SKC,0.00,VWS V14.01,2013-03-03 09:55:00,
2013-03-03 03:56:00,34.4,24.6,30.17,NW,310,2.0,9.0,67,0.00,,SKC,0.00,VWS V14.01,2013-03-03 09:56:00,
2013-03-03 03:57:00,34.4,24.6,30.17,NW,310,0.0,9.0,67,0.00,,SKC,0.00,VWS V14.01,2013-03-03 09:57:00,
2013-03-03 03:58:00,34.3,24.5,30.16,NW,310,1.0,9.0,67,0.00,,SKC,0.00,VWS V14.01,2013-03-03 09:58:00,
2013-03-03 03:59:00,34.3,24.5,30.17,NW,310,2.0,9.0,67,0.00,,SKC,0.00,VWS V14.01,2013-03-03 09:59:00,
2013-03-03 04:00:00,34.2,24.4,30.17,NW,310,0.0,9.0,67,0.00,,SKC,0.00,VWS V14.01,2013-03-03 10:00:00,
2013-03-03 04:01:00,34.2,24.8,30.17,NW,310,3.0,5.0,68,0.00,,SKC,0.00,VWS V14.01,2013-03-03 10:01:00,
2013-03-03 04:02:00,34.1,24.3,30.17,NW,310,2.0,5.0,67,0.00,,SKC,0.00,VWS V14.01,2013-03-03 10:02:00,
2013-03-03 04:03:00,34.1,24.7,30.17,NW,310,1.0,5.0,68,0.00,,SKC,0.00,VWS V14.01,2013-03-03 10:03:00,
2013-03-03 04:04:00,34.0,24.6,30.17,NW,310,0.0,5.0,68,0.00,,SKC,0.00,VWS V14.01,2013-03-03 10:04:00,
2013-03-03 04:05:00,33.9,24.5,30.17,NW,310,0.0,5.0,68,0.00,,SKC,0.00,VWS V14.01,2013-03-03 10:05:00,
2013-03-03 04:06:00,33.9,24.5,30.17,NW,310,1.0,5.0,68,0.00,,SKC,0.00,VWS V14.01,2013-03-03 10:06:00,
2013-03-03 04:07:00,33.9,24.5,30.17,NW,313,5.0,5.0,68,0.00,,SKC,0.00,VWS V14.01,2013-03-03 10:07:00,
2013-03-03 04:08:00,33.8,24.4,30.17,NW,313,2.0,5.0,68,0.00,,SKC,0.00,VWS V14.01,2013-03-03 10:08:00,
2013-03-03 04:09:00,33.8,24.4,30.17,NW,313,1.0,5.0,68,0.00,,SKC,0.00,VWS V14.01,2013-03-03 10:09:00,
2013-03-03 04:10:00,33.7,24.3,30.17,NW,313,0.0,5.0,68,0.00,,SKC,0.00,VWS V14.01,2013-03-03 10:10:00,
2013-03-03 04:11:00,33.7,24.6,30.17,NW,313,4.0,6.0,69,0.00,,SKC,0.00,VWS V14.01,2013-03-03 10:11:00,
2013-03-03 04:12:00,33.6,24.5,30.17,NW,313,4.0,6.0,69,0.00,,SKC,0.00,VWS V14.01,2013-03-03 10:12:00,
2013-03-03 04:13:00,33.5,24.4,30.17,WNW,296,7.0,7.0,69,0.00,,SKC,0.00,VWS V14.01,2013-03-03 10:13:00,
2013-03-03 04:14:00,33.5,24.4,30.17,NW,315,2.0,7.0,69,0.00,,SKC,0.00,VWS V14.01,2013-03-03 10:14:00,
2013-03-03 04:15:00,33.5,24.4,30.17,NW,315,1.0,7.0,69,0.00,,SKC,0.00,VWS V14.01,2013-03-03 10:15:00,
2013-03-03 04:16:00,33.4,24.3,30.17,NW,315,2.0,7.0,69,0.00,,SKC,0.00,VWS V14.01,2013-03-03 10:16:00,
2013-03-03 04:17:00,33.4,24.3,30.17,NW,320,4.0,7.0,69,0.00,,SKC,0.00,VWS V14.01,2013-03-03 10:17:00,
2013-03-03 04:18:00,33.3,24.6,30.17,NW,320,3.0,7.0,70,0.00,,SKC,0.00,VWS V14.01,2013-03-03 10:18:00,
2013-03-03 04:19:00,33.3,24.2,30.18,NW,320,1.0,7.0,69,0.00,,SKC,0.00,VWS V14.01,2013-03-03 10:19:00,
2013-03-03 04:20:00,33.3,24.6,30.17,NW,320,6.0,7.0,70,0.00,,SKC,0.00,VWS V14.01,2013-03-03 10:20:00,
2013-03-03 04:21:00,33.3,24.6,30.17,NW,320,0.0,7.0,70,0.00,,SKC,0.00,VWS V14.01,2013-03-03 10:21:00,
2013-03-03 04:22:00,33.2,24.5,30.17,NW,320,0.0,7.0,70,0.00,,SKC,0.00,VWS V14.01,2013-03-03 10:22:00,
2013-03-03 04:23:00,33.2,24.5,30.17,NW,320,1.0,7.0,70,0.00,,SKC,0.00,VWS V14.01,2013-03-03 10:23:00,
2013-03-03 04:24:00,33.1,24.4,30.17,NW,320,4.0,7.0,70,0.00,,SKC,0.00,VWS V14.01,2013-03-03 10:24:00,
2013-03-03 04:25:00,33.1,24.4,30.17,NW,320,1.0,7.0,70,0.00,,SKC,0.00,VWS V14.01,2013-03-03 10:25:00,
2013-03-03 04:26:00,33.1,24.4,30.17,NW,320,0.0,7.0,70,0.00,,SKC,0.00,VWS V14.01,2013-03-03 10:26:00,
2013-03-03 04:27:00,33.1,24.4,30.18,NW,320,0.0,7.0,70,0.00,,SKC,0.00,VWS V14.01,2013-03-03 10:27:00,
2013-03-03 04:28:00,33.0,24.3,30.18,NW,320,4.0,7.0,70,0.00,,SKC,0.00,VWS V14.01,2013-03-03 10:28:00,
2013-03-03 04:29:00,33.0,24.3,30.18,NW,320,0.0,7.0,70,0.00,,SKC,0.00,VWS V14.01,2013-03-03 10:29:00,
2013-03-03 04:30:00,33.0,24.3,30.18,NW,320,2.0,7.0,70,0.00,,SKC,0.00,VWS V14.01,2013-03-03 10:30:00,
2013-03-03 04:31:00,33.0,24.6,30.18,NW,320,1.0,6.0,71,0.00,,SKC,0.00,VWS V14.01,2013-03-03 10:31:00,
2013-03-03 04:32:00,33.0,24.3,30.18,NW,320,3.0,6.0,70,0.00,,SKC,0.00,VWS V14.01,2013-03-03 10:32:00,
2013-03-03 04:33:00,32.9,24.2,30.18,NW,320,2.0,6.0,70,0.00,,SKC,0.00,VWS V14.01,2013-03-03 10:33:00,
2013-03-03 04:34:00,32.9,24.2,30.18,NW,320,0.0,6.0,70,0.00,,SKC,0.00,VWS V14.01,2013-03-03 10:34:00,
2013-03-03 04:35:00,32.9,24.2,30.18,NW,320,2.0,6.0,70,0.00,,SKC,0.00,VWS V14.01,2013-03-03 10:35:00,
2013-03-03 04:36:00,32.9,24.5,30.18,NW,320,0.0,6.0,71,0.00,,SKC,0.00,VWS V14.01,2013-03-03 10:36:00,
2013-03-03 04:37:00,32.8,24.5,30.18,NW,320,1.0,6.0,71,0.00,,SKC,0.00,VWS V14.01,2013-03-03 10:37:00,
2013-03-03 04:38:00,32.8,24.5,30.18,NNW,331,5.0,6.0,71,0.00,,SKC,0.00,VWS V14.01,2013-03-03 10:38:00,
2013-03-03 04:39:00,32.8,24.5,30.18,WNW,298,3.0,7.0,71,0.00,,SKC,0.00,VWS V14.01,2013-03-03 10:39:00,
2013-03-03 04:40:00,32.8,24.5,30.18,NNW,329,3.0,7.0,71,0.00,,SKC,0.00,VWS V14.01,2013-03-03 10:40:00,
2013-03-03 04:41:00,32.8,24.5,30.18,NNW,330,4.0,7.0,71,0.00,,SKC,0.00,VWS V14.01,2013-03-03 10:41:00,
2013-03-03 04:42:00,32.8,24.5,30.18,WNW,302,6.0,7.0,71,0.00,,SKC,0.00,VWS V14.01,2013-03-03 10:42:00,
2013-03-03 04:43:00,32.8,24.5,30.18,NNW,329,4.0,7.0,71,0.00,,SKC,0.00,VWS V14.01,2013-03-03 10:43:00,
2013-03-03 04:44:00,32.9,24.5,30.18,NNW,329,2.0,7.0,71,0.00,,SKC,0.00,VWS V14.01,2013-03-03 10:44:00,
2013-03-03 04:45:00,32.9,24.5,30.18,NNW,328,5.0,7.0,71,0.00,,SKC,0.00,VWS V14.01,2013-03-03 10:45:00,
2013-03-03 04:46:00,32.9,24.5,30.18,NNW,333,6.0,7.0,71,0.00,,SKC,0.00,VWS V14.01,2013-03-03 10:46:00,
2013-03-03 04:47:00,32.9,24.9,30.18,NNW,333,2.0,7.0,72,0.00,,SKC,0.00,VWS V14.01,2013-03-03 10:47:00,
2013-03-03 04:48:00,32.9,24.9,30.18,NW,325,2.0,7.0,72,0.00,,SKC,0.00,VWS V14.01,2013-03-03 10:48:00,
2013-03-03 04:49:00,33.0,25.0,30.18,NW,325,7.0,8.0,72,0.00,,SKC,0.00,VWS V14.01,2013-03-03 10:49:00,
2013-03-03 04:50:00,33.0,25.0,30.18,NNW,329,4.0,9.0,72,0.00,,SKC,0.00,VWS V14.01,2013-03-03 10:50:00,
2013-03-03 04:51:00,33.0,25.0,30.18,NNW,329,4.0,9.0,72,0.00,,SKC,0.00,VWS V14.01,2013-03-03 10:51:00,
2013-03-03 04:52:00,33.0,25.0,30.18,NNW,329,3.0,9.0,72,0.00,,SKC,0.00,VWS V14.01,2013-03-03 10:52:00,
2013-03-03 04:53:00,33.0,25.0,30.18,NNW,329,1.0,9.0,72,0.00,,SKC,0.00,VWS V14.01,2013-03-03 10:53:00,
2013-03-03 04:54:00,33.0,25.0,30.18,NW,325,5.0,9.0,72,0.00,,SKC,0.00,VWS V14.01,2013-03-03 10:54:00,
2013-03-03 04:55:00,32.9,24.9,30.18,NW,320,4.0,9.0,72,0.00,,SKC,0.00,VWS V14.01,2013-03-03 10:55:00,
2013-03-03 04:56:00,33.0,25.0,30.19,NW,312,2.0,9.0,72,0.00,,SKC,0.00,VWS V14.01,2013-03-03 10:56:00,
2013-03-03 04:57:00,32.9,24.9,30.19,NW,312,2.0,9.0,72,0.00,,SKC,0.00,VWS V14.01,2013-03-03 10:57:00,
2013-03-03 04:58:00,33.0,25.0,30.19,NW,312,1.0,9.0,72,0.00,,SKC,0.00,VWS V14.01,2013-03-03 10:58:00,
2013-03-03 04:59:00,32.9,24.9,30.18,NW,312,0.0,9.0,72,0.00,,SKC,0.00,VWS V14.01,2013-03-03 10:59:00,
2013-03-03 05:00:00,33.0,25.3,30.18,NW,312,3.0,9.0,73,0.00,,SKC,0.00,VWS V14.01,2013-03-03 11:00:00,
2013-03-03 05:01:00,33.0,25.3,30.18,NW,312,2.0,5.0,73,0.00,,SKC,0.00,VWS V14.01,2013-03-03 11:01:00,
2013-03-03 05:02:00,33.0,25.3,30.18,NW,312,2.0,5.0,73,0.00,,SKC,0.00,VWS V14.01,2013-03-03 11:02:00,
2013-03-03 05:03:00,33.0,25.3,30.18,NNW,329,2.0,7.0,73,0.00,,SKC,0.00,VWS V14.01,2013-03-03 11:03:00,
2013-03-03 05:04:00,33.0,25.3,30.19,NNW,329,2.0,7.0,73,0.00,,SKC,0.00,VWS V14.01,2013-03-03 11:04:00,
2013-03-03 05:05:00,33.0,25.3,30.19,NNW,329,2.0,7.0,73,0.00,,SKC,0.00,VWS V14.01,2013-03-03 11:05:00,
2013-03-03 05:06:00,33.0,25.3,30.19,NNW,342,5.0,7.0,73,0.00,,SKC,0.00,VWS V14.01,2013-03-03 11:06:00,
2013-03-03 05:07:00,33.0,25.3,30.19,NNW,342,2.0,7.0,73,0.00,,SKC,0.00,VWS V14.01,2013-03-03 11:07:00,
2013-03-03 05:08:00,33.0,25.3,30.19,NNW,338,5.0,7.0,73,0.00,,SKC,0.00,VWS V14.01,2013-03-03 11:08:00,
2013-03-03 05:09:00,33.0,25.3,30.19,NNW,331,5.0,7.0,73,0.00,,SKC,0.00,VWS V14.01,2013-03-03 11:09:00,
2013-03-03 05:10:00,33.0,25.3,30.19,NNW,331,3.0,7.0,73,0.00,,SKC,0.00,VWS V14.01,2013-03-03 11:10:00,
2013-03-03 05:11:00,33.1,25.4,30.19,NNW,335,2.0,7.0,73,0.00,,SKC,0.00,VWS V14.01,2013-03-03 11:11:00,
2013-03-03 05:12:00,33.1,25.4,30.19,North,351,0.0,7.0,73,0.00,,SKC,0.00,VWS V14.01,2013-03-03 11:12:00,
2013-03-03 05:13:00,33.1,25.4,30.19,NNW,338,5.0,7.0,73,0.00,,SKC,0.00,VWS V14.01,2013-03-03 11:13:00,
2013-03-03 05:14:00,33.1,25.4,30.19,NNW,344,4.0,8.0,73,0.00,,SKC,0.00,VWS V14.01,2013-03-03 11:14:00,
2013-03-03 05:15:00,33.1,25.4,30.19,NNW,338,6.0,8.0,73,0.00,,SKC,0.00,VWS V14.01,2013-03-03 11:15:00,
2013-03-03 05:16:00,33.1,25.4,30.19,NNW,331,2.0,8.0,73,0.00,,SKC,0.00,VWS V14.01,2013-03-03 11:16:00,
2013-03-03 05:17:00,33.1,25.4,30.19,NNW,331,5.0,8.0,73,0.00,,SKC,0.00,VWS V14.01,2013-03-03 11:17:00,
2013-03-03 05:18:00,33.1,25.7,30.19,NNW,331,3.0,8.0,74,0.00,,SKC,0.00,VWS V14.01,2013-03-03 11:18:00,
2013-03-03 05:19:00,33.0,25.6,30.19,NNW,328,5.0,8.0,74,0.00,,SKC,0.00,VWS V14.01,2013-03-03 11:19:00,
2013-03-03 05:20:00,33.0,25.6,30.19,NW,325,5.0,8.0,74,0.00,,SKC,0.00,VWS V14.01,2013-03-03 11:20:00,
2013-03-03 05:21:00,33.0,25.6,30.19,NW,321,2.0,8.0,74,0.00,,SKC,0.00,VWS V14.01,2013-03-03 11:21:00,
2013-03-03 05:22:00,33.0,25.6,30.19,NW,321,2.0,8.0,74,0.00,,SKC,0.00,VWS V14.01,2013-03-03 11:22:00,
2013-03-03 05:23:00,33.0,25.6,30.19,NNW,330,6.0,8.0,74,0.00,,SKC,0.00,VWS V14.01,2013-03-03 11:23:00,
2013-03-03 05:24:00,33.0,25.6,30.19,NNW,340,4.0,8.0,74,0.00,,SKC,0.00,VWS V14.01,2013-03-03 11:24:00,
2013-03-03 05:25:00,33.1,25.7,30.19,NNW,335,4.0,8.0,74,0.00,,SKC,0.00,VWS V14.01,2013-03-03 11:25:00,
2013-03-03 05:26:00,33.1,25.7,30.19,NNW,335,1.0,8.0,74,0.00,,SKC,0.00,VWS V14.01,2013-03-03 11:26:00,
2013-03-03 05:27:00,33.1,25.7,30.19,NW,323,5.0,8.0,74,0.00,,SKC,0.00,VWS V14.01,2013-03-03 11:27:00,
2013-03-03 05:28:00,33.1,25.7,30.19,NW,323,3.0,8.0,74,0.00,,SKC,0.00,VWS V14.01,2013-03-03 11:28:00,
2013-03-03 05:29:00,33.1,25.7,30.19,North,355,6.0,8.0,74,0.00,,SKC,0.00,VWS V14.01,2013-03-03 11:29:00,
2013-03-03 05:30:00,33.1,25.7,30.19,North,355,1.0,8.0,74,0.00,,SKC,0.00,VWS V14.01,2013-03-03 11:30:00,
2013-03-03 05:31:00,33.1,25.7,30.19,North,355,1.0,1.0,74,0.00,,SKC,0.00,VWS V14.01,2013-03-03 11:31:00,
2013-03-03 05:32:00,33.2,25.8,30.19,NW,325,0.0,2.0,74,0.00,,SKC,0.00,VWS V14.01,2013-03-03 11:32:00,
2013-03-03 05:33:00,33.2,25.8,30.19,NNW,344,4.0,7.0,74,0.00,,SKC,0.00,VWS V14.01,2013-03-03 11:33:00,
2013-03-03 05:34:00,33.2,25.8,30.19,NW,319,5.0,8.0,74,0.00,,SKC,0.00,VWS V14.01,2013-03-03 11:34:00,
2013-03-03 05:35:00,33.3,25.9,30.19,NNW,335,4.0,8.0,74,0.00,,SKC,0.00,VWS V14.01,2013-03-03 11:35:00,
2013-03-03 05:36:00,33.3,25.9,30.19,NNW,334,2.0,8.0,74,0.00,,SKC,0.00,VWS V14.01,2013-03-03 11:36:00,
2013-03-03 05:37:00,33.3,25.9,30.19,NNW,334,3.0,8.0,74,0.00,,SKC,0.00,VWS V14.01,2013-03-03 11:37:00,
2013-03-03 05:38:00,33.3,25.9,30.19,NNW,334,3.0,8.0,74,0.00,,SKC,0.00,VWS V14.01,2013-03-03 11:38:00,
2013-03-03 05:39:00,33.3,25.9,30.19,NNW,346,5.0,8.0,74,0.00,,SKC,0.00,VWS V14.01,2013-03-03 11:39:00,
2013-03-03 05:40:00,33.3,25.9,30.19,NNW,346,4.0,8.0,74,0.00,,SKC,0.00,VWS V14.01,2013-03-03 11:40:00,
2013-03-03 05:41:00,33.3,25.9,30.20,NNW,338,8.0,8.0,74,0.00,,SKC,0.00,VWS V14.01,2013-03-03 11:41:00,
2013-03-03 05:42:00,33.4,26.0,30.20,NNW,328,1.0,9.0,74,0.00,,SKC,0.00,VWS V14.01,2013-03-03 11:42:00,
2013-03-03 05:43:00,33.4,26.0,30.20,NNW,328,5.0,9.0,74,0.00,,SKC,0.00,VWS V14.01,2013-03-03 11:43:00,
2013-03-03 05:44:00,33.4,26.0,30.20,NW,311,5.0,9.0,74,0.00,,SKC,0.00,VWS V14.01,2013-03-03 11:44:00,
2013-03-03 05:45:00,33.4,26.0,30.20,NW,324,6.0,9.0,74,0.00,,SKC,0.00,VWS V14.01,2013-03-03 11:45:00,
2013-03-03 05:46:00,33.5,26.1,30.20,NW,324,1.0,9.0,74,0.00,,SKC,0.00,VWS V14.01,2013-03-03 11:46:00,
2013-03-03 05:47:00,33.6,26.2,30.20,NNE,15,0.0,9.0,74,0.00,,SKC,0.00,VWS V14.01,2013-03-03 11:47:00,
2013-03-03 05:48:00,33.6,26.2,30.20,NW,308,8.0,10.0,74,0.00,,SKC,0.00,VWS V14.01,2013-03-03 11:48:00,
2013-03-03 05:49:00,33.7,26.3,30.20,WNW,297,9.0,10.0,74,0.00,,SKC,0.00,VWS V14.01,2013-03-03 11:49:00,
2013-03-03 05:50:00,33.8,26.4,30.20,North,349,6.0,10.0,74,0.00,,SKC,0.00,VWS V14.01,2013-03-03 11:50:00,
2013-03-03 05:51:00,33.9,26.2,30.20,NNW,329,8.0,10.0,73,0.00,,SKC,0.00,VWS V14.01,2013-03-03 11:51:00,
2013-03-03 05:52:00,34.0,26.3,30.20,NW,320,5.0,10.0,73,0.00,,SKC,0.00,VWS V14.01,2013-03-03 11:52:00,
2013-03-03 05:53:00,34.1,26.4,30.20,North,360,6.0,10.0,73,0.00,,SKC,0.00,VWS V14.01,2013-03-03 11:53:00,
2013-03-03 05:54:00,34.2,26.5,30.20,NW,320,8.0,10.0,73,0.00,,SKC,0.00,VWS V14.01,2013-03-03 11:54:00,
2013-03-03 05:55:00,34.3,26.6,30.20,NW,323,7.0,10.0,73,0.00,,SKC,0.00,VWS V14.01,2013-03-03 11:55:00,
2013-03-03 05:56:00,34.3,26.2,30.20,NNW,330,1.0,10.0,72,0.00,,SKC,0.00,VWS V14.01,2013-03-03 11:56:00,
2013-03-03 05:57:00,34.5,26.4,30.20,North,355,7.0,10.0,72,0.00,,SKC,0.00,VWS V14.01,2013-03-03 11:57:00,
2013-03-03 05:58:00,34.6,26.5,30.20,North,355,3.0,10.0,72,0.00,,SKC,0.00,VWS V14.01,2013-03-03 11:58:00,
2013-03-03 05:59:00,34.7,26.6,30.20,NNW,336,4.0,10.0,72,0.00,,SKC,0.00,VWS V14.01,2013-03-03 11:59:00,
2013-03-03 06:00:00,34.8,26.7,30.20,NW,320,2.0,10.0,72,0.00,,SKC,0.00,VWS V14.01,2013-03-03 12:00:00,
2013-03-03 06:01:00,34.9,26.8,30.20,NW,313,1.0,11.0,72,0.00,,SKC,0.00,VWS V14.01,2013-03-03 12:01:00,
2013-03-03 06:02:00,34.9,26.5,30.20,NNW,327,4.0,11.0,71,0.00,,SKC,0.00,VWS V14.01,2013-03-03 12:02:00,
2013-03-03 06:03:00,35.0,26.6,30.20,NW,317,6.0,11.0,71,0.00,,SKC,0.00,VWS V14.01,2013-03-03 12:03:00,
2013-03-03 06:04:00,35.1,26.7,30.20,NW,318,2.0,11.0,71,0.00,,SKC,0.00,VWS V14.01,2013-03-03 12:04:00,
2013-03-03 06:05:00,35.2,26.8,30.20,North,355,8.0,11.0,71,0.00,,SKC,0.00,VWS V14.01,2013-03-03 12:05:00,
2013-03-03 06:06:00,35.3,26.9,30.20,NNW,334,8.0,11.0,71,0.00,,SKC,0.00,VWS V14.01,2013-03-03 12:06:00,
2013-03-03 06:07:00,35.3,26.5,30.20,NW,306,8.0,11.0,70,0.00,,SKC,0.00,VWS V14.01,2013-03-03 12:07:00,
2013-03-03 06:08:00,35.4,26.6,30.20,North,5,2.0,11.0,70,0.00,,SKC,0.00,VWS V14.01,2013-03-03 12:08:00,
2013-03-03 06:09:00,35.5,26.7,30.20,WNW,303,8.0,11.0,70,0.00,,SKC,0.00,VWS V14.01,2013-03-03 12:09:00,
2013-03-03 06:10:00,35.6,26.8,30.20,NW,306,4.0,11.0,70,0.00,,SKC,0.00,VWS V14.01,2013-03-03 12:10:00,
2013-03-03 06:11:00,35.7,26.9,30.20,North,355,10.0,11.0,70,0.00,,SKC,0.00,VWS V14.01,2013-03-03 12:11:00,
2013-03-03 06:12:00,35.7,26.5,30.21,NW,306,9.0,13.0,69,0.00,,SKC,0.00,VWS V14.01,2013-03-03 12:12:00,
2013-03-03 06:13:00,35.8,26.6,30.21,NW,317,6.0,13.0,69,0.00,,SKC,0.00,VWS V14.01,2013-03-03 12:13:00,
2013-03-03 06:14:00,35.9,26.7,30.21,NW,305,5.0,13.0,69,0.00,,SKC,0.00,VWS V14.01,2013-03-03 12:14:00,
2013-03-03 06:15:00,36.0,26.8,30.21,NW,309,6.0,13.0,69,0.00,,SKC,0.00,VWS V14.01,2013-03-03 12:15:00,
2013-03-03 06:16:00,36.1,26.9,30.21,North,349,1.0,13.0,69,0.00,,SKC,0.00,VWS V14.01,2013-03-03 12:16:00,
2013-03-03 06:17:00,36.2,27.0,30.21,North,355,7.0,13.0,69,0.00,,SKC,0.00,VWS V14.01,2013-03-03 12:17:00,
2013-03-03 06:18:00,36.2,27.0,30.21,NNW,338,6.0,13.0,69,0.00,,SKC,0.00,VWS V14.01,2013-03-03 12:18:00,
2013-03-03 06:19:00,36.3,27.1,30.21,North,5,4.0,13.0,69,0.00,,SKC,0.00,VWS V14.01,2013-03-03 12:19:00,
2013-03-03 06:20:00,36.5,27.3,30.21,NW,308,8.0,13.0,69,0.00,,SKC,0.00,VWS V14.01,2013-03-03 12:20:00,
2013-03-03 06:21:00,36.5,27.0,30.21,NNW,333,5.0,13.0,68,0.00,,SKC,0.00,VWS V14.01,2013-03-03 12:21:00,
2013-03-03 06:22:00,36.6,27.0,30.21,NNW,337,5.0,13.0,68,0.00,,SKC,0.00,VWS V14.01,2013-03-03 12:22:00,
2013-03-03 06:23:00,36.7,27.1,30.21,NW,321,13.0,14.0,68,0.00,,SKC,0.00,VWS V14.01,2013-03-03 12:23:00,
2013-03-03 06:24:00,36.8,27.2,30.21,NNW,339,6.0,14.0,68,0.00,,SKC,0.00,VWS V14.01,2013-03-03 12:24:00,
2013-03-03 06:25:00,36.9,27.3,30.21,NNW,348,6.0,14.0,68,0.00,,SKC,0.00,VWS V14.01,2013-03-03 12:25:00,
2013-03-03 06:26:00,37.0,27.4,30.21,NW,321,7.0,14.0,68,0.00,,SKC,0.00,VWS V14.01,2013-03-03 12:26:00,
2013-03-03 06:27:00,37.1,27.2,30.21,NNW,331,7.0,14.0,67,0.00,,SKC,0.00,VWS V14.01,2013-03-03 12:27:00,
2013-03-03 06:28:00,37.1,27.2,30.21,NW,306,4.0,14.0,67,0.00,,SKC,0.00,VWS V14.01,2013-03-03 12:28:00,
2013-03-03 06:29:00,37.3,27.4,30.21,NW,313,8.0,14.0,67,0.00,,SKC,0.00,VWS V14.01,2013-03-03 12:29:00,
2013-03-03 06:30:00,37.3,27.4,30.21,NNW,334,10.0,14.0,67,0.00,,SKC,0.00,VWS V14.01,2013-03-03 12:30:00,
2013-03-03 06:31:00,37.4,27.1,30.21,WNW,301,6.0,10.0,66,0.00,,SKC,0.00,VWS V14.01,2013-03-03 12:31:00,
2013-03-03 06:32:00,37.4,27.1,30.21,North,5,9.0,10.0,66,0.00,,SKC,0.00,VWS V14.01,2013-03-03 12:32:00,
2013-03-03 06:33:00,37.4,27.1,30.21,NW,306,6.0,11.0,66,0.00,,SKC,0.00,VWS V14.01,2013-03-03 12:33:00,
2013-03-03 06:34:00,37.5,27.2,30.21,NW,326,6.0,11.0,66,0.00,,SKC,0.00,VWS V14.01,2013-03-03 12:34:00,
2013-03-03 06:35:00,37.5,27.2,30.21,NW,308,7.0,11.0,66,0.00,,SKC,0.00,VWS V14.01,2013-03-03 12:35:00,
2013-03-03 06:36:00,37.6,27.3,30.21,NW,323,6.0,11.0,66,0.00,,SKC,0.00,VWS V14.01,2013-03-03 12:36:00,
2013-03-03 06:37:00,37.7,27.8,30.21,NW,322,2.0,11.0,67,0.00,,SKC,0.00,VWS V14.01,2013-03-03 12:37:00,
2013-03-03 06:38:00,37.8,27.8,30.21,NW,322,4.0,11.0,67,0.00,,SKC,0.00,VWS V14.01,2013-03-03 12:38:00,
2013-03-03 06:39:00,38.0,28.0,30.21,North,355,1.0,11.0,67,0.00,,SKC,0.00,VWS V14.01,2013-03-03 12:39:00,
2013-03-03 06:40:00,38.1,27.8,30.21,NW,309,0.0,11.0,66,0.00,,SKC,0.00,VWS V14.01,2013-03-03 12:40:00,
2013-03-03 06:44:00,38.6,27.9,30.20,NW,312,2.0,2.0,65,0.00,,SKC,0.00,VWS V14.01,2013-03-03 12:44:00,
2013-03-03 06:45:00,38.7,28.0,30.21,NW,323,1.0,7.0,65,0.00,,SKC,0.00,VWS V14.01,2013-03-03 12:45:00,
2013-03-03 06:46:00,38.8,28.1,30.21,NNW,341,2.0,7.0,65,0.00,,SKC,0.00,VWS V14.01,2013-03-03 12:46:00,
2013-03-03 06:47:00,38.9,28.1,30.21,NNW,344,4.0,7.0,65,0.00,,SKC,0.00,VWS V14.01,2013-03-03 12:47:00,
2013-03-03 06:48:00,39.0,28.2,30.21,NNW,335,2.0,7.0,65,0.00,,SKC,0.00,VWS V14.01,2013-03-03 12:48:00,
2013-03-03 06:49:00,39.1,28.0,30.21,WNW,300,5.0,7.0,64,0.00,,SKC,0.00,VWS V14.01,2013-03-03 12:49:00,
2013-03-03 06:50:00,39.1,28.3,30.21,North,360,11.0,11.0,65,0.00,,SKC,0.00,VWS V14.01,2013-03-03 12:50:00,
2013-03-03 06:51:00,39.0,27.5,30.21,NW,323,5.0,14.0,63,0.00,,SKC,0.00,VWS V14.01,2013-03-03 12:51:00,
2013-03-03 06:52:00,39.0,27.9,30.21,WNW,298,10.0,14.0,64,0.00,,SKC,0.00,VWS V14.01,2013-03-03 12:52:00,
2013-03-03 06:53:00,39.0,27.9,30.21,NW,317,9.0,14.0,64,0.00,,SKC,0.00,VWS V14.01,2013-03-03 12:53:00,
2013-03-03 06:54:00,39.0,27.9,30.21,NNW,348,7.0,14.0,64,0.00,,SKC,0.00,VWS V14.01,2013-03-03 12:54:00,
2013-03-03 06:55:00,39.0,27.9,30.21,NNW,327,7.0,14.0,64,0.00,,SKC,0.00,VWS V14.01,2013-03-03 12:55:00,
2013-03-03 06:56:00,39.1,27.6,30.21,NW,316,5.0,14.0,63,0.00,,SKC,0.00,VWS V14.01,2013-03-03 12:56:00,
2013-03-03 06:57:00,39.1,28.0,30.21,NW,313,9.0,14.0,64,0.00,,SKC,0.00,VWS V14.01,2013-03-03 12:57:00,
2013-03-03 06:58:00,39.1,28.0,30.21,WNW,296,10.0,14.0,64,0.00,,SKC,0.00,VWS V14.01,2013-03-03 12:58:00,
2013-03-03 06:59:00,39.2,28.1,30.21,WNW,292,6.0,14.0,64,0.00,,SKC,0.00,VWS V14.01,2013-03-03 12:59:00,
2013-03-03 07:00:00,39.3,27.8,30.21,NW,308,8.0,14.0,63,0.00,,SKC,0.00,VWS V14.01,2013-03-03 13:00:00,
2013-03-03 07:01:00,39.3,27.8,30.21,North,355,11.0,11.0,63,0.00,,SKC,0.00,VWS V14.01,2013-03-03 13:01:00,
2013-03-03 07:02:00,39.4,27.9,30.22,NNW,327,8.0,13.0,63,0.00,,SKC,0.00,VWS V14.01,2013-03-03 13:02:00,
2013-03-03 07:03:00,39.4,27.9,30.22,NW,309,5.0,13.0,63,0.00,,SKC,0.00,VWS V14.01,2013-03-03 13:03:00,
2013-03-03 07:04:00,39.4,27.9,30.22,West,281,4.0,13.0,63,0.00,,SKC,0.00,VWS V14.01,2013-03-03 13:04:00,
2013-03-03 07:05:00,39.5,28.0,30.22,North,351,7.0,13.0,63,0.00,,SKC,0.00,VWS V14.01,2013-03-03 13:05:00,
2013-03-03 07:06:00,39.4,27.9,30.22,North,360,6.0,13.0,63,0.00,,SKC,0.00,VWS V14.01,2013-03-03 13:06:00,
2013-03-03 07:07:00,39.4,27.9,30.22,NW,312,5.0,13.0,63,0.00,,SKC,0.00,VWS V14.01,2013-03-03 13:07:00,
2013-03-03 07:08:00,39.4,27.9,30.22,NW,310,6.0,13.0,63,0.00,,SKC,0.00,VWS V14.01,2013-03-03 13:08:00,
2013-03-03 07:09:00,39.5,28.4,30.22,WNW,299,7.0,13.0,64,0.00,,SKC,0.00,VWS V14.01,2013-03-03 13:09:00,
2013-03-03 07:10:00,39.6,28.1,30.21,NW,319,5.0,13.0,63,0.00,,SKC,0.00,VWS V14.01,2013-03-03 13:10:00,
2013-03-03 07:11:00,39.7,28.1,30.22,NW,307,6.0,13.0,63,0.00,,SKC,0.00,VWS V14.01,2013-03-03 13:11:00,
2013-03-03 07:12:00,39.8,28.2,30.21,NW,318,8.0,13.0,63,0.00,,SKC,0.00,VWS V14.01,2013-03-03 13:12:00,
2013-03-03 07:13:00,39.9,28.3,30.22,NW,319,4.0,13.0,63,0.00,,SKC,0.00,VWS V14.01,2013-03-03 13:13:00,
2013-03-03 07:14:00,40.0,28.0,30.22,NW,319,7.0,13.0,62,0.00,,SKC,0.00,VWS V14.01,2013-03-03 13:14:00,
2013-03-03 07:15:00,40.2,28.2,30.22,NW,315,7.0,13.0,62,0.00,,SKC,0.00,VWS V14.01,2013-03-03 13:15:00,
2013-03-03 07:16:00,40.2,28.2,30.22,NW,311,8.0,13.0,62,0.00,,SKC,0.00,VWS V14.01,2013-03-03 13:16:00,
2013-03-03 07:17:00,40.3,28.3,30.22,NNW,344,8.0,13.0,62,0.00,,SKC,0.00,VWS V14.01,2013-03-03 13:17:00,
2013-03-03 07:18:00,40.3,27.9,30.22,North,355,6.0,13.0,61,0.00,,SKC,0.00,VWS V14.01,2013-03-03 13:18:00,
2013-03-03 07:19:00,40.2,27.8,30.22,NNW,337,4.0,13.0,61,0.00,,SKC,0.00,VWS V14.01,2013-03-03 13:19:00,
2013-03-03 07:20:00,40.2,28.2,30.22,NNW,334,7.0,13.0,62,0.00,,SKC,0.00,VWS V14.01,2013-03-03 13:20:00,
2013-03-03 07:21:00,40.2,28.2,30.22,North,5,7.0,13.0,62,0.00,,SKC,0.00,VWS V14.01,2013-03-03 13:21:00,
2013-03-03 07:22:00,40.0,27.6,30.22,NNW,346,3.0,13.0,61,0.00,,SKC,0.00,VWS V14.01,2013-03-03 13:22:00,
2013-03-03 07:23:00,39.9,28.0,30.22,NW,316,5.0,13.0,62,0.00,,SKC,0.00,VWS V14.01,2013-03-03 13:23:00,
2013-03-03 07:24:00,40.0,28.0,30.22,North,349,5.0,13.0,62,0.00,,SKC,0.00,VWS V14.01,2013-03-03 13:24:00,
2013-03-03 07:25:00,39.9,28.0,30.22,North,5,8.0,13.0,62,0.00,,SKC,0.00,VWS V14.01,2013-03-03 13:25:00,
2013-03-03 07:26:00,39.9,27.6,30.22,NW,316,6.0,13.0,61,0.00,,SKC,0.00,VWS V14.01,2013-03-03 13:26:00,
2013-03-03 07:27:00,39.8,27.5,30.22,NW,325,5.0,13.0,61,0.00,,SKC,0.00,VWS V14.01,2013-03-03 13:27:00,
2013-03-03 07:28:00,39.8,27.5,30.22,WNW,298,9.0,13.0,61,0.00,,SKC,0.00,VWS V14.01,2013-03-03 13:28:00,
2013-03-03 07:29:00,39.9,28.0,30.22,North,355,6.0,13.0,62,0.00,,SKC,0.00,VWS V14.01,2013-03-03 13:29:00,
2013-03-03 07:30:00,40.0,28.0,30.21,NNW,329,6.0,13.0,62,0.00,,SKC,0.00,VWS V14.01,2013-03-03 13:30:00,
2013-03-03 07:31:00,40.1,28.1,30.22,NW,317,6.0,7.0,62,0.00,,SKC,0.00,VWS V14.01,2013-03-03 13:31:00,
2013-03-03 07:32:00,40.2,28.2,30.22,WNW,300,5.0,7.0,62,0.00,,SKC,0.00,VWS V14.01,2013-03-03 13:32:00,
2013-03-03 07:33:00,40.4,28.4,30.22,NNW,348,6.0,7.0,62,0.00,,SKC,0.00,VWS V14.01,2013-03-03 13:33:00,
2013-03-03 07:34:00,40.5,28.1,30.22,WNW,293,8.0,9.0,61,0.00,,SKC,0.00,VWS V14.01,2013-03-03 13:34:00,
2013-03-03 07:35:00,40.6,28.2,30.22,North,355,4.0,11.0,61,0.00,,SKC,0.00,VWS V14.01,2013-03-03 13:35:00,
2013-03-03 07:36:00,40.7,27.9,30.22,NW,313,10.0,13.0,60,0.00,,SKC,0.00,VWS V14.01,2013-03-03 13:36:00,
2013-03-03 07:37:00,40.8,28.0,30.22,WNW,285,7.0,13.0,60,0.00,,SKC,0.00,VWS V14.01,2013-03-03 13:37:00,
2013-03-03 07:38:00,40.9,27.7,30.22,NW,317,0.0,13.0,59,0.00,,SKC,0.00,VWS V14.01,2013-03-03 13:38:00,
2013-03-03 07:39:00,41.0,27.8,30.22,NNW,331,7.0,13.0,59,0.00,,SKC,0.00,VWS V14.01,2013-03-03 13:39:00,
2013-03-03 07:40:00,41.1,27.5,30.22,NW,312,11.0,13.0,58,0.00,,SKC,0.00,VWS V14.01,2013-03-03 13:40:00,
2013-03-03 07:41:00,41.2,27.6,30.22,NNW,342,5.0,13.0,58,0.00,,SKC,0.00,VWS V14.01,2013-03-03 13:41:00,
2013-03-03 07:42:00,41.2,27.6,30.22,WNW,284,7.0,13.0,58,0.00,,SKC,0.00,VWS V14.01,2013-03-03 13:42:00,
2013-03-03 07:43:00,41.3,27.6,30.22,North,355,5.0,13.0,58,0.00,,SKC,0.00,VWS V14.01,2013-03-03 13:43:00,
2013-03-03 07:44:00,41.3,27.6,30.22,NNE,16,4.0,13.0,58,0.00,,SKC,0.00,VWS V14.01,2013-03-03 13:44:00,
2013-03-03 07:45:00,41.4,27.8,30.22,NW,320,6.0,13.0,58,0.00,,SKC,0.00,VWS V14.01,2013-03-03 13:45:00,
2013-03-03 07:46:00,41.4,27.8,30.22,WNW,290,9.0,13.0,58,0.00,,SKC,0.00,VWS V14.01,2013-03-03 13:46:00,
2013-03-03 07:47:00,41.5,27.8,30.22,WNW,300,6.0,13.0,58,0.00,,SKC,0.00,VWS V14.01,2013-03-03 13:47:00,
2013-03-03 07:48:00,41.6,27.9,30.22,NW,323,7.0,13.0,58,0.00,,SKC,0.00,VWS V14.01,2013-03-03 13:48:00,
2013-03-03 07:49:00,41.7,28.0,30.22,NNE,14,8.0,13.0,58,0.00,,SKC,0.00,VWS V14.01,2013-03-03 13:49:00,
2013-03-03 07:50:00,41.6,27.5,30.22,North,10,1.0,13.0,57,0.00,,SKC,0.00,VWS V14.01,2013-03-03 13:50:00,
2013-03-03 07:51:00,41.6,27.9,30.22,NW,305,7.0,13.0,58,0.00,,SKC,0.00,VWS V14.01,2013-03-03 13:51:00,
2013-03-03 07:52:00,41.6,27.9,30.22,NNE,31,7.0,13.0,58,0.00,,SKC,0.00,VWS V14.01,2013-03-03 13:52:00,
2013-03-03 07:53:00,41.7,28.0,30.22,NNW,343,7.0,13.0,58,0.00,,SKC,0.00,VWS V14.01,2013-03-03 13:53:00,
2013-03-03 07:54:00,41.8,28.1,30.22,NE,46,9.0,13.0,58,0.00,,SKC,0.00,VWS V14.01,2013-03-03 13:54:00,
2013-03-03 07:55:00,41.5,27.4,30.22,NNW,336,5.0,15.0,57,0.00,,SKC,0.00,VWS V14.01,2013-03-03 13:55:00,
2013-03-03 07:56:00,41.3,27.2,30.22,NW,322,6.0,15.0,57,0.00,,SKC,0.00,VWS V14.01,2013-03-03 13:56:00,
2013-03-03 07:57:00,41.2,27.6,30.22,NNW,347,7.0,15.0,58,0.00,,SKC,0.00,VWS V14.01,2013-03-03 13:57:00,
2013-03-03 07:58:00,41.1,27.0,30.22,NNE,26,7.0,15.0,57,0.00,,SKC,0.00,VWS V14.01,2013-03-03 13:58:00,
2013-03-03 07:59:00,40.9,27.3,30.22,North,11,2.0,15.0,58,0.00,,SKC,0.00,VWS V14.01,2013-03-03 13:59:00,
2013-03-03 08:00:00,40.9,27.3,30.22,NW,309,8.0,15.0,58,0.00,,SKC,0.00,VWS V14.01,2013-03-03 14:00:00,
2013-03-03 08:01:00,40.9,27.7,30.22,North,5,7.0,8.0,59,0.00,,SKC,0.00,VWS V14.01,2013-03-03 14:01:00,
2013-03-03 08:02:00,40.9,27.3,30.22,NNW,340,9.0,12.0,58,0.00,,SKC,0.00,VWS V14.01,2013-03-03 14:02:00,
2013-03-03 08:03:00,41.0,27.8,30.22,NW,318,4.0,12.0,59,0.00,,SKC,0.00,VWS V14.01,2013-03-03 14:03:00,
2013-03-03 08:04:00,41.1,27.9,30.22,NNE,17,8.0,12.0,59,0.00,,SKC,0.00,VWS V14.01,2013-03-03 14:04:00,
2013-03-03 08:05:00,41.0,27.8,30.22,North,5,5.0,12.0,59,0.00,,SKC,0.00,VWS V14.01,2013-03-03 14:05:00,
2013-03-03 08:06:00,41.0,27.4,30.22,NE,41,1.0,12.0,58,0.00,,SKC,0.00,VWS V14.01,2013-03-03 14:06:00,
2013-03-03 08:07:00,41.0,27.4,30.22,North,360,9.0,12.0,58,0.00,,SKC,0.00,VWS V14.01,2013-03-03 14:07:00,
2013-03-03 08:08:00,41.0,27.8,30.22,NNW,331,13.0,14.0,59,0.00,,SKC,0.00,VWS V14.01,2013-03-03 14:08:00,
2013-03-03 08:09:00,41.0,27.4,30.22,WSW,251,6.0,14.0,58,0.00,,SKC,0.00,VWS V14.01,2013-03-03 14:09:00,
2013-03-03 08:10:00,41.1,27.5,30.22,NNW,329,7.0,14.0,58,0.00,,SKC,0.00,VWS V14.01,2013-03-03 14:10:00,
2013-03-03 08:11:00,41.2,27.6,30.22,WNW,302,12.0,14.0,58,0.00,,SKC,0.00,VWS V14.01,2013-03-03 14:11:00,
2013-03-03 08:12:00,41.3,27.6,30.22,NW,321,8.0,15.0,58,0.00,,SKC,0.00,VWS V14.01,2013-03-03 14:12:00,
2013-03-03 08:13:00,41.4,27.3,30.22,NNW,333,6.0,15.0,57,0.00,,SKC,0.00,VWS V14.01,2013-03-03 14:13:00,
2013-03-03 08:14:00,41.5,27.0,30.22,NNW,346,10.0,15.0,56,0.00,,SKC,0.00,VWS V14.01,2013-03-03 14:14:00,
2013-03-03 08:15:00,41.4,26.5,30.22,North,350,7.0,15.0,55,0.00,,SKC,0.00,VWS V14.01,2013-03-03 14:15:00,
2013-03-03 08:16:00,41.3,26.4,30.22,WNW,284,8.0,15.0,55,0.00,,SKC,0.00,VWS V14.01,2013-03-03 14:16:00,
2013-03-03 08:17:00,41.3,26.8,30.22,NNW,333,7.0,15.0,56,0.00,,SKC,0.00,VWS V14.01,2013-03-03 14:17:00,
2013-03-03 08:18:00,41.3,26.8,30.22,NNE,24,7.0,15.0,56,0.00,,SKC,0.00,VWS V14.01,2013-03-03 14:18:00,
2013-03-03 08:19:00,41.2,26.3,30.22,North,351,6.0,15.0,55,0.00,,SKC,0.00,VWS V14.01,2013-03-03 14:19:00,
2013-03-03 08:20:00,41.1,26.6,30.22,North,350,8.0,15.0,56,0.00,,SKC,0.00,VWS V14.01,2013-03-03 14:20:00,
2013-03-03 08:21:00,41.1,26.6,30.22,NW,325,10.0,15.0,56,0.00,,SKC,0.00,VWS V14.01,2013-03-03 14:21:00,
2013-03-03 08:22:00,41.1,26.6,30.22,NNE,25,7.0,15.0,56,0.00,,SKC,0.00,VWS V14.01,2013-03-03 14:22:00,
2013-03-03 08:23:00,41.1,26.2,30.22,North,5,6.0,15.0,55,0.00,,SKC,0.00,VWS V14.01,2013-03-03 14:23:00,
2013-03-03 08:24:00,41.1,26.6,30.22,NE,43,9.0,15.0,56,0.00,,SKC,0.00,VWS V14.01,2013-03-03 14:24:00,
2013-03-03 08:25:00,40.9,26.4,30.22,NNE,14,10.0,16.0,56,0.00,,SKC,0.00,VWS V14.01,2013-03-03 14:25:00,
2013-03-03 08:26:00,40.7,25.8,30.22,NW,324,5.0,16.0,55,0.00,,SKC,0.00,VWS V14.01,2013-03-03 14:26:00,
2013-03-03 08:27:00,40.6,26.1,30.22,NNW,347,8.0,16.0,56,0.00,,SKC,0.00,VWS V14.01,2013-03-03 14:27:00,
2013-03-03 08:28:00,40.6,26.6,30.22,WNW,292,8.0,16.0,57,0.00,,SKC,0.00,VWS V14.01,2013-03-03 14:28:00,
2013-03-03 08:29:00,40.7,26.7,30.22,NNE,13,9.0,16.0,57,0.00,,SKC,0.00,VWS V14.01,2013-03-03 14:29:00,
2013-03-03 08:30:00,40.8,26.3,30.22,NNE,16,8.0,16.0,56,0.00,,SKC,0.00,VWS V14.01,2013-03-03 14:30:00,
2013-03-03 08:31:00,40.6,25.7,30.22,North,355,8.0,11.0,55,0.00,,SKC,0.00,VWS V14.01,2013-03-03 14:31:00,
2013-03-03 08:32:00,40.5,26.0,30.22,NE,39,6.0,11.0,56,0.00,,SKC,0.00,VWS V14.01,2013-03-03 14:32:00,
2013-03-03 08:33:00,40.4,26.0,30.22,NNE,17,5.0,11.0,56,0.00,,SKC,0.00,VWS V14.01,2013-03-03 14:33:00,
2013-03-03 08:34:00,40.6,26.6,30.22,NW,318,5.0,11.0,57,0.00,,SKC,0.00,VWS V14.01,2013-03-03 14:34:00,
2013-03-03 08:35:00,40.7,27.1,30.22,NW,306,9.0,13.0,58,0.00,,SKC,0.00,VWS V14.01,2013-03-03 14:35:00,
2013-03-03 08:36:00,40.9,27.3,30.22,NNW,330,6.0,13.0,58,0.00,,SKC,0.00,VWS V14.01,2013-03-03 14:36:00,
2013-03-03 08:37:00,41.0,27.4,30.22,NW,308,13.0,13.0,58,0.00,,SKC,0.00,VWS V14.01,2013-03-03 14:37:00,
2013-03-03 08:38:00,41.3,27.6,30.22,NNW,333,4.0,13.0,58,0.00,,SKC,0.00,VWS V14.01,2013-03-03 14:38:00,
2013-03-03 08:39:00,41.4,28.2,30.22,WNW,297,10.0,13.0,59,0.00,,SKC,0.00,VWS V14.01,2013-03-03 14:39:00,
2013-03-03 08:40:00,41.7,28.4,30.22,NW,320,11.0,13.0,59,0.00,,SKC,0.00,VWS V14.01,2013-03-03 14:40:00,
2013-03-03 08:41:00,42.0,28.3,30.22,NW,312,10.0,13.0,58,0.00,,SKC,0.00,VWS V14.01,2013-03-03 14:41:00,
2013-03-03 08:42:00,42.2,28.1,30.22,WNW,302,8.0,13.0,57,0.00,,SKC,0.00,VWS V14.01,2013-03-03 14:42:00,
2013-03-03 08:43:00,42.3,27.7,30.22,NW,313,12.0,13.0,56,0.00,,SKC,0.00,VWS V14.01,2013-03-03 14:43:00,
2013-03-03 08:44:00,42.5,27.9,30.22,NW,316,9.0,13.0,56,0.00,,SKC,0.00,VWS V14.01,2013-03-03 14:44:00,
2013-03-03 08:45:00,42.5,27.5,30.22,NNW,330,6.0,13.0,55,0.00,,SKC,0.00,VWS V14.01,2013-03-03 14:45:00,
2013-03-03 08:46:00,42.5,27.5,30.22,NW,313,6.0,13.0,55,0.00,,SKC,0.00,VWS V14.01,2013-03-03 14:46:00,
2013-03-03 08:47:00,42.6,27.1,30.22,NW,306,9.0,14.0,54,0.00,,SKC,0.00,VWS V14.01,2013-03-03 14:47:00,
2013-03-03 08:48:00,42.7,27.2,30.22,NW,323,3.0,15.0,54,0.00,,SKC,0.00,VWS V14.01,2013-03-03 14:48:00,
2013-03-03 08:49:00,42.8,27.3,30.22,WNW,302,13.0,15.0,54,0.00,,SKC,0.00,VWS V14.01,2013-03-03 14:49:00,
2013-03-03 08:50:00,42.9,27.0,30.22,West,275,9.0,15.0,53,0.00,,SKC,0.00,VWS V14.01,2013-03-03 14:50:00,
2013-03-03 08:51:00,43.0,26.6,30.21,WNW,291,14.0,16.0,52,0.00,,SKC,0.00,VWS V14.01,2013-03-03 14:51:00,
2013-03-03 08:52:00,43.0,26.1,30.22,WNW,303,9.0,16.0,51,0.00,,SKC,0.00,VWS V14.01,2013-03-03 14:52:00,
2013-03-03 08:53:00,43.0,26.1,30.21,NW,308,8.0,18.0,51,0.00,,SKC,0.00,VWS V14.01,2013-03-03 14:53:00,
2013-03-03 08:54:00,43.1,26.2,30.21,NW,309,5.0,18.0,51,0.00,,SKC,0.00,VWS V14.01,2013-03-03 14:54:00,
2013-03-03 08:55:00,43.2,26.3,30.21,WNW,291,12.0,18.0,51,0.00,,SKC,0.00,VWS V14.01,2013-03-03 14:55:00,
2013-03-03 08:56:00,43.2,26.3,30.21,NW,315,6.0,19.0,51,0.00,,SKC,0.00,VWS V14.01,2013-03-03 14:56:00,
2013-03-03 08:57:00,43.3,26.4,30.21,NNW,342,10.0,19.0,51,0.00,,SKC,0.00,VWS V14.01,2013-03-03 14:57:00,
2013-03-03 08:58:00,43.2,25.8,30.21,WNW,301,10.0,19.0,50,0.00,,SKC,0.00,VWS V14.01,2013-03-03 14:58:00,
2013-03-03 08:59:00,43.2,25.8,30.21,NNW,329,9.0,19.0,50,0.00,,SKC,0.00,VWS V14.01,2013-03-03 14:59:00,
2013-03-03 09:00:00,43.1,26.2,30.21,WNW,295,2.0,19.0,51,0.00,,SKC,0.00,VWS V14.01,2013-03-03 15:00:00,
2013-03-03 09:01:00,43.1,26.2,30.21,NNW,334,7.0,10.0,51,0.00,,SKC,0.00,VWS V14.01,2013-03-03 15:01:00,
2013-03-03 09:02:00,43.0,26.6,30.21,North,355,9.0,11.0,52,0.00,,SKC,0.00,VWS V14.01,2013-03-03 15:02:00,
2013-03-03 09:03:00,42.9,26.5,30.21,NW,316,5.0,11.0,52,0.00,,SKC,0.00,VWS V14.01,2013-03-03 15:03:00,
2013-03-03 09:04:00,42.9,26.5,30.21,North,5,5.0,11.0,52,0.00,,SKC,0.00,VWS V14.01,2013-03-03 15:04:00,
2013-03-03 09:05:00,42.9,27.0,30.21,NW,306,9.0,12.0,53,0.00,,SKC,0.00,VWS V14.01,2013-03-03 15:05:00,
2013-03-03 09:06:00,43.0,27.5,30.21,NW,306,8.0,12.0,54,0.00,,SKC,0.00,VWS V14.01,2013-03-03 15:06:00,
2013-03-03 09:07:00,43.1,27.6,30.21,NNW,331,12.0,13.0,54,0.00,,SKC,0.00,VWS V14.01,2013-03-03 15:07:00,
2013-03-03 09:08:00,43.1,27.1,30.21,WNW,299,8.0,13.0,53,0.00,,SKC,0.00,VWS V14.01,2013-03-03 15:08:00,
2013-03-03 09:09:00,43.1,27.6,30.21,NW,306,6.0,13.0,54,0.00,,SKC,0.00,VWS V14.01,2013-03-03 15:09:00,
2013-03-03 09:10:00,43.1,27.1,30.21,WNW,285,8.0,13.0,53,0.00,,SKC,0.00,VWS V14.01,2013-03-03 15:10:00,
2013-03-03 09:11:00,43.2,27.7,30.21,NW,304,8.0,15.0,54,0.00,,SKC,0.00,VWS V14.01,2013-03-03 15:11:00,
2013-03-03 09:12:00,43.3,27.8,30.21,NW,323,6.0,15.0,54,0.00,,SKC,0.00,VWS V14.01,2013-03-03 15:12:00,
2013-03-03 09:13:00,43.4,27.4,30.21,WNW,302,18.0,18.0,53,0.00,,SKC,0.00,VWS V14.01,2013-03-03 15:13:00,
2013-03-03 09:14:00,43.5,27.5,30.21,West,277,15.0,18.0,53,0.00,,SKC,0.00,VWS V14.01,2013-03-03 15:14:00,
2013-03-03 09:15:00,43.6,27.6,30.21,WNW,293,11.0,18.0,53,0.00,,SKC,0.00,VWS V14.01,2013-03-03 15:15:00,
2013-03-03 09:16:00,43.7,27.7,30.21,North,5,11.0,18.0,53,0.00,,SKC,0.00,VWS V14.01,2013-03-03 15:16:00,
2013-03-03 09:17:00,43.4,27.0,30.21,NW,326,5.0,18.0,52,0.00,,SKC,0.00,VWS V14.01,2013-03-03 15:17:00,
2013-03-03 09:18:00,43.3,27.3,30.21,North,355,15.0,18.0,53,0.00,,SKC,0.00,VWS V14.01,2013-03-03 15:18:00,
2013-03-03 09:19:00,43.0,27.0,30.21,NW,323,5.0,18.0,53,0.00,,SKC,0.00,VWS V14.01,2013-03-03 15:19:00,
2013-03-03 09:20:00,42.9,27.4,30.21,North,360,6.0,18.0,54,0.00,,SKC,0.00,VWS V14.01,2013-03-03 15:20:00,
2013-03-03 09:21:00,42.7,27.2,30.21,NW,309,12.0,18.0,54,0.00,,SKC,0.00,VWS V14.01,2013-03-03 15:21:00,
2013-03-03 09:22:00,42.7,27.2,30.21,WNW,302,14.0,22.0,54,0.00,,SKC,0.00,VWS V14.01,2013-03-03 15:22:00,
2013-03-03 09:23:00,42.8,27.8,30.21,NW,317,9.0,22.0,55,0.00,,SKC,0.00,VWS V14.01,2013-03-03 15:23:00,
2013-03-03 09:24:00,42.9,27.9,30.21,West,273,9.0,22.0,55,0.00,,SKC,0.00,VWS V14.01,2013-03-03 15:24:00,
2013-03-03 09:25:00,43.1,27.6,30.21,WNW,295,7.0,22.0,54,0.00,,SKC,0.00,VWS V14.01,2013-03-03 15:25:00,
2013-03-03 09:26:00,43.1,27.6,30.21,WNW,287,10.0,22.0,54,0.00,,SKC,0.00,VWS V14.01,2013-03-03 15:26:00,
2013-03-03 09:27:00,43.2,27.2,30.21,West,273,8.0,22.0,53,0.00,,SKC,0.00,VWS V14.01,2013-03-03 15:27:00,
2013-03-03 09:28:00,43.3,27.8,30.21,North,355,5.0,22.0,54,0.00,,SKC,0.00,VWS V14.01,2013-03-03 15:28:00,
2013-03-03 09:29:00,43.4,28.3,30.21,NNW,335,9.0,22.0,55,0.00,,SKC,0.00,VWS V14.01,2013-03-03 15:29:00,
2013-03-03 09:30:00,43.5,28.0,30.21,WNW,293,5.0,22.0,54,0.00,,SKC,0.00,VWS V14.01,2013-03-03 15:30:00,
2013-03-03 09:31:00,43.7,28.6,30.21,WNW,296,13.0,14.0,55,0.00,,SKC,0.00,VWS V14.01,2013-03-03 15:31:00,
2013-03-03 09:32:00,43.8,28.2,30.21,West,263,11.0,14.0,54,0.00,,SKC,0.00,VWS V14.01,2013-03-03 15:32:00,
2013-03-03 09:33:00,43.8,28.2,30.21,WNW,297,14.0,14.0,54,0.00,,SKC,0.00,VWS V14.01,2013-03-03 15:33:00,
2013-03-03 09:34:00,44.0,28.4,30.21,WNW,300,18.0,19.0,54,0.00,,SKC,0.00,VWS V14.01,2013-03-03 15:34:00,
2013-03-03 09:35:00,44.1,28.1,30.21,West,280,12.0,22.0,53,0.00,,SKC,0.00,VWS V14.01,2013-03-03 15:35:00,
2013-03-03 09:36:00,44.1,27.6,30.21,WNW,286,15.0,22.0,52,0.00,,SKC,0.00,VWS V14.01,2013-03-03 15:36:00,
2013-03-03 09:37:00,44.2,28.2,30.21,WNW,283,9.0,22.0,53,0.00,,SKC,0.00,VWS V14.01,2013-03-03 15:37:00,
2013-03-03 09:38:00,44.3,28.3,30.21,NNW,346,5.0,22.0,53,0.00,,SKC,0.00,VWS V14.01,2013-03-03 15:38:00,
2013-03-03 09:39:00,44.4,28.4,30.21,NNW,338,6.0,22.0,53,0.00,,SKC,0.00,VWS V14.01,2013-03-03 15:39:00,
2013-03-03 09:40:00,44.4,28.4,30.21,NNE,19,4.0,22.0,53,0.00,,SKC,0.00,VWS V14.01,2013-03-03 15:40:00,
2013-03-03 09:41:00,44.4,28.4,30.21,NW,323,6.0,22.0,53,0.00,,SKC,0.00,VWS V14.01,2013-03-03 15:41:00,
2013-03-03 09:42:00,44.4,28.4,30.21,North,5,8.0,22.0,53,0.00,,SKC,0.00,VWS V14.01,2013-03-03 15:42:00,
2013-03-03 09:43:00,44.4,27.9,30.21,NW,309,10.0,22.0,52,0.00,,SKC,0.00,VWS V14.01,2013-03-03 15:43:00,
2013-03-03 09:44:00,44.2,27.7,30.20,NNW,336,4.0,22.0,52,0.00,,SKC,0.00,VWS V14.01,2013-03-03 15:44:00,
2013-03-03 09:45:00,44.2,27.7,30.20,NNW,327,7.0,22.0,52,0.00,,SKC,0.00,VWS V14.01,2013-03-03 15:45:00,
2013-03-03 09:46:00,44.3,28.3,30.20,WNW,297,6.0,22.0,53,0.00,,SKC,0.00,VWS V14.01,2013-03-03 15:46:00,
2013-03-03 09:47:00,44.3,27.8,30.21,WNW,294,9.0,22.0,52,0.00,,SKC,0.00,VWS V14.01,2013-03-03 15:47:00,
2013-03-03 09:48:00,44.4,27.9,30.20,NW,317,10.0,22.0,52,0.00,,SKC,0.00,VWS V14.01,2013-03-03 15:48:00,
2013-03-03 09:49:00,44.4,27.9,30.20,West,277,7.0,22.0,52,0.00,,SKC,0.00,VWS V14.01,2013-03-03 15:49:00,
2013-03-03 09:50:00,44.5,28.0,30.20,WNW,288,10.0,22.0,52,0.00,,SKC,0.00,VWS V14.01,2013-03-03 15:50:00,
2013-03-03 09:51:00,44.5,28.0,30.20,NNW,337,5.0,22.0,52,0.00,,SKC,0.00,VWS V14.01,2013-03-03 15:51:00,
2013-03-03 09:52:00,44.6,29.0,30.20,West,280,6.0,22.0,54,0.00,,SKC,0.00,VWS V14.01,2013-03-03 15:52:00,
2013-03-03 09:53:00,44.7,28.2,30.20,WNW,294,7.0,22.0,52,0.00,,SKC,0.00,VWS V14.01,2013-03-03 15:53:00,
2013-03-03 09:54:00,44.8,28.3,30.20,NW,304,8.0,22.0,52,0.00,,SKC,0.00,VWS V14.01,2013-03-03 15:54:00,
2013-03-03 09:55:00,44.9,28.4,30.20,WNW,293,11.0,22.0,52,0.00,,SKC,0.00,VWS V14.01,2013-03-03 15:55:00,
2013-03-03 09:56:00,45.1,28.5,30.20,WNW,291,6.0,22.0,52,0.00,,SKC,0.00,VWS V14.01,2013-03-03 15:56:00,
2013-03-03 09:57:00,45.2,28.6,30.20,WNW,285,10.0,22.0,52,0.00,,SKC,0.00,VWS V14.01,2013-03-03 15:57:00,
2013-03-03 09:58:00,45.4,28.4,30.20,WNW,289,12.0,22.0,51,0.00,,SKC,0.00,VWS V14.01,2013-03-03 15:58:00,
2013-03-03 09:59:00,45.5,28.4,30.20,West,268,6.0,22.0,51,0.00,,SKC,0.00,VWS V14.01,2013-03-03 15:59:00,
2013-03-03 10:00:00,45.5,28.0,30.20,NW,319,7.0,22.0,50,0.00,,SKC,0.00,VWS V14.01,2013-03-03 16:00:00,
2013-03-03 10:01:00,45.5,28.0,30.20,WNW,287,3.0,5.0,50,0.00,,SKC,0.00,VWS V14.01,2013-03-03 16:01:00,
2013-03-03 10:02:00,45.5,28.4,30.19,NW,307,4.0,16.0,51,0.00,,SKC,0.00,VWS V14.01,2013-03-03 16:02:00,
2013-03-03 10:03:00,45.5,28.4,30.19,NNW,340,7.0,16.0,51,0.00,,SKC,0.00,VWS V14.01,2013-03-03 16:03:00,
2013-03-03 10:04:00,45.2,27.7,30.19,WNW,284,6.0,16.0,50,0.00,,SKC,0.00,VWS V14.01,2013-03-03 16:04:00,
2013-03-03 10:05:00,45.2,28.2,30.19,WSW,248,9.0,16.0,51,0.00,,SKC,0.00,VWS V14.01,2013-03-03 16:05:00,
2013-03-03 10:06:00,45.1,27.6,30.19,West,277,2.0,16.0,50,0.00,,SKC,0.00,VWS V14.01,2013-03-03 16:06:00,
2013-03-03 10:07:00,45.1,27.6,30.19,West,266,6.0,16.0,50,0.00,,SKC,0.00,VWS V14.01,2013-03-03 16:07:00,
2013-03-03 10:08:00,45.0,27.5,30.19,WNW,294,7.0,16.0,50,0.00,,SKC,0.00,VWS V14.01,2013-03-03 16:08:00,
2013-03-03 10:09:00,45.0,27.5,30.19,West,259,6.0,16.0,50,0.00,,SKC,0.00,VWS V14.01,2013-03-03 16:09:00,
2013-03-03 10:10:00,45.0,27.5,30.19,WNW,286,7.0,16.0,50,0.00,,SKC,0.00,VWS V14.01,2013-03-03 16:10:00,
2013-03-03 10:11:00,45.0,27.5,30.19,NW,306,5.0,16.0,50,0.00,,SKC,0.00,VWS V14.01,2013-03-03 16:11:00,
2013-03-03 10:12:00,45.1,28.1,30.19,NW,309,5.0,16.0,51,0.00,,SKC,0.00,VWS V14.01,2013-03-03 16:12:00,
2013-03-03 10:13:00,45.2,28.6,30.19,NW,320,14.0,16.0,52,0.00,,SKC,0.00,VWS V14.01,2013-03-03 16:13:00,
2013-03-03 10:14:00,45.4,28.8,30.19,NW,312,6.0,16.0,52,0.00,,SKC,0.00,VWS V14.01,2013-03-03 16:14:00,
2013-03-03 10:15:00,45.6,28.5,30.19,NW,318,8.0,16.0,51,0.00,,SKC,0.00,VWS V14.01,2013-03-03 16:15:00,
2013-03-03 10:16:00,45.8,27.7,30.19,WNW,302,7.0,16.0,49,0.00,,SKC,0.00,VWS V14.01,2013-03-03 16:16:00,
2013-03-03 10:17:00,46.0,27.9,30.19,WNW,285,9.0,16.0,49,0.00,,SKC,0.00,VWS V14.01,2013-03-03 16:17:00,
2013-03-03 10:18:00,46.1,28.0,30.19,NNW,340,7.0,16.0,49,0.00,,SKC,0.00,VWS V14.01,2013-03-03 16:18:00,
2013-03-03 10:19:00,46.1,28.0,30.19,WNW,284,10.0,16.0,49,0.00,,SKC,0.00,VWS V14.01,2013-03-03 16:19:00,
2013-03-03 10:20:00,46.1,27.5,30.19,NW,307,6.0,16.0,48,0.00,,SKC,0.00,VWS V14.01,2013-03-03 16:20:00,
2013-03-03 10:21:00,46.1,28.0,30.19,NW,309,12.0,16.0,49,0.00,,SKC,0.00,VWS V14.01,2013-03-03 16:21:00,
2013-03-03 10:22:00,46.1,28.0,30.19,NW,319,5.0,16.0,49,0.00,,SKC,0.00,VWS V14.01,2013-03-03 16:22:00,
2013-03-03 10:23:00,46.1,28.0,30.19,NW,310,7.0,16.0,49,0.00,,SKC,0.00,VWS V14.01,2013-03-03 16:23:00,
2013-03-03 10:24:00,46.2,28.6,30.19,NW,314,4.0,16.0,50,0.00,,SKC,0.00,VWS V14.01,2013-03-03 16:24:00,
2013-03-03 10:25:00,46.3,28.7,30.19,NW,315,6.0,16.0,50,0.00,,SKC,0.00,VWS V14.01,2013-03-03 16:25:00,
2013-03-03 10:26:00,46.4,28.8,30.19,WNW,291,9.0,16.0,50,0.00,,SKC,0.00,VWS V14.01,2013-03-03 16:26:00,
2013-03-03 10:27:00,46.5,28.4,30.19,West,277,8.0,16.0,49,0.00,,SKC,0.00,VWS V14.01,2013-03-03 16:27:00,
2013-03-03 10:28:00,46.6,28.5,30.19,NW,319,5.0,16.0,49,0.00,,SKC,0.00,VWS V14.01,2013-03-03 16:28:00,
2013-03-03 10:29:00,46.8,28.7,30.19,North,350,8.0,16.0,49,0.00,,SKC,0.00,VWS V14.01,2013-03-03 16:29:00,
2013-03-03 10:30:00,46.7,28.6,30.19,NNW,327,9.0,16.0,49,0.00,,SKC,0.00,VWS V14.01,2013-03-03 16:30:00,
2013-03-03 10:31:00,46.6,27.5,30.19,WNW,291,5.0,13.0,47,0.00,,SKC,0.00,VWS V14.01,2013-03-03 16:31:00,
2013-03-03 10:32:00,46.6,28.0,30.19,WNW,297,8.0,13.0,48,0.00,,SKC,0.00,VWS V14.01,2013-03-03 16:32:00,
2013-03-03 10:33:00,46.6,28.0,30.19,NW,324,8.0,13.0,48,0.00,,SKC,0.00,VWS V14.01,2013-03-03 16:33:00,
2013-03-03 10:34:00,46.7,28.6,30.19,NW,319,6.0,13.0,49,0.00,,SKC,0.00,VWS V14.01,2013-03-03 16:34:00,
2013-03-03 10:35:00,46.9,29.2,30.19,WNW,302,9.0,18.0,50,0.00,,SKC,0.00,VWS V14.01,2013-03-03 16:35:00,
2013-03-03 10:36:00,47.0,28.3,30.19,West,266,11.0,18.0,48,0.00,,SKC,0.00,VWS V14.01,2013-03-03 16:36:00,
2013-03-03 10:37:00,47.0,27.8,30.19,West,277,12.0,18.0,47,0.00,,SKC,0.00,VWS V14.01,2013-03-03 16:37:00,
2013-03-03 10:38:00,47.0,27.8,30.19,WNW,283,8.0,18.0,47,0.00,,SKC,0.00,VWS V14.01,2013-03-03 16:38:00,
2013-03-03 10:39:00,47.1,27.9,30.19,WNW,283,7.0,18.0,47,0.00,,SKC,0.00,VWS V14.01,2013-03-03 16:39:00,
2013-03-03 10:40:00,47.0,27.8,30.19,WNW,303,13.0,20.0,47,0.00,,SKC,0.00,VWS V14.01,2013-03-03 16:40:00,
2013-03-03 10:41:00,47.0,27.8,30.19,WNW,293,8.0,20.0,47,0.00,,SKC,0.00,VWS V14.01,2013-03-03 16:41:00,
2013-03-03 10:42:00,46.9,27.2,30.19,WNW,292,6.0,20.0,46,0.00,,SKC,0.00,VWS V14.01,2013-03-03 16:42:00,
2013-03-03 10:43:00,46.9,27.7,30.19,SW,234,1.0,20.0,47,0.00,,SKC,0.00,VWS V14.01,2013-03-03 16:43:00,
2013-03-03 10:44:00,46.9,28.2,30.19,North,11,5.0,20.0,48,0.00,,SKC,0.00,VWS V14.01,2013-03-03 16:44:00,
2013-03-03 10:45:00,46.7,28.1,30.19,NNW,339,6.0,20.0,48,0.00,,SKC,0.00,VWS V14.01,2013-03-03 16:45:00,
2013-03-03 10:46:00,46.7,27.6,30.18,WNW,287,14.0,20.0,47,0.00,,SKC,0.00,VWS V14.01,2013-03-03 16:46:00,
2013-03-03 10:47:00,46.6,27.5,30.19,NW,323,6.0,20.0,47,0.00,,SKC,0.00,VWS V14.01,2013-03-03 16:47:00,
2013-03-03 10:48:00,46.6,28.0,30.19,WNW,302,6.0,20.0,48,0.00,,SKC,0.00,VWS V14.01,2013-03-03 16:48:00,
2013-03-03 10:49:00,46.6,28.5,30.19,NW,315,8.0,20.0,49,0.00,,SKC,0.00,VWS V14.01,2013-03-03 16:49:00,
2013-03-03 10:50:00,46.7,28.1,30.19,WNW,287,6.0,20.0,48,0.00,,SKC,0.00,VWS V14.01,2013-03-03 16:50:00,
2013-03-03 10:51:00,46.7,27.6,30.19,WNW,286,9.0,20.0,47,0.00,,SKC,0.00,VWS V14.01,2013-03-03 16:51:00,
2013-03-03 10:52:00,46.7,27.6,30.19,WNW,284,7.0,20.0,47,0.00,,SKC,0.00,VWS V14.01,2013-03-03 16:52:00,
2013-03-03 10:53:00,46.7,28.1,30.19,NW,311,8.0,20.0,48,0.00,,SKC,0.00,VWS V14.01,2013-03-03 16:53:00,
2013-03-03 10:54:00,46.8,28.7,30.18,WNW,302,10.0,20.0,49,0.00,,SKC,0.00,VWS V14.01,2013-03-03 16:54:00,
2013-03-03 10:55:00,46.9,28.8,30.18,NNW,331,1.0,20.0,49,0.00,,SKC,0.00,VWS V14.01,2013-03-03 16:55:00,
2013-03-03 10:56:00,47.0,28.9,30.19,NW,323,8.0,20.0,49,0.00,,SKC,0.00,VWS V14.01,2013-03-03 16:56:00,
2013-03-03 10:57:00,47.1,28.9,30.19,WSW,257,5.0,20.0,49,0.00,,SKC,0.00,VWS V14.01,2013-03-03 16:57:00,
2013-03-03 10:58:00,47.2,28.0,30.18,NNW,342,10.0,20.0,47,0.00,,SKC,0.00,VWS V14.01,2013-03-03 16:58:00,
2013-03-03 10:59:00,47.2,28.0,30.18,West,277,15.0,20.0,47,0.00,,SKC,0.00,VWS V14.01,2013-03-03 16:59:00,
2013-03-03 11:00:00,47.1,27.9,30.18,West,281,15.0,20.0,47,0.00,,SKC,0.00,VWS V14.01,2013-03-03 17:00:00,
2013-03-03 11:01:00,47.0,27.3,30.18,WNW,300,9.0,15.0,46,0.00,,SKC,0.00,VWS V14.01,2013-03-03 17:01:00,
2013-03-03 11:02:00,47.0,27.8,30.18,WNW,302,1.0,15.0,47,0.00,,SKC,0.00,VWS V14.01,2013-03-03 17:02:00,
2013-03-03 11:03:00,47.0,27.8,30.18,NW,314,5.0,15.0,47,0.00,,SKC,0.00,VWS V14.01,2013-03-03 17:03:00,
2013-03-03 11:04:00,47.1,28.4,30.18,WSW,246,3.0,15.0,48,0.00,,SKC,0.00,VWS V14.01,2013-03-03 17:04:00,
2013-03-03 11:05:00,47.2,28.0,30.18,West,270,8.0,15.0,47,0.00,,SKC,0.00,VWS V14.01,2013-03-03 17:05:00,
2013-03-03 11:06:00,47.3,28.1,30.18,WNW,293,18.0,18.0,47,0.00,,SKC,0.00,VWS V14.01,2013-03-03 17:06:00,
2013-03-03 11:07:00,47.4,28.2,30.18,WNW,287,3.0,18.0,47,0.00,,SKC,0.00,VWS V14.01,2013-03-03 17:07:00,
2013-03-03 11:08:00,47.4,27.7,30.18,West,265,11.0,18.0,46,0.00,,SKC,0.00,VWS V14.01,2013-03-03 17:08:00,
2013-03-03 11:09:00,47.4,27.7,30.18,West,277,10.0,18.0,46,0.00,,SKC,0.00,VWS V14.01,2013-03-03 17:09:00,
2013-03-03 11:10:00,47.5,27.2,30.18,WNW,300,6.0,18.0,45,0.00,,SKC,0.00,VWS V14.01,2013-03-03 17:10:00,
2013-03-03 11:11:00,47.5,27.2,30.18,NW,316,13.0,18.0,45,0.00,,SKC,0.00,VWS V14.01,2013-03-03 17:11:00,
2013-03-03 11:12:00,47.6,27.3,30.18,WNW,293,8.0,18.0,45,0.00,,SKC,0.00,VWS V14.01,2013-03-03 17:12:00,
2013-03-03 11:13:00,47.7,27.4,30.18,West,265,5.0,18.0,45,0.00,,SKC,0.00,VWS V14.01,2013-03-03 17:13:00,
2013-03-03 11:14:00,47.7,26.9,30.18,WNW,292,8.0,18.0,44,0.00,,SKC,0.00,VWS V14.01,2013-03-03 17:14:00,
2013-03-03 11:15:00,47.8,27.0,30.18,NW,325,10.0,18.0,44,0.00,,SKC,0.00,VWS V14.01,2013-03-03 17:15:00,
2013-03-03 11:16:00,47.9,27.0,30.18,NW,309,7.0,18.0,44,0.00,,SKC,0.00,VWS V14.01,2013-03-03 17:16:00,
2013-03-03 11:17:00,47.9,27.0,30.18,West,281,10.0,18.0,44,0.00,,SKC,0.00,VWS V14.01,2013-03-03 17:17:00,
2013-03-03 11:18:00,47.9,26.5,30.17,WNW,300,8.0,18.0,43,0.00,,SKC,0.00,VWS V14.01,2013-03-03 17:18:00,
2013-03-03 11:19:00,47.9,27.0,30.18,NW,319,8.0,18.0,44,0.00,,SKC,0.00,VWS V14.01,2013-03-03 17:19:00,
2013-03-03 11:20:00,47.9,27.0,30.18,NNW,344,12.0,18.0,44,0.00,,SKC,0.00,VWS V14.01,2013-03-03 17:20:00,
2013-03-03 11:21:00,48.0,26.6,30.17,WNW,288,13.0,18.0,43,0.00,,SKC,0.00,VWS V14.01,2013-03-03 17:21:00,
2013-03-03 11:22:00,48.1,26.7,30.18,WNW,295,10.0,18.0,43,0.00,,SKC,0.00,VWS V14.01,2013-03-03 17:22:00,
2013-03-03 11:23:00,48.1,26.7,30.18,WNW,298,12.0,18.0,43,0.00,,SKC,0.00,VWS V14.01,2013-03-03 17:23:00,
2013-03-03 11:24:00,48.2,26.2,30.17,North,355,10.0,18.0,42,0.00,,SKC,0.00,VWS V14.01,2013-03-03 17:24:00,
2013-03-03 11:25:00,47.9,25.4,30.17,NNE,15,12.0,18.0,41,0.00,,SKC,0.00,VWS V14.01,2013-03-03 17:25:00,
2013-03-03 11:26:00,47.5,26.1,30.18,NW,311,7.0,18.0,43,0.00,,SKC,0.00,VWS V14.01,2013-03-03 17:26:00,
2013-03-03 11:27:00,47.5,27.2,30.18,NW,310,11.0,18.0,45,0.00,,SKC,0.00,VWS V14.01,2013-03-03 17:27:00,
2013-03-03 11:28:00,47.5,26.7,30.18,NNW,327,10.0,18.0,44,0.00,,SKC,0.00,VWS V14.01,2013-03-03 17:28:00,
2013-03-03 11:29:00,47.6,26.2,30.17,SW,221,10.0,18.0,43,0.00,,SKC,0.00,VWS V14.01,2013-03-03 17:29:00,
2013-03-03 11:30:00,47.8,26.4,30.17,WNW,286,5.0,18.0,43,0.00,,SKC,0.00,VWS V14.01,2013-03-03 17:30:00,
2013-03-03 11:31:00,47.9,26.5,30.17,WNW,301,9.0,10.0,43,0.00,,SKC,0.00,VWS V14.01,2013-03-03 17:31:00,
2013-03-03 11:32:00,48.0,26.0,30.17,NW,323,5.0,13.0,42,0.00,,SKC,0.00,VWS V14.01,2013-03-03 17:32:00,
2013-03-03 11:33:00,48.1,26.1,30.17,West,279,18.0,18.0,42,0.00,,SKC,0.00,VWS V14.01,2013-03-03 17:33:00,
2013-03-03 11:34:00,48.2,26.2,30.17,NW,304,6.0,18.0,42,0.00,,SKC,0.00,VWS V14.01,2013-03-03 17:34:00,
2013-03-03 11:35:00,48.3,26.3,30.17,West,273,6.0,18.0,42,0.00,,SKC,0.00,VWS V14.01,2013-03-03 17:35:00,
2013-03-03 11:36:00,48.4,26.4,30.17,NW,315,9.0,18.0,42,0.00,,SKC,0.00,VWS V14.01,2013-03-03 17:36:00,
2013-03-03 11:37:00,48.6,26.6,30.17,WSW,258,5.0,18.0,42,0.00,,SKC,0.00,VWS V14.01,2013-03-03 17:37:00,
2013-03-03 11:38:00,48.7,26.1,30.17,WNW,296,11.0,18.0,41,0.00,,SKC,0.00,VWS V14.01,2013-03-03 17:38:00,
2013-03-03 11:39:00,48.7,26.1,30.17,NNW,333,7.0,18.0,41,0.00,,SKC,0.00,VWS V14.01,2013-03-03 17:39:00,
2013-03-03 11:40:00,48.6,26.6,30.17,NNW,332,7.0,18.0,42,0.00,,SKC,0.00,VWS V14.01,2013-03-03 17:40:00,
2013-03-03 11:41:00,48.5,25.9,30.17,NW,309,2.0,18.0,41,0.00,,SKC,0.00,VWS V14.01,2013-03-03 17:41:00,
2013-03-03 11:42:00,48.5,26.5,30.17,WNW,302,10.0,18.0,42,0.00,,SKC,0.00,VWS V14.01,2013-03-03 17:42:00,
2013-03-03 11:43:00,48.6,27.1,30.17,WNW,288,5.0,18.0,43,0.00,,SKC,0.00,VWS V14.01,2013-03-03 17:43:00,
2013-03-03 11:44:00,48.7,26.6,30.17,NW,319,5.0,18.0,42,0.00,,SKC,0.00,VWS V14.01,2013-03-03 17:44:00,
2013-03-03 11:45:00,48.9,27.4,30.17,WNW,302,10.0,18.0,43,0.00,,SKC,0.00,VWS V14.01,2013-03-03 17:45:00,
2013-03-03 11:46:00,49.0,26.9,30.17,WNW,292,13.0,18.0,42,0.00,,SKC,0.00,VWS V14.01,2013-03-03 17:46:00,
2013-03-03 11:47:00,49.2,26.5,30.16,WNW,301,5.0,18.0,41,0.00,,SKC,0.00,VWS V14.01,2013-03-03 17:47:00,
2013-03-03 11:48:00,49.3,26.0,30.16,WNW,302,5.0,18.0,40,0.00,,SKC,0.00,VWS V14.01,2013-03-03 17:48:00,
2013-03-03 11:49:00,49.3,26.0,30.16,NNW,338,12.0,18.0,40,0.00,,SKC,0.00,VWS V14.01,2013-03-03 17:49:00,
2013-03-03 11:50:00,49.2,25.3,30.16,NNW,348,9.0,18.0,39,0.00,,SKC,0.00,VWS V14.01,2013-03-03 17:50:00,
2013-03-03 11:51:00,49.0,25.1,30.16,WNW,288,7.0,18.0,39,0.00,,SKC,0.00,VWS V14.01,2013-03-03 17:51:00,
2013-03-03 11:52:00,49.0,25.8,30.16,WNW,303,4.0,18.0,40,0.00,,SKC,0.00,VWS V14.01,2013-03-03 17:52:00,
2013-03-03 11:53:00,49.0,26.3,30.16,WSW,239,11.0,18.0,41,0.00,,SKC,0.00,VWS V14.01,2013-03-03 17:53:00,
2013-03-03 11:54:00,49.1,27.0,30.16,WNW,288,4.0,18.0,42,0.00,,SKC,0.00,VWS V14.01,2013-03-03 17:54:00,
2013-03-03 11:55:00,49.1,26.4,30.16,NW,318,9.0,18.0,41,0.00,,SKC,0.00,VWS V14.01,2013-03-03 17:55:00,
2013-03-03 11:56:00,49.2,25.9,30.16,NW,311,6.0,18.0,40,0.00,,SKC,0.00,VWS V14.01,2013-03-03 17:56:00,
2013-03-03 11:57:00,49.3,26.0,30.15,WNW,300,8.0,20.0,40,0.00,,SKC,0.00,VWS V14.01,2013-03-03 17:57:00,
2013-03-03 11:58:00,49.3,26.0,30.15,NW,305,7.0,20.0,40,0.00,,SKC,0.00,VWS V14.01,2013-03-03 17:58:00,
2013-03-03 11:59:00,49.4,26.1,30.15,NNW,339,7.0,20.0,40,0.00,,SKC,0.00,VWS V14.01,2013-03-03 17:59:00,
2013-03-03 12:00:00,49.4,26.1,30.15,North,5,7.0,20.0,40,0.00,,SKC,0.00,VWS V14.01,2013-03-03 18:00:00,
2013-03-03 12:01:00,49.4,26.1,30.16,NNW,347,8.0,15.0,40,0.00,,SKC,0.00,VWS V14.01,2013-03-03 18:01:00,
2013-03-03 12:02:00,49.3,25.4,30.15,NNW,333,5.0,15.0,39,0.00,,SKC,0.00,VWS V14.01,2013-03-03 18:02:00,
2013-03-03 12:03:00,49.2,25.9,30.15,West,273,11.0,15.0,40,0.00,,SKC,0.00,VWS V14.01,2013-03-03 18:03:00,
2013-03-03 12:04:00,49.1,25.2,30.15,WNW,296,9.0,15.0,39,0.00,,SKC,0.00,VWS V14.01,2013-03-03 18:04:00,
2013-03-03 12:05:00,49.1,25.8,30.15,WNW,292,8.0,18.0,40,0.00,,SKC,0.00,VWS V14.01,2013-03-03 18:05:00,
2013-03-03 12:06:00,49.1,25.8,30.15,West,275,11.0,18.0,40,0.00,,SKC,0.00,VWS V14.01,2013-03-03 18:06:00,
2013-03-03 12:07:00,49.1,25.8,30.15,West,274,13.0,18.0,40,0.00,,SKC,0.00,VWS V14.01,2013-03-03 18:07:00,
2013-03-03 12:08:00,49.2,25.3,30.15,WNW,290,10.0,18.0,39,0.00,,SKC,0.00,VWS V14.01,2013-03-03 18:08:00,
2013-03-03 12:09:00,49.2,25.3,30.15,West,281,11.0,18.0,39,0.00,,SKC,0.00,VWS V14.01,2013-03-03 18:09:00,
2013-03-03 12:10:00,49.2,24.7,30.15,WNW,296,4.0,18.0,38,0.00,,SKC,0.00,VWS V14.01,2013-03-03 18:10:00,
2013-03-03 12:11:00,49.3,26.0,30.15,NW,309,13.0,18.0,40,0.00,,SKC,0.00,VWS V14.01,2013-03-03 18:11:00,
2013-03-03 12:12:00,49.4,26.1,30.15,WNW,301,6.0,18.0,40,0.00,,SKC,0.00,VWS V14.01,2013-03-03 18:12:00,
2013-03-03 12:13:00,49.5,25.0,30.15,NW,304,12.0,18.0,38,0.00,,SKC,0.00,VWS V14.01,2013-03-03 18:13:00,
2013-03-03 12:14:00,49.5,25.6,30.15,NW,304,12.0,18.0,39,0.00,,SKC,0.00,VWS V14.01,2013-03-03 18:14:00,
2013-03-03 12:15:00,49.6,25.7,30.15,WNW,284,11.0,18.0,39,0.00,,SKC,0.00,VWS V14.01,2013-03-03 18:15:00,
2013-03-03 12:16:00,49.7,25.8,30.15,WNW,294,8.0,18.0,39,0.00,,SKC,0.00,VWS V14.01,2013-03-03 18:16:00,
2013-03-03 12:17:00,49.8,25.9,30.15,NNW,328,8.0,18.0,39,0.00,,SKC,0.00,VWS V14.01,2013-03-03 18:17:00,
2013-03-03 12:18:00,49.9,26.0,30.15,NW,321,5.0,18.0,39,0.00,,SKC,0.00,VWS V14.01,2013-03-03 18:18:00,
2013-03-03 12:19:00,49.9,26.0,30.15,NW,319,6.0,18.0,39,0.00,,SKC,0.00,VWS V14.01,2013-03-03 18:19:00,
2013-03-03 12:20:00,50.1,25.5,30.15,NW,320,10.0,18.0,38,0.00,,SKC,0.00,VWS V14.01,2013-03-03 18:20:00,
2013-03-03 12:21:00,50.1,25.5,30.15,WNW,292,9.0,18.0,38,0.00,,SKC,0.00,VWS V14.01,2013-03-03 18:21:00,
2013-03-03 12:22:00,50.2,26.2,30.15,WNW,285,6.0,18.0,39,0.00,,SKC,0.00,VWS V14.01,2013-03-03 18:22:00,
2013-03-03 12:23:00,50.3,26.3,30.15,West,278,7.0,18.0,39,0.00,,SKC,0.00,VWS V14.01,2013-03-03 18:23:00,
2013-03-03 12:24:00,50.4,26.4,30.14,WNW,300,11.0,18.0,39,0.00,,SKC,0.00,VWS V14.01,2013-03-03 18:24:00,
2013-03-03 12:25:00,50.4,26.4,30.14,NW,326,6.0,18.0,39,0.00,,SKC,0.00,VWS V14.01,2013-03-03 18:25:00,
2013-03-03 12:26:00,50.5,26.5,30.15,NW,314,8.0,18.0,39,0.00,,SKC,0.00,VWS V14.01,2013-03-03 18:26:00,
2013-03-03 12:27:00,50.5,26.5,30.15,WNW,290,8.0,18.0,39,0.00,,SKC,0.00,VWS V14.01,2013-03-03 18:27:00,
2013-03-03 12:28:00,50.6,26.6,30.14,West,267,11.0,18.0,39,0.00,,SKC,0.00,VWS V14.01,2013-03-03 18:28:00,
2013-03-03 12:29:00,50.6,26.0,30.15,WNW,301,11.0,18.0,38,0.00,,SKC,0.00,VWS V14.01,2013-03-03 18:29:00,
2013-03-03 12:30:00,50.7,26.7,30.14,West,277,9.0,18.0,39,0.00,,SKC,0.00,VWS V14.01,2013-03-03 18:30:00,
2013-03-03 12:31:00,50.7,26.7,30.14,NW,309,11.0,11.0,39,0.00,,SKC,0.00,VWS V14.01,2013-03-03 18:31:00,
2013-03-03 12:32:00,50.8,26.8,30.14,NW,325,11.0,18.0,39,0.00,,SKC,0.00,VWS V14.01,2013-03-03 18:32:00,
2013-03-03 12:33:00,50.9,26.8,30.14,West,271,8.0,18.0,39,0.00,,SKC,0.00,VWS V14.01,2013-03-03 18:33:00,
2013-03-03 12:34:00,50.9,26.2,30.14,WNW,300,9.0,18.0,38,0.00,,SKC,0.00,VWS V14.01,2013-03-03 18:34:00,
2013-03-03 12:35:00,51.0,26.3,30.14,WNW,296,10.0,18.0,38,0.00,,SKC,0.00,VWS V14.01,2013-03-03 18:35:00,
2013-03-03 12:36:00,51.1,25.8,30.14,West,279,14.0,18.0,37,0.00,,SKC,0.00,VWS V14.01,2013-03-03 18:36:00,
2013-03-03 12:37:00,51.1,25.8,30.14,WNW,288,6.0,18.0,37,0.00,,SKC,0.00,VWS V14.01,2013-03-03 18:37:00,
2013-03-03 12:38:00,51.1,26.4,30.14,NW,305,4.0,18.0,38,0.00,,SKC,0.00,VWS V14.01,2013-03-03 18:38:00,
2013-03-03 12:39:00,51.1,26.4,30.14,WNW,284,7.0,18.0,38,0.00,,SKC,0.00,VWS V14.01,2013-03-03 18:39:00,
2013-03-03 12:40:00,51.1,25.8,30.14,West,266,4.0,18.0,37,0.00,,SKC,0.00,VWS V14.01,2013-03-03 18:40:00,
2013-03-03 12:41:00,51.2,25.8,30.14,West,275,12.0,18.0,37,0.00,,SKC,0.00,VWS V14.01,2013-03-03 18:41:00,
2013-03-03 12:42:00,51.2,26.5,30.14,NW,309,13.0,18.0,38,0.00,,SKC,0.00,VWS V14.01,2013-03-03 18:42:00,
2013-03-03 12:43:00,51.4,26.7,30.14,NW,317,9.0,18.0,38,0.00,,SKC,0.00,VWS V14.01,2013-03-03 18:43:00,
2013-03-03 12:44:00,51.3,25.9,30.14,NW,323,6.0,18.0,37,0.00,,SKC,0.00,VWS V14.01,2013-03-03 18:44:00,
2013-03-03 12:45:00,51.4,26.7,30.14,NW,315,9.0,18.0,38,0.00,,SKC,0.00,VWS V14.01,2013-03-03 18:45:00,
2013-03-03 12:46:00,51.4,26.0,30.14,WNW,284,10.0,18.0,37,0.00,,SKC,0.00,VWS V14.01,2013-03-03 18:46:00,
2013-03-03 12:47:00,51.4,26.7,30.14,NNW,342,6.0,18.0,38,0.00,,SKC,0.00,VWS V14.01,2013-03-03 18:47:00,
2013-03-03 12:48:00,51.3,26.6,30.14,NNW,327,11.0,18.0,38,0.00,,SKC,0.00,VWS V14.01,2013-03-03 18:48:00,
2013-03-03 12:49:00,51.3,25.9,30.14,NW,325,3.0,18.0,37,0.00,,SKC,0.00,VWS V14.01,2013-03-03 18:49:00,
2013-03-03 12:50:00,51.3,26.6,30.13,NNW,329,8.0,18.0,38,0.00,,SKC,0.00,VWS V14.01,2013-03-03 18:50:00,
2013-03-03 12:51:00,51.3,26.6,30.13,West,275,8.0,18.0,38,0.00,,SKC,0.00,VWS V14.01,2013-03-03 18:51:00,
2013-03-03 12:52:00,51.4,26.7,30.14,NW,310,1.0,18.0,38,0.00,,SKC,0.00,VWS V14.01,2013-03-03 18:52:00,
2013-03-03 12:53:00,51.5,26.1,30.13,WNW,292,6.0,18.0,37,0.00,,SKC,0.00,VWS V14.01,2013-03-03 18:53:00,
2013-03-03 12:54:00,51.5,25.5,30.14,West,281,13.0,18.0,36,0.00,,SKC,0.00,VWS V14.01,2013-03-03 18:54:00,
2013-03-03 12:55:00,51.6,25.5,30.13,NW,304,13.0,19.0,36,0.00,,SKC,0.00,VWS V14.01,2013-03-03 18:55:00,
2013-03-03 12:56:00,51.7,25.6,30.13,WNW,294,9.0,19.0,36,0.00,,SKC,0.00,VWS V14.01,2013-03-03 18:56:00,
2013-03-03 12:57:00,51.7,25.6,30.13,NW,311,6.0,19.0,36,0.00,,SKC,0.00,VWS V14.01,2013-03-03 18:57:00,
2013-03-03 12:58:00,51.7,26.3,30.13,WNW,291,8.0,19.0,37,0.00,,SKC,0.00,VWS V14.01,2013-03-03 18:58:00,
2013-03-03 12:59:00,51.7,25.6,30.13,NNW,339,8.0,19.0,36,0.00,,SKC,0.00,VWS V14.01,2013-03-03 18:59:00,
2013-03-03 13:00:00,51.7,25.6,30.13,NW,308,1.0,19.0,36,0.00,,SKC,0.00,VWS V14.01,2013-03-03 19:00:00,
2013-03-03 13:01:00,51.7,25.6,30.13,WNW,290,5.0,15.0,36,0.00,,SKC,0.00,VWS V14.01,2013-03-03 19:01:00,
2013-03-03 13:02:00,51.8,25.7,30.13,WNW,299,11.0,15.0,36,0.00,,SKC,0.00,VWS V14.01,2013-03-03 19:02:00,
2013-03-03 13:03:00,51.9,25.8,30.13,WNW,284,9.0,18.0,36,0.00,,SKC,0.00,VWS V14.01,2013-03-03 19:03:00,
2013-03-03 13:04:00,52.0,25.2,30.13,West,281,11.0,18.0,35,0.00,,SKC,0.00,VWS V14.01,2013-03-03 19:04:00,
2013-03-03 13:05:00,52.1,25.3,30.13,NNW,333,11.0,18.0,35,0.00,,SKC,0.00,VWS V14.01,2013-03-03 19:05:00,
2013-03-03 13:06:00,52.1,25.3,30.13,NW,321,10.0,18.0,35,0.00,,SKC,0.00,VWS V14.01,2013-03-03 19:06:00,
2013-03-03 13:07:00,52.1,25.3,30.13,WNW,288,10.0,18.0,35,0.00,,SKC,0.00,VWS V14.01,2013-03-03 19:07:00,
2013-03-03 13:08:00,52.1,25.3,30.13,WNW,297,9.0,18.0,35,0.00,,SKC,0.00,VWS V14.01,2013-03-03 19:08:00,
2013-03-03 13:09:00,52.1,26.0,30.13,NW,304,6.0,18.0,36,0.00,,SKC,0.00,VWS V14.01,2013-03-03 19:09:00,
2013-03-03 13:10:00,52.2,26.1,30.13,WNW,299,9.0,18.0,36,0.00,,SKC,0.00,VWS V14.01,2013-03-03 19:10:00,
2013-03-03 13:11:00,52.3,26.2,30.12,NW,307,12.0,18.0,36,0.00,,SKC,0.00,VWS V14.01,2013-03-03 19:11:00,
2013-03-03 13:12:00,52.4,25.6,30.13,NW,311,9.0,18.0,35,0.00,,SKC,0.00,VWS V14.01,2013-03-03 19:12:00,
2013-03-03 13:13:00,52.5,25.7,30.12,NW,306,7.0,18.0,35,0.00,,SKC,0.00,VWS V14.01,2013-03-03 19:13:00,
2013-03-03 13:14:00,52.6,25.8,30.12,NW,317,12.0,18.0,35,0.00,,SKC,0.00,VWS V14.01,2013-03-03 19:14:00,
2013-03-03 13:15:00,52.7,25.8,30.12,WNW,284,7.0,18.0,35,0.00,,SKC,0.00,VWS V14.01,2013-03-03 19:15:00,
2013-03-03 13:16:00,52.8,25.2,30.12,NW,317,8.0,18.0,34,0.00,,SKC,0.00,VWS V14.01,2013-03-03 19:16:00,
2013-03-03 13:17:00,52.9,25.3,30.12,NW,319,11.0,18.0,34,0.00,,SKC,0.00,VWS V14.01,2013-03-03 19:17:00,
2013-03-03 13:18:00,52.9,26.0,30.12,NNW,344,5.0,18.0,35,0.00,,SKC,0.00,VWS V14.01,2013-03-03 19:18:00,
2013-03-03 13:19:00,52.9,25.3,30.12,NNW,333,8.0,18.0,34,0.00,,SKC,0.00,VWS V14.01,2013-03-03 19:19:00,
2013-03-03 13:20:00,52.8,25.2,30.12,NW,315,0.0,18.0,34,0.00,,SKC,0.00,VWS V14.01,2013-03-03 19:20:00,
2013-03-03 13:21:00,52.8,26.6,30.12,NW,305,8.0,18.0,36,0.00,,SKC,0.00,VWS V14.01,2013-03-03 19:21:00,
2013-03-03 13:22:00,52.8,27.3,30.12,NNW,335,3.0,18.0,37,0.00,,SKC,0.00,VWS V14.01,2013-03-03 19:22:00,
2013-03-03 13:23:00,52.8,26.6,30.12,NNE,20,5.0,18.0,36,0.00,,SKC,0.00,VWS V14.01,2013-03-03 19:23:00,
2013-03-03 13:24:00,52.8,25.9,30.12,NNW,346,11.0,18.0,35,0.00,,SKC,0.00,VWS V14.01,2013-03-03 19:24:00,
2013-03-03 13:25:00,52.7,25.8,30.12,West,279,11.0,18.0,35,0.00,,SKC,0.00,VWS V14.01,2013-03-03 19:25:00,
2013-03-03 13:26:00,52.7,25.8,30.12,NW,324,10.0,18.0,35,0.00,,SKC,0.00,VWS V14.01,2013-03-03 19:26:00,
2013-03-03 13:27:00,52.5,25.7,30.12,WNW,284,8.0,18.0,35,0.00,,SKC,0.00,VWS V14.01,2013-03-03 19:27:00,
2013-03-03 13:28:00,52.4,24.9,30.12,North,349,10.0,18.0,34,0.00,,SKC,0.00,VWS V14.01,2013-03-03 19:28:00,
2013-03-03 13:29:00,52.3,24.8,30.12,North,355,8.0,18.0,34,0.00,,SKC,0.00,VWS V14.01,2013-03-03 19:29:00,
2013-03-03 13:30:00,52.2,24.7,30.12,WSW,253,9.0,18.0,34,0.00,,SKC,0.00,VWS V14.01,2013-03-03 19:30:00,
2013-03-03 13:31:00,52.2,24.7,30.12,NW,319,16.0,18.0,34,0.00,,SKC,0.00,VWS V14.01,2013-03-03 19:31:00,
2013-03-03 13:32:00,52.2,24.7,30.12,WNW,298,6.0,18.0,34,0.00,,SKC,0.00,VWS V14.01,2013-03-03 19:32:00,
2013-03-03 13:33:00,52.2,24.7,30.12,NW,305,9.0,18.0,34,0.00,,SKC,0.00,VWS V14.01,2013-03-03 19:33:00,
2013-03-03 13:34:00,52.3,25.5,30.12,NW,318,7.0,18.0,35,0.00,,SKC,0.00,VWS V14.01,2013-03-03 19:34:00,
2013-03-03 13:35:00,52.4,24.9,30.12,WNW,286,8.0,18.0,34,0.00,,SKC,0.00,VWS V14.01,2013-03-03 19:35:00,
2013-03-03 13:36:00,52.5,25.7,30.12,NW,316,2.0,18.0,35,0.00,,SKC,0.00,VWS V14.01,2013-03-03 19:36:00,
2013-03-03 13:37:00,52.7,25.8,30.12,West,277,10.0,18.0,35,0.00,,SKC,0.00,VWS V14.01,2013-03-03 19:37:00,
2013-03-03 13:38:00,52.8,24.5,30.12,WNW,300,11.0,18.0,33,0.00,,SKC,0.00,VWS V14.01,2013-03-03 19:38:00,
2013-03-03 13:39:00,52.8,25.2,30.12,NNW,341,9.0,18.0,34,0.00,,SKC,0.00,VWS V14.01,2013-03-03 19:39:00,
2013-03-03 13:40:00,52.9,25.3,30.12,NW,307,6.0,18.0,34,0.00,,SKC,0.00,VWS V14.01,2013-03-03 19:40:00,
2013-03-03 13:41:00,53.0,25.4,30.12,WNW,286,4.0,18.0,34,0.00,,SKC,0.00,VWS V14.01,2013-03-03 19:41:00,
2013-03-03 13:42:00,53.0,25.4,30.12,WNW,296,9.0,18.0,34,0.00,,SKC,0.00,VWS V14.01,2013-03-03 19:42:00,
2013-03-03 13:43:00,53.1,25.5,30.12,WNW,298,8.0,18.0,34,0.00,,SKC,0.00,VWS V14.01,2013-03-03 19:43:00,
2013-03-03 13:44:00,53.1,24.8,30.12,NNW,331,4.0,18.0,33,0.00,,SKC,0.00,VWS V14.01,2013-03-03 19:44:00,
2013-03-03 13:45:00,53.2,24.9,30.12,WNW,302,2.0,18.0,33,0.00,,SKC,0.00,VWS V14.01,2013-03-03 19:45:00,
2013-03-03 13:46:00,53.2,25.6,30.12,WNW,285,9.0,18.0,34,0.00,,SKC,0.00,VWS V14.01,2013-03-03 19:46:00,
2013-03-03 13:47:00,53.4,25.0,30.12,NW,308,7.0,18.0,33,0.00,,SKC,0.00,VWS V14.01,2013-03-03 19:47:00,
2013-03-03 13:48:00,53.5,25.1,30.12,NW,318,6.0,18.0,33,0.00,,SKC,0.00,VWS V14.01,2013-03-03 19:48:00,
2013-03-03 13:49:00,53.6,25.2,30.12,WNW,293,9.0,18.0,33,0.00,,SKC,0.00,VWS V14.01,2013-03-03 19:49:00,
2013-03-03 13:50:00,53.6,24.5,30.12,NW,322,5.0,18.0,32,0.00,,SKC,0.00,VWS V14.01,2013-03-03 19:50:00,
2013-03-03 13:51:00,53.7,25.3,30.12,North,350,8.0,18.0,33,0.00,,SKC,0.00,VWS V14.01,2013-03-03 19:51:00,
2013-03-03 13:52:00,53.8,26.1,30.12,North,360,7.0,18.0,34,0.00,,SKC,0.00,VWS V14.01,2013-03-03 19:52:00,
2013-03-03 13:53:00,53.8,25.4,30.12,NW,315,12.0,18.0,33,0.00,,SKC,0.00,VWS V14.01,2013-03-03 19:53:00,
2013-03-03 13:54:00,53.6,24.5,30.12,NW,317,6.0,18.0,32,0.00,,SKC,0.00,VWS V14.01,2013-03-03 19:54:00,
2013-03-03 13:55:00,53.4,24.3,30.12,NNW,347,6.0,18.0,32,0.00,,SKC,0.00,VWS V14.01,2013-03-03 19:55:00,
2013-03-03 13:56:00,53.2,24.1,30.12,NNW,332,7.0,18.0,32,0.00,,SKC,0.00,VWS V14.01,2013-03-03 19:56:00,
2013-03-03 13:57:00,53.0,24.7,30.12,North,355,8.0,18.0,33,0.00,,SKC,0.00,VWS V14.01,2013-03-03 19:57:00,
2013-03-03 13:58:00,52.7,25.1,30.12,NNW,330,6.0,18.0,34,0.00,,SKC,0.00,VWS V14.01,2013-03-03 19:58:00,
2013-03-03 13:59:00,52.7,25.1,30.12,NW,310,7.0,18.0,34,0.00,,SKC,0.00,VWS V14.01,2013-03-03 19:59:00,
2013-03-03 14:00:00,52.7,25.1,30.12,WNW,284,6.0,18.0,34,0.00,,SKC,0.00,VWS V14.01,2013-03-03 20:00:00,
2013-03-03 14:01:00,52.7,24.4,30.12,NNW,327,7.0,8.0,33,0.00,,SKC,0.00,VWS V14.01,2013-03-03 20:01:00,
2013-03-03 14:02:00,52.7,24.4,30.12,NNW,328,7.0,8.0,33,0.00,,SKC,0.00,VWS V14.01,2013-03-03 20:02:00,
2013-03-03 14:03:00,52.8,25.2,30.12,NNW,328,10.0,12.0,34,0.00,,SKC,0.00,VWS V14.01,2013-03-03 20:03:00,
2013-03-03 14:04:00,52.9,25.3,30.12,NW,315,10.0,14.0,34,0.00,,SKC,0.00,VWS V14.01,2013-03-03 20:04:00,
2013-03-03 14:05:00,53.0,25.4,30.12,West,279,13.0,14.0,34,0.00,,SKC,0.00,VWS V14.01,2013-03-03 20:05:00,
2013-03-03 14:06:00,53.2,24.9,30.12,West,265,8.0,14.0,33,0.00,,SKC,0.00,VWS V14.01,2013-03-03 20:06:00,
2013-03-03 14:07:00,53.4,25.0,30.12,NW,304,3.0,14.0,33,0.00,,SKC,0.00,VWS V14.01,2013-03-03 20:07:00,
2013-03-03 14:08:00,53.5,25.8,30.12,WNW,300,11.0,14.0,34,0.00,,SKC,0.00,VWS V14.01,2013-03-03 20:08:00,
2013-03-03 14:09:00,53.7,25.3,30.12,NW,321,15.0,16.0,33,0.00,,SKC,0.00,VWS V14.01,2013-03-03 20:09:00,
2013-03-03 14:10:00,53.8,24.6,30.12,NNW,338,9.0,16.0,32,0.00,,SKC,0.00,VWS V14.01,2013-03-03 20:10:00,
2013-03-03 14:11:00,53.9,25.5,30.12,WNW,294,7.0,16.0,33,0.00,,SKC,0.00,VWS V14.01,2013-03-03 20:11:00,
2013-03-03 14:12:00,54.0,24.8,30.12,WNW,284,4.0,16.0,32,0.00,,SKC,0.00,VWS V14.01,2013-03-03 20:12:00,
2013-03-03 14:13:00,54.0,24.1,30.12,West,274,9.0,16.0,31,0.00,,SKC,0.00,VWS V14.01,2013-03-03 20:13:00,
2013-03-03 14:14:00,54.1,24.2,30.12,WNW,293,6.0,16.0,31,0.00,,SKC,0.00,VWS V14.01,2013-03-03 20:14:00,
2013-03-03 14:15:00,54.1,24.2,30.12,West,277,10.0,16.0,31,0.00,,SKC,0.00,VWS V14.01,2013-03-03 20:15:00,
2013-03-03 14:16:00,54.1,24.9,30.12,WNW,287,8.0,16.0,32,0.00,,SKC,0.00,VWS V14.01,2013-03-03 20:16:00,
2013-03-03 14:17:00,54.2,25.0,30.12,WNW,289,6.0,16.0,32,0.00,,SKC,0.00,VWS V14.01,2013-03-03 20:17:00,
2013-03-03 14:18:00,54.3,25.1,30.12,WNW,300,8.0,16.0,32,0.00,,SKC,0.00,VWS V14.01,2013-03-03 20:18:00,
2013-03-03 14:19:00,54.4,25.9,30.12,NW,310,4.0,16.0,33,0.00,,SKC,0.00,VWS V14.01,2013-03-03 20:19:00,
2013-03-03 14:20:00,54.5,25.3,30.12,NW,326,6.0,16.0,32,0.00,,SKC,0.00,VWS V14.01,2013-03-03 20:20:00,
2013-03-03 14:21:00,54.6,25.4,30.12,NW,313,6.0,16.0,32,0.00,,SKC,0.00,VWS V14.01,2013-03-03 20:21:00,
2013-03-03 14:22:00,54.8,25.5,30.12,WNW,299,4.0,16.0,32,0.00,,SKC,0.00,VWS V14.01,2013-03-03 20:22:00,
2013-03-03 14:23:00,54.8,24.8,30.13,NNW,338,3.0,16.0,31,0.00,,SKC,0.00,VWS V14.01,2013-03-03 20:23:00,
2013-03-03 14:24:00,54.9,25.6,30.13,NNW,331,6.0,16.0,32,0.00,,SKC,0.00,VWS V14.01,2013-03-03 20:24:00,
2013-03-03 14:25:00,54.9,25.6,30.13,NW,326,12.0,19.0,32,0.00,,SKC,0.00,VWS V14.01,2013-03-03 20:25:00,
2013-03-03 14:26:00,55.0,25.7,30.13,West,270,9.0,19.0,32,0.00,,SKC,0.00,VWS V14.01,2013-03-03 20:26:00,
2013-03-03 14:27:00,55.0,24.9,30.13,NW,321,7.0,19.0,31,0.00,,SKC,0.00,VWS V14.01,2013-03-03 20:27:00,
2013-03-03 14:28:00,55.0,25.7,30.12,WNW,302,8.0,19.0,32,0.00,,SKC,0.00,VWS V14.01,2013-03-03 20:28:00,
2013-03-03 14:29:00,55.0,25.7,30.12,NW,313,6.0,19.0,32,0.00,,SKC,0.00,VWS V14.01,2013-03-03 20:29:00,
2013-03-03 14:30:00,55.0,24.9,30.12,NW,326,6.0,19.0,31,0.00,,SKC,0.00,VWS V14.01,2013-03-03 20:30:00,
2013-03-03 14:31:00,55.0,24.9,30.12,NNW,337,9.0,11.0,31,0.00,,SKC,0.00,VWS V14.01,2013-03-03 20:31:00,
2013-03-03 14:32:00,55.0,24.2,30.12,NNW,327,10.0,11.0,30,0.00,,SKC,0.00,VWS V14.01,2013-03-03 20:32:00,
2013-03-03 14:33:00,54.8,24.0,30.12,NNW,346,7.0,14.0,30,0.00,,SKC,0.00,VWS V14.01,2013-03-03 20:33:00,
2013-03-03 14:34:00,54.7,24.7,30.12,NW,311,13.0,14.0,31,0.00,,SKC,0.00,VWS V14.01,2013-03-03 20:34:00,
2013-03-03 14:35:00,54.5,24.5,30.12,North,5,3.0,14.0,31,0.00,,SKC,0.00,VWS V14.01,2013-03-03 20:35:00,
2013-03-03 14:36:00,54.4,25.2,30.12,North,351,6.0,14.0,32,0.00,,SKC,0.00,VWS V14.01,2013-03-03 20:36:00,
2013-03-03 14:37:00,54.4,25.2,30.12,NNW,331,8.0,14.0,32,0.00,,SKC,0.00,VWS V14.01,2013-03-03 20:37:00,
2013-03-03 14:38:00,54.4,25.2,30.12,WNW,294,12.0,14.0,32,0.00,,SKC,0.00,VWS V14.01,2013-03-03 20:38:00,
2013-03-03 14:39:00,54.4,25.2,30.12,West,275,14.0,18.0,32,0.00,,SKC,0.00,VWS V14.01,2013-03-03 20:39:00,
2013-03-03 14:40:00,54.4,25.2,30.13,NW,322,8.0,18.0,32,0.00,,SKC,0.00,VWS V14.01,2013-03-03 20:40:00,
2013-03-03 14:41:00,54.4,25.2,30.12,North,351,6.0,18.0,32,0.00,,SKC,0.00,VWS V14.01,2013-03-03 20:41:00,
2013-03-03 14:42:00,54.4,24.4,30.12,NW,315,9.0,18.0,31,0.00,,SKC,0.00,VWS V14.01,2013-03-03 20:42:00,
2013-03-03 14:43:00,54.4,25.2,30.12,West,280,7.0,18.0,32,0.00,,SKC,0.00,VWS V14.01,2013-03-03 20:43:00,
2013-03-03 14:44:00,54.4,24.4,30.12,West,281,12.0,18.0,31,0.00,,SKC,0.00,VWS V14.01,2013-03-03 20:44:00,
2013-03-03 14:45:00,54.5,24.5,30.12,WNW,286,7.0,18.0,31,0.00,,SKC,0.00,VWS V14.01,2013-03-03 20:45:00,
2013-03-03 14:46:00,54.6,24.6,30.12,West,270,8.0,18.0,31,0.00,,SKC,0.00,VWS V14.01,2013-03-03 20:46:00,
2013-03-03 14:47:00,54.6,23.8,30.12,WNW,287,11.0,18.0,30,0.00,,SKC,0.00,VWS V14.01,2013-03-03 20:47:00,
2013-03-03 14:48:00,54.6,24.6,30.12,NW,319,6.0,18.0,31,0.00,,SKC,0.00,VWS V14.01,2013-03-03 20:48:00,
2013-03-03 14:49:00,54.6,25.4,30.12,NNW,338,4.0,18.0,32,0.00,,SKC,0.00,VWS V14.01,2013-03-03 20:49:00,
2013-03-03 14:50:00,54.6,26.1,30.12,NW,323,9.0,18.0,33,0.00,,SKC,0.00,VWS V14.01,2013-03-03 20:50:00,
2013-03-03 14:51:00,54.6,25.4,30.12,WNW,288,4.0,18.0,32,0.00,,SKC,0.00,VWS V14.01,2013-03-03 20:51:00,
2013-03-03 14:52:00,54.7,25.4,30.12,NW,309,7.0,18.0,32,0.00,,SKC,0.00,VWS V14.01,2013-03-03 20:52:00,
2013-03-03 14:53:00,54.8,25.5,30.12,NNW,343,11.0,18.0,32,0.00,,SKC,0.00,VWS V14.01,2013-03-03 20:53:00,
2013-03-03 14:54:00,54.6,24.6,30.12,North,355,6.0,18.0,31,0.00,,SKC,0.00,VWS V14.01,2013-03-03 20:54:00,
2013-03-03 14:55:00,54.5,23.7,30.12,North,355,11.0,18.0,30,0.00,,SKC,0.00,VWS V14.01,2013-03-03 20:55:00,
2013-03-03 14:56:00,54.1,24.2,30.12,NNW,346,3.0,18.0,31,0.00,,SKC,0.00,VWS V14.01,2013-03-03 20:56:00,
2013-03-03 14:57:00,54.0,25.6,30.12,NW,325,3.0,18.0,33,0.00,,SKC,0.00,VWS V14.01,2013-03-03 20:57:00,
2013-03-03 14:58:00,54.0,25.6,30.12,NNW,334,3.0,18.0,33,0.00,,SKC,0.00,VWS V14.01,2013-03-03 20:58:00,
2013-03-03 14:59:00,54.0,25.6,30.12,NNW,338,6.0,18.0,33,0.00,,SKC,0.00,VWS V14.01,2013-03-03 20:59:00,
2013-03-03 15:00:00,54.1,25.6,30.12,NNW,338,2.0,18.0,33,0.00,,SKC,0.00,VWS V14.01,2013-03-03 21:00:00,
2013-03-03 15:01:00,54.2,26.5,30.12,NNW,329,5.0,6.0,34,0.00,,SKC,0.00,VWS V14.01,2013-03-03 21:01:00,
2013-03-03 15:02:00,54.3,26.5,30.12,NW,315,6.0,6.0,34,0.00,,SKC,0.00,VWS V14.01,2013-03-03 21:02:00,
2013-03-03 15:03:00,54.5,26.0,30.12,WNW,299,6.0,8.0,33,0.00,,SKC,0.00,VWS V14.01,2013-03-03 21:03:00,
2013-03-03 15:04:00,54.6,25.4,30.12,WNW,298,6.0,8.0,32,0.00,,SKC,0.00,VWS V14.01,2013-03-03 21:04:00,
2013-03-03 15:05:00,54.8,26.3,30.13,NNW,327,5.0,9.0,33,0.00,,SKC,0.00,VWS V14.01,2013-03-03 21:05:00,
2013-03-03 15:06:00,54.9,26.4,30.13,WNW,299,11.0,11.0,33,0.00,,SKC,0.00,VWS V14.01,2013-03-03 21:06:00,
2013-03-03 15:07:00,55.1,25.8,30.13,NNW,335,7.0,11.0,32,0.00,,SKC,0.00,VWS V14.01,2013-03-03 21:07:00,
2013-03-03 15:08:00,55.1,25.8,30.13,NNW,345,6.0,11.0,32,0.00,,SKC,0.00,VWS V14.01,2013-03-03 21:08:00,
2013-03-03 15:09:00,55.0,25.7,30.12,NNW,331,4.0,11.0,32,0.00,,SKC,0.00,VWS V14.01,2013-03-03 21:09:00,
2013-03-03 15:10:00,54.9,25.6,30.13,NNE,28,11.0,12.0,32,0.00,,SKC,0.00,VWS V14.01,2013-03-03 21:10:00,
2013-03-03 15:11:00,54.5,25.3,30.12,NNW,346,8.0,12.0,32,0.00,,SKC,0.00,VWS V14.01,2013-03-03 21:11:00,
2013-03-03 15:12:00,54.4,25.2,30.13,West,279,7.0,12.0,32,0.00,,SKC,0.00,VWS V14.01,2013-03-03 21:12:00,
2013-03-03 15:13:00,54.3,25.1,30.13,NW,311,6.0,12.0,32,0.00,,SKC,0.00,VWS V14.01,2013-03-03 21:13:00,
2013-03-03 15:14:00,54.3,25.1,30.13,NNW,334,6.0,12.0,32,0.00,,SKC,0.00,VWS V14.01,2013-03-03 21:14:00,
2013-03-03 15:15:00,54.3,25.8,30.13,NNW,330,6.0,12.0,33,0.00,,SKC,0.00,VWS V14.01,2013-03-03 21:15:00,
2013-03-03 15:16:00,54.2,25.0,30.13,North,350,2.0,12.0,32,0.00,,SKC,0.00,VWS V14.01,2013-03-03 21:16:00,
2013-03-03 15:17:00,54.2,26.5,30.13,NNW,337,4.0,12.0,34,0.00,,SKC,0.00,VWS V14.01,2013-03-03 21:17:00,
2013-03-03 15:18:00,54.2,26.5,30.13,NW,326,3.0,12.0,34,0.00,,SKC,0.00,VWS V14.01,2013-03-03 21:18:00,
2013-03-03 15:19:00,54.4,27.3,30.13,NW,310,4.0,12.0,35,0.00,,SKC,0.00,VWS V14.01,2013-03-03 21:19:00,
2013-03-03 15:20:00,54.5,27.4,30.13,NW,305,5.0,12.0,35,0.00,,SKC,0.00,VWS V14.01,2013-03-03 21:20:00,
2013-03-03 15:21:00,54.6,28.2,30.13,WNW,299,1.0,12.0,36,0.00,,SKC,0.00,VWS V14.01,2013-03-03 21:21:00,
2013-03-03 15:22:00,54.8,28.4,30.13,WNW,298,5.0,12.0,36,0.00,,SKC,0.00,VWS V14.01,2013-03-03 21:22:00,
2013-03-03 15:23:00,54.9,27.8,30.13,WNW,288,0.0,12.0,35,0.00,,SKC,0.00,VWS V14.01,2013-03-03 21:23:00,
2013-03-03 15:24:00,55.0,27.9,30.13,WNW,289,3.0,12.0,35,0.00,,SKC,0.00,VWS V14.01,2013-03-03 21:24:00,
2013-03-03 15:25:00,55.1,28.0,30.13,WNW,288,1.0,12.0,35,0.00,,SKC,0.00,VWS V14.01,2013-03-03 21:25:00,
2013-03-03 15:26:00,55.1,28.6,30.13,WNW,288,2.0,12.0,36,0.00,,SKC,0.00,VWS V14.01,2013-03-03 21:26:00,
2013-03-03 15:27:00,55.2,28.0,30.13,West,270,4.0,12.0,35,0.00,,SKC,0.00,VWS V14.01,2013-03-03 21:27:00,
2013-03-03 15:28:00,55.2,27.3,30.13,SW,228,6.0,12.0,34,0.00,,SKC,0.00,VWS V14.01,2013-03-03 21:28:00,
2013-03-03 15:29:00,55.1,26.5,30.13,SW,221,4.0,12.0,33,0.00,,SKC,0.00,VWS V14.01,2013-03-03 21:29:00,
2013-03-03 15:30:00,54.9,29.1,30.13,West,269,0.0,12.0,37,0.00,,SKC,0.00,VWS V14.01,2013-03-03 21:30:00,
2013-03-03 15:31:00,54.8,30.3,30.13,West,262,1.0,6.0,39,0.00,,SKC,0.00,VWS V14.01,2013-03-03 21:31:00,
2013-03-03 15:32:00,54.6,30.2,30.13,West,262,0.0,6.0,39,0.00,,SKC,0.00,VWS V14.01,2013-03-03 21:32:00,
2013-03-03 15:33:00,54.5,30.7,30.13,West,280,4.0,6.0,40,0.00,,SKC,0.00,VWS V14.01,2013-03-03 21:33:00,
2013-03-03 15:34:00,54.4,30.6,30.13,West,280,2.0,6.0,40,0.00,,SKC,0.00,VWS V14.01,2013-03-03 21:34:00,
2013-03-03 15:35:00,54.4,30.6,30.13,SSW,200,3.0,7.0,40,0.00,,SKC,0.00,VWS V14.01,2013-03-03 21:35:00,
2013-03-03 15:36:00,54.2,30.4,30.13,SSW,200,4.0,7.0,40,0.00,,SKC,0.00,VWS V14.01,2013-03-03 21:36:00,
2013-03-03 15:37:00,54.1,30.9,30.13,SW,233,1.0,7.0,41,0.00,,SKC,0.00,VWS V14.01,2013-03-03 21:37:00,
2013-03-03 15:38:00,54.0,30.9,30.13,West,267,1.0,7.0,41,0.00,,SKC,0.00,VWS V14.01,2013-03-03 21:38:00,
2013-03-03 15:39:00,53.9,31.4,30.13,West,269,5.0,7.0,42,0.00,,SKC,0.00,VWS V14.01,2013-03-03 21:39:00,
2013-03-03 15:40:00,53.9,31.4,30.13,West,269,0.0,7.0,42,0.00,,SKC,0.00,VWS V14.01,2013-03-03 21:40:00,
2013-03-03 15:41:00,53.9,31.4,30.13,SW,221,3.0,7.0,42,0.00,,SKC,0.00,VWS V14.01,2013-03-03 21:41:00,
2013-03-03 15:42:00,53.8,31.3,30.14,SW,227,0.0,7.0,42,0.00,,SKC,0.00,VWS V14.01,2013-03-03 21:42:00,
2013-03-03 15:43:00,53.7,31.2,30.14,SW,227,2.0,7.0,42,0.00,,SKC,0.00,VWS V14.01,2013-03-03 21:43:00,
2013-03-03 15:44:00,53.6,31.1,30.14,West,265,4.0,7.0,42,0.00,,SKC,0.00,VWS V14.01,2013-03-03 21:44:00,
2013-03-03 15:45:00,53.6,31.1,30.14,West,265,0.0,7.0,42,0.00,,SKC,0.00,VWS V14.01,2013-03-03 21:45:00,
2013-03-03 15:46:00,53.6,31.7,30.14,West,265,0.0,7.0,43,0.00,,SKC,0.00,VWS V14.01,2013-03-03 21:46:00,
2013-03-03 15:47:00,53.5,31.6,30.14,West,265,0.0,7.0,43,0.00,,SKC,0.00,VWS V14.01,2013-03-03 21:47:00,
2013-03-03 15:48:00,53.5,31.6,30.14,NW,304,4.0,7.0,43,0.00,,SKC,0.00,VWS V14.01,2013-03-03 21:48:00,
2013-03-03 15:49:00,53.5,31.0,30.14,WNW,303,1.0,7.0,42,0.00,,SKC,0.00,VWS V14.01,2013-03-03 21:49:00,
2013-03-03 15:50:00,53.6,31.1,30.14,WNW,303,0.0,7.0,42,0.00,,SKC,0.00,VWS V14.01,2013-03-03 21:50:00,
2013-03-03 15:51:00,53.7,31.2,30.14,WNW,302,0.0,7.0,42,0.00,,SKC,0.00,VWS V14.01,2013-03-03 21:51:00,
2013-03-03 15:52:00,53.7,31.2,30.14,WNW,303,1.0,7.0,42,0.00,,SKC,0.00,VWS V14.01,2013-03-03 21:52:00,
2013-03-03 15:53:00,53.7,31.8,30.14,WNW,302,2.0,7.0,43,0.00,,SKC,0.00,VWS V14.01,2013-03-03 21:53:00,
2013-03-03 15:54:00,53.6,31.7,30.14,WNW,288,4.0,7.0,43,0.00,,SKC,0.00,VWS V14.01,2013-03-03 21:54:00,
2013-03-03 15:55:00,53.5,31.6,30.14,West,275,0.0,7.0,43,0.00,,SKC,0.00,VWS V14.01,2013-03-03 21:55:00,
2013-03-03 15:56:00,53.5,31.6,30.14,West,265,8.0,8.0,43,0.00,,SKC,0.00,VWS V14.01,2013-03-03 21:56:00,
2013-03-03 15:57:00,53.3,31.4,30.14,SW,229,6.0,8.0,43,0.00,,SKC,0.00,VWS V14.01,2013-03-03 21:57:00,
2013-03-03 15:58:00,53.1,31.2,30.14,SSW,212,8.0,8.0,43,0.00,,SKC,0.00,VWS V14.01,2013-03-03 21:58:00,
2013-03-03 15:59:00,52.8,31.5,30.14,SW,225,1.0,8.0,44,0.00,,SKC,0.00,VWS V14.01,2013-03-03 21:59:00,
2013-03-03 16:00:00,52.6,31.3,30.14,SW,227,0.0,8.0,44,0.00,,SKC,0.00,VWS V14.01,2013-03-03 22:00:00,
2013-03-03 16:01:00,52.4,31.7,30.14,WSW,246,1.0,5.0,45,0.00,,SKC,0.00,VWS V14.01,2013-03-03 22:01:00,
2013-03-03 16:02:00,52.3,31.0,30.14,WSW,239,2.0,5.0,44,0.00,,SKC,0.00,VWS V14.01,2013-03-03 22:02:00,
2013-03-03 16:03:00,52.1,31.4,30.14,SW,230,5.0,5.0,45,0.00,,SKC,0.00,VWS V14.01,2013-03-03 22:03:00,
2013-03-03 16:04:00,51.9,31.2,30.14,SW,231,7.0,7.0,45,0.00,,SKC,0.00,VWS V14.01,2013-03-03 22:04:00,
2013-03-03 16:05:00,51.8,31.1,30.14,SW,217,5.0,7.0,45,0.00,,SKC,0.00,VWS V14.01,2013-03-03 22:05:00,
2013-03-03 16:06:00,51.5,30.9,30.14,SSW,212,6.0,7.0,45,0.00,,SKC,0.00,VWS V14.01,2013-03-03 22:06:00,
2013-03-03 16:07:00,51.3,30.7,30.14,SSW,213,3.0,7.0,45,0.00,,SKC,0.00,VWS V14.01,2013-03-03 22:07:00,
2013-03-03 16:08:00,51.0,31.0,30.14,SSW,213,2.0,7.0,46,0.00,,SKC,0.00,VWS V14.01,2013-03-03 22:08:00,
2013-03-03 16:09:00,50.9,30.9,30.14,SSW,213,1.0,7.0,46,0.00,,SKC,0.00,VWS V14.01,2013-03-03 22:09:00,
2013-03-03 16:10:00,50.7,30.7,30.14,SW,219,4.0,7.0,46,0.00,,SKC,0.00,VWS V14.01,2013-03-03 22:10:00,
2013-03-03 16:11:00,50.6,30.6,30.14,SW,219,1.0,7.0,46,0.00,,SKC,0.00,VWS V14.01,2013-03-03 22:11:00,
2013-03-03 16:12:00,50.4,30.4,30.14,SW,219,0.0,7.0,46,0.00,,SKC,0.00,VWS V14.01,2013-03-03 22:12:00,
2013-03-03 16:13:00,50.4,31.0,30.14,WSW,247,5.0,7.0,47,0.00,,SKC,0.00,VWS V14.01,2013-03-03 22:13:00,
2013-03-03 16:14:00,50.3,30.3,30.14,SSW,206,3.0,9.0,46,0.00,,SKC,0.00,VWS V14.01,2013-03-03 22:14:00,
2013-03-03 16:15:00,50.1,30.1,30.14,SW,225,0.0,9.0,46,0.00,,SKC,0.00,VWS V14.01,2013-03-03 22:15:00,
2013-03-03 16:16:00,50.0,30.6,30.14,SW,228,1.0,9.0,47,0.00,,SKC,0.00,VWS V14.01,2013-03-03 22:16:00,
2013-03-03 16:17:00,49.9,31.0,30.14,SW,228,1.0,9.0,48,0.00,,SKC,0.00,VWS V14.01,2013-03-03 22:17:00,
2013-03-03 16:18:00,49.8,30.9,30.14,SW,230,5.0,9.0,48,0.00,,SKC,0.00,VWS V14.01,2013-03-03 22:18:00,
2013-03-03 16:19:00,49.6,30.2,30.14,SW,217,5.0,9.0,47,0.00,,SKC,0.00,VWS V14.01,2013-03-03 22:19:00,
2013-03-03 16:20:00,49.4,30.0,30.14,SW,219,6.0,9.0,47,0.00,,SKC,0.00,VWS V14.01,2013-03-03 22:20:00,
2013-03-03 16:21:00,49.3,29.9,30.14,SW,227,3.0,9.0,47,0.00,,SKC,0.00,VWS V14.01,2013-03-03 22:21:00,
2013-03-03 16:22:00,49.1,29.8,30.14,West,270,4.0,9.0,47,0.00,,SKC,0.00,VWS V14.01,2013-03-03 22:22:00,
2013-03-03 16:23:00,48.9,30.1,30.14,WSW,242,2.0,9.0,48,0.00,,SKC,0.00,VWS V14.01,2013-03-03 22:23:00,
2013-03-03 16:24:00,48.8,30.0,30.14,WSW,242,0.0,9.0,48,0.00,,SKC,0.00,VWS V14.01,2013-03-03 22:24:00,
2013-03-03 16:25:00,48.7,29.9,30.14,SW,236,1.0,9.0,48,0.00,,SKC,0.00,VWS V14.01,2013-03-03 22:25:00,
2013-03-03 16:26:00,48.5,29.7,30.14,SW,236,0.0,9.0,48,0.00,,SKC,0.00,VWS V14.01,2013-03-03 22:26:00,
2013-03-03 16:27:00,48.5,30.2,30.14,SW,236,1.0,9.0,49,0.00,,SKC,0.00,VWS V14.01,2013-03-03 22:27:00,
2013-03-03 16:28:00,48.3,30.0,30.14,SW,236,3.0,9.0,49,0.00,,SKC,0.00,VWS V14.01,2013-03-03 22:28:00,
2013-03-03 16:29:00,48.2,30.0,30.15,SW,236,0.0,9.0,49,0.00,,SKC,0.00,VWS V14.01,2013-03-03 22:29:00,
2013-03-03 16:30:00,48.2,30.0,30.15,SW,236,5.0,9.0,49,0.00,,SKC,0.00,VWS V14.01,2013-03-03 22:30:00,
2013-03-03 16:31:00,48.1,29.4,30.15,SW,236,2.0,5.0,48,0.00,,SKC,0.00,VWS V14.01,2013-03-03 22:31:00,
2013-03-03 16:32:00,48.0,29.8,30.15,SW,236,0.0,5.0,49,0.00,,SKC,0.00,VWS V14.01,2013-03-03 22:32:00,
2013-03-03 16:33:00,47.9,29.7,30.15,SW,236,0.0,5.0,49,0.00,,SKC,0.00,VWS V14.01,2013-03-03 22:33:00,
2013-03-03 16:34:00,47.9,29.7,30.15,SW,236,0.0,5.0,49,0.00,,SKC,0.00,VWS V14.01,2013-03-03 22:34:00,
2013-03-03 16:35:00,47.8,29.6,30.15,SW,236,1.0,5.0,49,0.00,,SKC,0.00,VWS V14.01,2013-03-03 22:35:00,
2013-03-03 16:36:00,47.7,30.0,30.15,SW,236,1.0,5.0,50,0.00,,SKC,0.00,VWS V14.01,2013-03-03 22:36:00,
2013-03-03 16:37:00,47.7,30.0,30.15,SW,236,2.0,5.0,50,0.00,,SKC,0.00,VWS V14.01,2013-03-03 22:37:00,
2013-03-03 16:38:00,47.6,29.9,30.15,SW,236,0.0,5.0,50,0.00,,SKC,0.00,VWS V14.01,2013-03-03 22:38:00,
2013-03-03 16:39:00,47.5,29.8,30.14,SW,236,0.0,5.0,50,0.00,,SKC,0.00,VWS V14.01,2013-03-03 22:39:00,
2013-03-03 16:40:00,47.5,30.3,30.15,SW,236,0.0,5.0,51,0.00,,SKC,0.00,VWS V14.01,2013-03-03 22:40:00,
2013-03-03 16:41:00,47.4,30.2,30.14,SW,236,0.0,5.0,51,0.00,,SKC,0.00,VWS V14.01,2013-03-03 22:41:00,
2013-03-03 16:42:00,47.4,30.7,30.14,SW,236,3.0,5.0,52,0.00,,SKC,0.00,VWS V14.01,2013-03-03 22:42:00,
2013-03-03 16:43:00,47.3,30.6,30.15,SW,236,0.0,5.0,52,0.00,,SKC,0.00,VWS V14.01,2013-03-03 22:43:00,
2013-03-03 16:44:00,47.3,30.6,30.15,SW,236,0.0,5.0,52,0.00,,SKC,0.00,VWS V14.01,2013-03-03 22:44:00,
2013-03-03 16:45:00,47.2,30.5,30.15,SW,236,1.0,5.0,52,0.00,,SKC,0.00,VWS V14.01,2013-03-03 22:45:00,
2013-03-03 16:46:00,47.2,30.5,30.14,SW,236,0.0,5.0,52,0.00,,SKC,0.00,VWS V14.01,2013-03-03 22:46:00,
2013-03-03 16:47:00,47.1,30.9,30.14,SW,236,1.0,5.0,53,0.00,,SKC,0.00,VWS V14.01,2013-03-03 22:47:00,
2013-03-03 16:48:00,47.0,30.8,30.14,SW,236,0.0,5.0,53,0.00,,SKC,0.00,VWS V14.01,2013-03-03 22:48:00,
2013-03-03 16:49:00,47.0,30.8,30.14,SW,236,0.0,5.0,53,0.00,,SKC,0.00,VWS V14.01,2013-03-03 22:49:00,
2013-03-03 16:50:00,46.9,31.1,30.14,SW,236,0.0,5.0,54,0.00,,SKC,0.00,VWS V14.01,2013-03-03 22:50:00,
2013-03-03 16:51:00,46.9,31.1,30.14,SW,236,0.0,5.0,54,0.00,,SKC,0.00,VWS V14.01,2013-03-03 22:51:00,
2013-03-03 16:52:00,46.9,31.1,30.14,SW,236,0.0,5.0,54,0.00,,SKC,0.00,VWS V14.01,2013-03-03 22:52:00,
2013-03-03 16:53:00,46.8,31.0,30.14,SW,236,0.0,5.0,54,0.00,,SKC,0.00,VWS V14.01,2013-03-03 22:53:00,
2013-03-03 16:54:00,46.7,31.0,30.14,SW,236,0.0,5.0,54,0.00,,SKC,0.00,VWS V14.01,2013-03-03 22:54:00,
2013-03-03 16:55:00,46.7,31.4,30.14,SW,236,0.0,5.0,55,0.00,,SKC,0.00,VWS V14.01,2013-03-03 22:55:00,
2013-03-03 16:56:00,46.7,31.4,30.14,SW,236,0.0,5.0,55,0.00,,SKC,0.00,VWS V14.01,2013-03-03 22:56:00,
2013-03-03 16:57:00,46.6,31.8,30.14,SW,236,0.0,5.0,56,0.00,,SKC,0.00,VWS V14.01,2013-03-03 22:57:00,
2013-03-03 16:58:00,46.5,31.7,30.14,SW,236,0.0,5.0,56,0.00,,SKC,0.00,VWS V14.01,2013-03-03 22:58:00,
2013-03-03 16:59:00,46.5,32.1,30.14,SW,236,0.0,5.0,57,0.00,,SKC,0.00,VWS V14.01,2013-03-03 22:59:00,
2013-03-03 17:00:00,46.4,32.4,30.14,SW,236,0.0,5.0,58,0.00,,SKC,0.00,VWS V14.01,2013-03-03 23:00:00,
2013-03-03 17:01:00,46.3,32.8,30.14,SW,236,0.0,0.0,59,0.00,,SKC,0.00,VWS V14.01,2013-03-03 23:01:00,
2013-03-03 17:02:00,46.3,32.8,30.14,SW,236,0.0,0.0,59,0.00,,SKC,0.00,VWS V14.01,2013-03-03 23:02:00,
2013-03-03 17:03:00,46.1,32.6,30.14,SW,236,0.0,0.0,59,0.00,,SKC,0.00,VWS V14.01,2013-03-03 23:03:00,
2013-03-03 17:04:00,46.0,32.5,30.14,SW,236,0.0,0.0,59,0.00,,SKC,0.00,VWS V14.01,2013-03-03 23:04:00,
2013-03-03 17:05:00,46.0,33.7,30.14,SW,236,0.0,0.0,62,0.00,,SKC,0.00,VWS V14.01,2013-03-03 23:05:00,
2013-03-03 17:06:00,45.8,33.1,30.14,SW,236,0.0,0.0,61,0.00,,SKC,0.00,VWS V14.01,2013-03-03 23:06:00,
2013-03-03 17:07:00,45.7,33.4,30.14,SW,236,0.0,0.0,62,0.00,,SKC,0.00,VWS V14.01,2013-03-03 23:07:00,
2013-03-03 17:08:00,45.6,33.8,30.15,SW,236,0.0,0.0,63,0.00,,SKC,0.00,VWS V14.01,2013-03-03 23:08:00,
2013-03-03 17:09:00,45.5,33.7,30.15,SW,236,0.0,0.0,63,0.00,,SKC,0.00,VWS V14.01,2013-03-03 23:09:00,
2013-03-03 17:10:00,45.4,33.6,30.15,SW,236,0.0,0.0,63,0.00,,SKC,0.00,VWS V14.01,2013-03-03 23:10:00,
2013-03-03 17:11:00,45.2,33.8,30.15,SW,236,0.0,0.0,64,0.00,,SKC,0.00,VWS V14.01,2013-03-03 23:11:00,
2013-03-03 17:12:00,45.1,33.7,30.15,SW,236,0.0,0.0,64,0.00,,SKC,0.00,VWS V14.01,2013-03-03 23:12:00,
2013-03-03 17:13:00,44.9,33.9,30.15,SW,236,0.0,0.0,65,0.00,,SKC,0.00,VWS V14.01,2013-03-03 23:13:00,
2013-03-03 17:14:00,44.8,33.8,30.15,SW,236,0.0,0.0,65,0.00,,SKC,0.00,VWS V14.01,2013-03-03 23:14:00,
2013-03-03 17:15:00,44.7,34.0,30.15,SW,236,0.0,0.0,66,0.00,,SKC,0.00,VWS V14.01,2013-03-03 23:15:00,
2013-03-03 17:16:00,44.6,34.0,30.15,SW,236,0.0,1.0,66,0.00,,SKC,0.00,VWS V14.01,2013-03-03 23:16:00,
2013-03-03 17:17:00,44.4,34.1,30.15,SW,236,0.0,1.0,67,0.00,,SKC,0.00,VWS V14.01,2013-03-03 23:17:00,
2013-03-03 17:18:00,44.3,34.0,30.15,SW,236,0.0,1.0,67,0.00,,SKC,0.00,VWS V14.01,2013-03-03 23:18:00,
2013-03-03 17:19:00,44.2,34.0,30.15,SW,236,0.0,1.0,67,0.00,,SKC,0.00,VWS V14.01,2013-03-03 23:19:00,
2013-03-03 17:20:00,44.1,34.2,30.15,SW,236,0.0,1.0,68,0.00,,SKC,0.00,VWS V14.01,2013-03-03 23:20:00,
2013-03-03 17:21:00,43.9,34.0,30.15,SW,236,0.0,1.0,68,0.00,,SKC,0.00,VWS V14.01,2013-03-03 23:21:00,
2013-03-03 17:22:00,43.8,33.6,30.15,SW,236,0.0,1.0,67,0.00,,SKC,0.00,VWS V14.01,2013-03-03 23:22:00,
2013-03-03 17:23:00,43.7,33.8,30.15,SW,236,0.0,1.0,68,0.00,,SKC,0.00,VWS V14.01,2013-03-03 23:23:00,
2013-03-03 17:24:00,43.6,33.8,30.15,SW,236,0.0,1.0,68,0.00,,SKC,0.00,VWS V14.01,2013-03-03 23:24:00,
2013-03-03 17:25:00,43.5,34.0,30.15,SW,236,0.0,1.0,69,0.00,,SKC,0.00,VWS V14.01,2013-03-03 23:25:00,
2013-03-03 17:26:00,43.4,33.9,30.15,SW,236,0.0,1.0,69,0.00,,SKC,0.00,VWS V14.01,2013-03-03 23:26:00,
2013-03-03 17:27:00,43.3,33.8,30.15,SW,236,0.0,1.0,69,0.00,,SKC,0.00,VWS V14.01,2013-03-03 23:27:00,
2013-03-03 17:28:00,43.2,33.7,30.15,SW,236,0.0,1.0,69,0.00,,SKC,0.00,VWS V14.01,2013-03-03 23:28:00,
2013-03-03 17:29:00,43.0,33.9,30.15,SW,236,0.0,1.0,70,0.00,,SKC,0.00,VWS V14.01,2013-03-03 23:29:00,
2013-03-03 17:30:00,42.9,34.2,30.15,SW,236,0.0,1.0,71,0.00,,SKC,0.00,VWS V14.01,2013-03-03 23:30:00,
2013-03-03 17:31:00,42.8,34.1,30.15,SW,236,0.0,0.0,71,0.00,,SKC,0.00,VWS V14.01,2013-03-03 23:31:00,
2013-03-03 17:32:00,42.7,34.0,30.15,SW,236,0.0,0.0,71,0.00,,SKC,0.00,VWS V14.01,2013-03-03 23:32:00,
2013-03-03 17:33:00,42.6,33.9,30.15,SW,236,0.0,0.0,71,0.00,,SKC,0.00,VWS V14.01,2013-03-03 23:33:00,
2013-03-03 17:34:00,42.4,33.7,30.15,SW,236,0.0,0.0,71,0.00,,SKC,0.00,VWS V14.01,2013-03-03 23:34:00,
2013-03-03 17:35:00,42.4,33.7,30.15,SW,236,0.0,0.0,71,0.00,,SKC,0.00,VWS V14.01,2013-03-03 23:35:00,
2013-03-03 17:36:00,42.2,33.5,30.15,SW,236,0.0,0.0,71,0.00,,SKC,0.00,VWS V14.01,2013-03-03 23:36:00,
2013-03-03 17:37:00,42.2,33.8,30.15,SW,236,0.0,0.0,72,0.00,,SKC,0.00,VWS V14.01,2013-03-03 23:37:00,
2013-03-03 17:38:00,42.0,33.6,30.15,SW,236,0.0,0.0,72,0.00,,SKC,0.00,VWS V14.01,2013-03-03 23:38:00,
2013-03-03 17:39:00,41.9,33.9,30.15,SW,236,0.0,0.0,73,0.00,,SKC,0.00,VWS V14.01,2013-03-03 23:39:00,
2013-03-03 17:40:00,41.8,33.8,30.15,SW,236,0.0,0.0,73,0.00,,SKC,0.00,VWS V14.01,2013-03-03 23:40:00,
2013-03-03 17:41:00,41.7,33.7,30.15,SW,236,0.0,0.0,73,0.00,,SKC,0.00,VWS V14.01,2013-03-03 23:41:00,
2013-03-03 17:42:00,41.6,33.9,30.15,SW,236,0.0,0.0,74,0.00,,SKC,0.00,VWS V14.01,2013-03-03 23:42:00,
2013-03-03 17:43:00,41.5,33.8,30.15,SW,236,0.0,0.0,74,0.00,,SKC,0.00,VWS V14.01,2013-03-03 23:43:00,
2013-03-03 17:44:00,41.4,34.1,30.15,SW,236,0.0,0.0,75,0.00,,SKC,0.00,VWS V14.01,2013-03-03 23:44:00,
2013-03-03 17:45:00,41.3,34.0,30.15,SW,236,0.0,0.0,75,0.00,,SKC,0.00,VWS V14.01,2013-03-03 23:45:00,
2013-03-03 17:46:00,41.2,33.9,30.15,SW,236,0.0,0.0,75,0.00,,SKC,0.00,VWS V14.01,2013-03-03 23:46:00,
2013-03-03 17:47:00,41.1,34.1,30.15,SW,236,0.0,0.0,76,0.00,,SKC,0.00,VWS V14.01,2013-03-03 23:47:00,
2013-03-03 17:48:00,41.1,34.1,30.15,SW,236,0.0,0.0,76,0.00,,SKC,0.00,VWS V14.01,2013-03-03 23:48:00,
2013-03-03 17:49:00,41.0,34.0,30.15,SW,236,0.0,0.0,76,0.00,,SKC,0.00,VWS V14.01,2013-03-03 23:49:00,
2013-03-03 17:50:00,40.9,33.9,30.15,SW,236,0.0,0.0,76,0.00,,SKC,0.00,VWS V14.01,2013-03-03 23:50:00,
2013-03-03 17:51:00,40.9,34.3,30.15,SW,236,0.0,0.0,77,0.00,,SKC,0.00,VWS V14.01,2013-03-03 23:51:00,
2013-03-03 17:52:00,40.8,34.2,30.15,SW,236,0.0,0.0,77,0.00,,SKC,0.00,VWS V14.01,2013-03-03 23:52:00,
2013-03-03 17:53:00,40.7,33.7,30.15,SW,236,0.0,0.0,76,0.00,,SKC,0.00,VWS V14.01,2013-03-03 23:53:00,
2013-03-03 17:54:00,40.7,33.7,30.15,SW,236,0.0,0.0,76,0.00,,SKC,0.00,VWS V14.01,2013-03-03 23:54:00,
2013-03-03 17:55:00,40.6,34.0,30.15,SW,236,0.0,0.0,77,0.00,,SKC,0.00,VWS V14.01,2013-03-03 23:55:00,
2013-03-03 17:56:00,40.6,34.0,30.15,SW,236,0.0,0.0,77,0.00,,SKC,0.00,VWS V14.01,2013-03-03 23:56:00,
2013-03-03 17:57:00,40.5,33.9,30.15,SW,236,0.0,0.0,77,0.00,,SKC,0.00,VWS V14.01,2013-03-03 23:57:00,
2013-03-03 17:58:00,40.4,34.1,30.15,SW,236,0.0,0.0,78,0.00,,SKC,0.00,VWS V14.01,2013-03-03 23:58:00,
2013-03-03 17:59:00,40.4,34.1,30.15,SW,236,0.0,0.0,78,0.00,,SKC,0.00,VWS V14.01,2013-03-03 23:59:00,
2013-03-03 18:00:00,40.3,34.0,30.15,SW,236,0.0,0.0,78,0.00,,SKC,0.00,VWS V14.01,2013-03-04 00:00:00,
2013-03-03 18:01:00,40.2,33.9,30.15,SW,236,0.0,0.0,78,0.00,,SKC,0.00,VWS V14.01,2013-03-04 00:01:00,
2013-03-03 18:02:00,40.1,33.8,30.15,SW,236,0.0,0.0,78,0.00,,SKC,0.00,VWS V14.01,2013-03-04 00:02:00,
2013-03-03 18:03:00,40.0,33.7,30.15,SW,236,0.0,0.0,78,0.00,,SKC,0.00,VWS V14.01,2013-03-04 00:03:00,
2013-03-03 18:04:00,40.0,34.0,30.15,SW,236,0.0,0.0,79,0.00,,SKC,0.00,VWS V14.01,2013-03-04 00:04:00,
2013-03-03 18:05:00,39.9,33.9,30.15,SW,236,0.0,0.0,79,0.00,,SKC,0.00,VWS V14.01,2013-03-04 00:05:00,
2013-03-03 18:06:00,39.8,33.8,30.15,SW,236,0.0,0.0,79,0.00,,SKC,0.00,VWS V14.01,2013-03-04 00:06:00,
2013-03-03 18:07:00,39.8,33.8,30.15,SW,236,0.0,0.0,79,0.00,,SKC,0.00,VWS V14.01,2013-03-04 00:07:00,
2013-03-03 18:08:00,39.7,33.7,30.15,SW,236,0.0,0.0,79,0.00,,SKC,0.00,VWS V14.01,2013-03-04 00:08:00,
2013-03-03 18:09:00,39.7,34.0,30.15,SW,236,0.0,0.0,80,0.00,,SKC,0.00,VWS V14.01,2013-03-04 00:09:00,
2013-03-03 18:10:00,39.6,34.0,30.15,SW,236,0.0,0.0,80,0.00,,SKC,0.00,VWS V14.01,2013-03-04 00:10:00,
2013-03-03 18:11:00,39.6,34.0,30.15,SW,236,0.0,0.0,80,0.00,,SKC,0.00,VWS V14.01,2013-03-04 00:11:00,
2013-03-03 18:12:00,39.5,34.2,30.15,SW,236,0.0,0.0,81,0.00,,SKC,0.00,VWS V14.01,2013-03-04 00:12:00,
2013-03-03 18:13:00,39.4,34.1,30.15,SW,236,0.0,0.0,81,0.00,,SKC,0.00,VWS V14.01,2013-03-04 00:13:00,
2013-03-03 18:14:00,39.4,34.1,30.15,SW,236,0.0,0.0,81,0.00,,SKC,0.00,VWS V14.01,2013-03-04 00:14:00,
2013-03-03 18:15:00,39.4,34.1,30.15,SW,236,0.0,0.0,81,0.00,,SKC,0.00,VWS V14.01,2013-03-04 00:15:00,
2013-03-03 18:16:00,39.3,34.0,30.15,SW,236,0.0,0.0,81,0.00,,SKC,0.00,VWS V14.01,2013-03-04 00:16:00,
2013-03-03 18:17:00,39.3,34.0,30.15,SW,236,0.0,0.0,81,0.00,,SKC,0.00,VWS V14.01,2013-03-04 00:17:00,
2013-03-03 18:18:00,39.3,34.0,30.15,SW,236,0.0,0.0,81,0.00,,SKC,0.00,VWS V14.01,2013-03-04 00:18:00,
2013-03-03 18:19:00,39.3,34.0,30.15,SW,236,0.0,0.0,81,0.00,,SKC,0.00,VWS V14.01,2013-03-04 00:19:00,
2013-03-03 18:20:00,39.2,33.9,30.15,SW,236,0.0,0.0,81,0.00,,SKC,0.00,VWS V14.01,2013-03-04 00:20:00,
2013-03-03 18:21:00,39.2,33.9,30.15,SW,236,0.0,0.0,81,0.00,,SKC,0.00,VWS V14.01,2013-03-04 00:21:00,
2013-03-03 18:22:00,39.2,34.2,30.15,SW,236,0.0,0.0,82,0.00,,SKC,0.00,VWS V14.01,2013-03-04 00:22:00,
2013-03-03 18:23:00,39.2,34.2,30.15,SW,236,0.0,0.0,82,0.00,,SKC,0.00,VWS V14.01,2013-03-04 00:23:00,
2013-03-03 18:24:00,39.1,34.1,30.15,SW,236,0.0,0.0,82,0.00,,SKC,0.00,VWS V14.01,2013-03-04 00:24:00,
2013-03-03 18:25:00,39.1,34.1,30.16,SW,236,0.0,0.0,82,0.00,,SKC,0.00,VWS V14.01,2013-03-04 00:25:00,
2013-03-03 18:26:00,39.1,34.1,30.16,SW,236,0.0,0.0,82,0.00,,SKC,0.00,VWS V14.01,2013-03-04 00:26:00,
2013-03-03 18:27:00,39.1,34.4,30.16,SW,236,0.0,0.0,83,0.00,,SKC,0.00,VWS V14.01,2013-03-04 00:27:00,
2013-03-03 18:28:00,39.1,34.4,30.16,SW,236,0.0,0.0,83,0.00,,SKC,0.00,VWS V14.01,2013-03-04 00:28:00,
2013-03-03 18:29:00,39.0,34.3,30.16,SW,236,0.0,0.0,83,0.00,,SKC,0.00,VWS V14.01,2013-03-04 00:29:00,
2013-03-03 18:30:00,39.0,34.3,30.16,SW,236,0.0,0.0,83,0.00,,SKC,0.00,VWS V14.01,2013-03-04 00:30:00,
2013-03-03 18:31:00,38.9,34.2,30.16,SW,236,0.0,0.0,83,0.00,,SKC,0.00,VWS V14.01,2013-03-04 00:31:00,
2013-03-03 18:32:00,38.9,34.2,30.16,SW,236,0.0,0.0,83,0.00,,SKC,0.00,VWS V14.01,2013-03-04 00:32:00,
2013-03-03 18:33:00,38.9,34.2,30.16,SW,236,0.0,0.0,83,0.00,,SKC,0.00,VWS V14.01,2013-03-04 00:33:00,
2013-03-03 18:34:00,38.9,34.2,30.16,SW,236,0.0,0.0,83,0.00,,SKC,0.00,VWS V14.01,2013-03-04 00:34:00,
2013-03-03 18:35:00,38.8,34.1,30.16,SW,236,0.0,0.0,83,0.00,,SKC,0.00,VWS V14.01,2013-03-04 00:35:00,
2013-03-03 18:36:00,38.8,34.1,30.16,SW,236,0.0,0.0,83,0.00,,SKC,0.00,VWS V14.01,2013-03-04 00:36:00,
2013-03-03 18:37:00,38.7,34.0,30.16,SW,236,0.0,0.0,83,0.00,,SKC,0.00,VWS V14.01,2013-03-04 00:37:00,
2013-03-03 18:38:00,38.6,33.9,30.16,SW,236,0.0,0.0,83,0.00,,SKC,0.00,VWS V14.01,2013-03-04 00:38:00,
2013-03-03 18:39:00,38.6,33.9,30.16,SW,236,0.0,0.0,83,0.00,,SKC,0.00,VWS V14.01,2013-03-04 00:39:00,
2013-03-03 18:40:00,38.5,33.8,30.16,SW,236,0.0,0.0,83,0.00,,SKC,0.00,VWS V14.01,2013-03-04 00:40:00,
2013-03-03 18:41:00,38.5,34.1,30.16,SW,236,0.0,0.0,84,0.00,,SKC,0.00,VWS V14.01,2013-03-04 00:41:00,
2013-03-03 18:42:00,38.4,34.0,30.16,SW,236,0.0,0.0,84,0.00,,SKC,0.00,VWS V14.01,2013-03-04 00:42:00,
2013-03-03 18:43:00,38.4,34.0,30.16,SW,236,0.0,0.0,84,0.00,,SKC,0.00,VWS V14.01,2013-03-04 00:43:00,
2013-03-03 18:44:00,38.4,34.0,30.16,SW,236,0.0,0.0,84,0.00,,SKC,0.00,VWS V14.01,2013-03-04 00:44:00,
2013-03-03 18:45:00,38.3,33.9,30.16,SW,236,0.0,0.0,84,0.00,,SKC,0.00,VWS V14.01,2013-03-04 00:45:00,
2013-03-03 18:46:00,38.3,34.2,30.16,SW,236,0.0,0.0,85,0.00,,SKC,0.00,VWS V14.01,2013-03-04 00:46:00,
2013-03-03 18:47:00,38.2,34.1,30.16,SW,236,0.0,0.0,85,0.00,,SKC,0.00,VWS V14.01,2013-03-04 00:47:00,
2013-03-03 18:48:00,38.2,34.1,30.16,SW,236,0.0,0.0,85,0.00,,SKC,0.00,VWS V14.01,2013-03-04 00:48:00,
2013-03-03 18:49:00,38.1,34.0,30.17,SW,236,0.0,0.0,85,0.00,,SKC,0.00,VWS V14.01,2013-03-04 00:49:00,
2013-03-03 18:50:00,38.0,33.9,30.17,SW,236,0.0,0.0,85,0.00,,SKC,0.00,VWS V14.01,2013-03-04 00:50:00,
2013-03-03 18:51:00,38.0,33.9,30.17,SW,236,0.0,0.0,85,0.00,,SKC,0.00,VWS V14.01,2013-03-04 00:51:00,
2013-03-03 18:52:00,38.0,33.9,30.17,SW,236,0.0,0.0,85,0.00,,SKC,0.00,VWS V14.01,2013-03-04 00:52:00,
2013-03-03 18:53:00,37.9,34.1,30.17,SW,236,0.0,0.0,86,0.00,,SKC,0.00,VWS V14.01,2013-03-04 00:53:00,
2013-03-03 18:54:00,37.8,34.0,30.17,SW,236,0.0,0.0,86,0.00,,SKC,0.00,VWS V14.01,2013-03-04 00:54:00,
2013-03-03 18:55:00,37.8,34.0,30.17,SW,236,0.0,0.0,86,0.00,,SKC,0.00,VWS V14.01,2013-03-04 00:55:00,
2013-03-03 18:56:00,37.8,34.0,30.17,SW,236,0.0,0.0,86,0.00,,SKC,0.00,VWS V14.01,2013-03-04 00:56:00,
2013-03-03 18:57:00,37.7,33.9,30.17,SW,236,0.0,0.0,86,0.00,,SKC,0.00,VWS V14.01,2013-03-04 00:57:00,
2013-03-03 18:58:00,37.7,33.9,30.16,SW,236,0.0,0.0,86,0.00,,SKC,0.00,VWS V14.01,2013-03-04 00:58:00,
2013-03-03 18:59:00,37.6,33.8,30.16,SW,236,0.0,0.0,86,0.00,,SKC,0.00,VWS V14.01,2013-03-04 00:59:00,
2013-03-03 19:00:00,37.6,33.8,30.16,SW,236,0.0,0.0,86,0.00,,SKC,0.00,VWS V14.01,2013-03-04 01:00:00,
2013-03-03 19:01:00,37.6,33.8,30.17,SW,236,0.0,0.0,86,0.00,,SKC,0.00,VWS V14.01,2013-03-04 01:01:00,
2013-03-03 19:02:00,37.5,33.7,30.16,SW,236,0.0,0.0,86,0.00,,SKC,0.00,VWS V14.01,2013-03-04 01:02:00,
2013-03-03 19:03:00,37.5,33.7,30.17,SW,236,0.0,0.0,86,0.00,,SKC,0.00,VWS V14.01,2013-03-04 01:03:00,
2013-03-03 19:04:00,37.4,33.9,30.17,SW,236,0.0,0.0,87,0.00,,SKC,0.00,VWS V14.01,2013-03-04 01:04:00,
2013-03-03 19:05:00,37.4,33.9,30.17,SW,236,0.0,0.0,87,0.00,,SKC,0.00,VWS V14.01,2013-03-04 01:05:00,
2013-03-03 19:06:00,37.3,33.8,30.17,SW,236,0.0,0.0,87,0.00,,SKC,0.00,VWS V14.01,2013-03-04 01:06:00,
2013-03-03 19:07:00,37.3,33.8,30.17,SW,236,0.0,0.0,87,0.00,,SKC,0.00,VWS V14.01,2013-03-04 01:07:00,
2013-03-03 19:08:00,37.3,33.8,30.16,SW,236,0.0,0.0,87,0.00,,SKC,0.00,VWS V14.01,2013-03-04 01:08:00,
2013-03-03 19:09:00,37.3,33.8,30.16,SW,236,0.0,0.0,87,0.00,,SKC,0.00,VWS V14.01,2013-03-04 01:09:00,
2013-03-03 19:10:00,37.2,34.0,30.17,SW,236,0.0,0.0,88,0.00,,SKC,0.00,VWS V14.01,2013-03-04 01:10:00,
2013-03-03 19:11:00,37.2,34.0,30.17,SW,236,0.0,0.0,88,0.00,,SKC,0.00,VWS V14.01,2013-03-04 01:11:00,
2013-03-03 19:12:00,37.2,34.0,30.17,SW,236,0.0,0.0,88,0.00,,SKC,0.00,VWS V14.01,2013-03-04 01:12:00,
2013-03-03 19:13:00,37.2,34.0,30.16,SW,236,0.0,0.0,88,0.00,,SKC,0.00,VWS V14.01,2013-03-04 01:13:00,
2013-03-03 19:14:00,37.2,34.3,30.17,SW,236,0.0,0.0,89,0.00,,SKC,0.00,VWS V14.01,2013-03-04 01:14:00,
2013-03-03 19:15:00,37.2,34.3,30.17,SW,236,0.0,0.0,89,0.00,,SKC,0.00,VWS V14.01,2013-03-04 01:15:00,
2013-03-03 19:16:00,37.2,34.3,30.17,SW,236,0.0,0.0,89,0.00,,SKC,0.00,VWS V14.01,2013-03-04 01:16:00,
2013-03-03 19:17:00,37.2,34.3,30.17,SW,236,0.0,0.0,89,0.00,,SKC,0.00,VWS V14.01,2013-03-04 01:17:00,
2013-03-03 19:18:00,37.2,34.3,30.17,SW,236,0.0,0.0,89,0.00,,SKC,0.00,VWS V14.01,2013-03-04 01:18:00,
2013-03-03 19:19:00,37.2,34.5,30.17,SW,236,0.0,0.0,90,0.00,,SKC,0.00,VWS V14.01,2013-03-04 01:19:00,
2013-03-03 19:20:00,37.2,34.5,30.17,SW,236,0.0,0.0,90,0.00,,SKC,0.00,VWS V14.01,2013-03-04 01:20:00,
2013-03-03 19:21:00,37.1,34.4,30.17,SW,236,0.0,0.0,90,0.00,,SKC,0.00,VWS V14.01,2013-03-04 01:21:00,
2013-03-03 19:22:00,37.1,34.4,30.17,SW,236,0.0,0.0,90,0.00,,SKC,0.00,VWS V14.01,2013-03-04 01:22:00,
2013-03-03 19:23:00,37.1,34.4,30.17,SW,236,0.0,0.0,90,0.00,,SKC,0.00,VWS V14.01,2013-03-04 01:23:00,
2013-03-03 19:24:00,37.1,34.4,30.17,SW,236,0.0,0.0,90,0.00,,SKC,0.00,VWS V14.01,2013-03-04 01:24:00,
2013-03-03 19:25:00,37.1,34.4,30.17,SW,236,0.0,0.0,90,0.00,,SKC,0.00,VWS V14.01,2013-03-04 01:25:00,
2013-03-03 19:26:00,37.1,34.4,30.17,SW,236,0.0,0.0,90,0.00,,SKC,0.00,VWS V14.01,2013-03-04 01:26:00,
2013-03-03 19:27:00,37.0,34.3,30.17,SW,236,0.0,0.0,90,0.00,,SKC,0.00,VWS V14.01,2013-03-04 01:27:00,
2013-03-03 19:28:00,37.0,34.3,30.17,SW,236,0.0,0.0,90,0.00,,SKC,0.00,VWS V14.01,2013-03-04 01:28:00,
2013-03-03 19:29:00,37.0,34.3,30.17,SW,236,0.0,0.0,90,0.00,,SKC,0.00,VWS V14.01,2013-03-04 01:29:00,
2013-03-03 19:30:00,36.9,34.2,30.17,SW,236,0.0,0.0,90,0.00,,SKC,0.00,VWS V14.01,2013-03-04 01:30:00,
2013-03-03 19:31:00,36.9,34.2,30.17,SW,236,0.0,0.0,90,0.00,,SKC,0.00,VWS V14.01,2013-03-04 01:31:00,
2013-03-03 19:32:00,36.9,34.2,30.17,SW,236,0.0,0.0,90,0.00,,SKC,0.00,VWS V14.01,2013-03-04 01:32:00,
2013-03-03 19:33:00,36.9,34.2,30.17,SW,236,0.0,0.0,90,0.00,,SKC,0.00,VWS V14.01,2013-03-04 01:33:00,
2013-03-03 19:34:00,36.8,34.2,30.17,SW,236,0.0,0.0,90,0.00,,SKC,0.00,VWS V14.01,2013-03-04 01:34:00,
2013-03-03 19:35:00,36.8,34.2,30.17,SW,236,0.0,0.0,90,0.00,,SKC,0.00,VWS V14.01,2013-03-04 01:35:00,
2013-03-03 19:36:00,36.8,34.4,30.17,SW,236,0.0,0.0,91,0.00,,SKC,0.00,VWS V14.01,2013-03-04 01:36:00,
2013-03-03 19:37:00,36.8,34.4,30.17,SW,236,0.0,0.0,91,0.00,,SKC,0.00,VWS V14.01,2013-03-04 01:37:00,
2013-03-03 19:38:00,36.9,34.5,30.17,SW,236,0.0,0.0,91,0.00,,SKC,0.00,VWS V14.01,2013-03-04 01:38:00,
2013-03-03 19:39:00,36.8,34.4,30.17,SW,236,0.0,0.0,91,0.00,,SKC,0.00,VWS V14.01,2013-03-04 01:39:00,
2013-03-03 19:40:00,36.9,34.5,30.17,SW,236,0.0,0.0,91,0.00,,SKC,0.00,VWS V14.01,2013-03-04 01:40:00,
2013-03-03 19:41:00,36.9,34.5,30.17,SW,236,0.0,0.0,91,0.00,,SKC,0.00,VWS V14.01,2013-03-04 01:41:00,
2013-03-03 19:42:00,36.9,34.5,30.17,SW,236,0.0,0.0,91,0.00,,SKC,0.00,VWS V14.01,2013-03-04 01:42:00,
2013-03-03 19:43:00,37.0,34.6,30.17,SW,236,0.0,0.0,91,0.00,,SKC,0.00,VWS V14.01,2013-03-04 01:43:00,
2013-03-03 19:44:00,37.1,34.7,30.17,SW,236,0.0,0.0,91,0.00,,SKC,0.00,VWS V14.01,2013-03-04 01:44:00,
2013-03-03 19:45:00,37.1,34.7,30.17,SW,236,0.0,0.0,91,0.00,,SKC,0.00,VWS V14.01,2013-03-04 01:45:00,
2013-03-03 19:46:00,37.3,35.2,30.17,SW,236,0.0,0.0,92,0.00,,SKC,0.00,VWS V14.01,2013-03-04 01:46:00,
2013-03-03 19:47:00,37.4,35.3,30.17,SW,236,0.0,0.0,92,0.00,,SKC,0.00,VWS V14.01,2013-03-04 01:47:00,
2013-03-03 19:48:00,37.4,35.3,30.17,SW,236,0.0,0.0,92,0.00,,SKC,0.00,VWS V14.01,2013-03-04 01:48:00,
2013-03-03 19:49:00,37.4,35.3,30.17,SW,236,0.0,0.0,92,0.00,,SKC,0.00,VWS V14.01,2013-03-04 01:49:00,
2013-03-03 19:50:00,37.4,35.3,30.17,SW,236,0.0,0.0,92,0.00,,SKC,0.00,VWS V14.01,2013-03-04 01:50:00,
2013-03-03 19:51:00,37.5,35.4,30.17,SW,236,0.0,0.0,92,0.00,,SKC,0.00,VWS V14.01,2013-03-04 01:51:00,
2013-03-03 19:52:00,37.5,35.4,30.17,SW,236,0.0,0.0,92,0.00,,SKC,0.00,VWS V14.01,2013-03-04 01:52:00,
2013-03-03 19:53:00,37.5,35.4,30.17,SW,236,0.0,0.0,92,0.00,,SKC,0.00,VWS V14.01,2013-03-04 01:53:00,
2013-03-03 19:54:00,37.5,35.4,30.17,SW,236,0.0,0.0,92,0.00,,SKC,0.00,VWS V14.01,2013-03-04 01:54:00,
2013-03-03 19:55:00,37.5,35.4,30.17,SW,236,0.0,0.0,92,0.00,,SKC,0.00,VWS V14.01,2013-03-04 01:55:00,
2013-03-03 19:56:00,37.5,35.4,30.17,SW,236,0.0,0.0,92,0.00,,SKC,0.00,VWS V14.01,2013-03-04 01:56:00,
2013-03-03 19:57:00,37.5,35.4,30.17,SW,236,0.0,0.0,92,0.00,,SKC,0.00,VWS V14.01,2013-03-04 01:57:00,
2013-03-03 19:58:00,37.5,35.4,30.17,SW,236,0.0,0.0,92,0.00,,SKC,0.00,VWS V14.01,2013-03-04 01:58:00,
2013-03-03 19:59:00,37.5,35.4,30.17,SW,236,0.0,0.0,92,0.00,,SKC,0.00,VWS V14.01,2013-03-04 01:59:00,
2013-03-03 20:00:00,37.5,35.4,30.17,SW,236,0.0,0.0,92,0.00,,SKC,0.00,VWS V14.01,2013-03-04 02:00:00,
2013-03-03 20:01:00,37.5,35.1,30.17,SW,236,0.0,0.0,91,0.00,,SKC,0.00,VWS V14.01,2013-03-04 02:01:00,
2013-03-03 20:02:00,37.4,35.0,30.18,SW,236,0.0,0.0,91,0.00,,SKC,0.00,VWS V14.01,2013-03-04 02:02:00,
2013-03-03 20:03:00,37.4,35.0,30.18,SW,236,0.0,0.0,91,0.00,,SKC,0.00,VWS V14.01,2013-03-04 02:03:00,
2013-03-03 20:04:00,37.4,35.0,30.17,SW,236,0.0,0.0,91,0.00,,SKC,0.00,VWS V14.01,2013-03-04 02:04:00,
2013-03-03 20:05:00,37.4,35.0,30.17,SW,236,0.0,0.0,91,0.00,,SKC,0.00,VWS V14.01,2013-03-04 02:05:00,
2013-03-03 20:06:00,37.3,34.9,30.17,SW,236,0.0,0.0,91,0.00,,SKC,0.00,VWS V14.01,2013-03-04 02:06:00,
2013-03-03 20:07:00,37.3,34.9,30.17,SW,236,0.0,0.0,91,0.00,,SKC,0.00,VWS V14.01,2013-03-04 02:07:00,
2013-03-03 20:08:00,37.3,34.9,30.17,SW,236,0.0,0.0,91,0.00,,SKC,0.00,VWS V14.01,2013-03-04 02:08:00,
2013-03-03 20:09:00,37.3,34.9,30.17,SW,236,0.0,0.0,91,0.00,,SKC,0.00,VWS V14.01,2013-03-04 02:09:00,
2013-03-03 20:10:00,37.3,34.9,30.17,SW,236,0.0,0.0,91,0.00,,SKC,0.00,VWS V14.01,2013-03-04 02:10:00,
2013-03-03 20:11:00,37.2,34.8,30.18,SW,236,0.0,0.0,91,0.00,,SKC,0.00,VWS V14.01,2013-03-04 02:11:00,
2013-03-03 20:12:00,37.2,34.8,30.17,SW,236,0.0,0.0,91,0.00,,SKC,0.00,VWS V14.01,2013-03-04 02:12:00,
2013-03-03 20:13:00,37.2,34.8,30.18,SW,236,0.0,0.0,91,0.00,,SKC,0.00,VWS V14.01,2013-03-04 02:13:00,
2013-03-03 20:14:00,37.1,34.7,30.18,SW,236,0.0,0.0,91,0.00,,SKC,0.00,VWS V14.01,2013-03-04 02:14:00,
2013-03-03 20:15:00,37.1,34.7,30.18,SW,236,0.0,0.0,91,0.00,,SKC,0.00,VWS V14.01,2013-03-04 02:15:00,
2013-03-03 20:16:00,37.1,34.7,30.18,SW,236,0.0,0.0,91,0.00,,SKC,0.00,VWS V14.01,2013-03-04 02:16:00,
2013-03-03 20:17:00,37.0,34.6,30.18,SW,236,0.0,0.0,91,0.00,,SKC,0.00,VWS V14.01,2013-03-04 02:17:00,
2013-03-03 20:18:00,37.0,34.6,30.18,SW,236,0.0,0.0,91,0.00,,SKC,0.00,VWS V14.01,2013-03-04 02:18:00,
2013-03-03 20:19:00,37.0,34.6,30.18,SW,236,0.0,0.0,91,0.00,,SKC,0.00,VWS V14.01,2013-03-04 02:19:00,
2013-03-03 20:20:00,36.9,34.5,30.18,SW,236,0.0,0.0,91,0.00,,SKC,0.00,VWS V14.01,2013-03-04 02:20:00,
2013-03-03 20:21:00,36.9,34.5,30.18,SW,236,0.0,0.0,91,0.00,,SKC,0.00,VWS V14.01,2013-03-04 02:21:00,
2013-03-03 20:22:00,36.8,34.7,30.18,SW,236,0.0,0.0,92,0.00,,SKC,0.00,VWS V14.01,2013-03-04 02:22:00,
2013-03-03 20:23:00,36.8,34.7,30.18,SW,236,0.0,0.0,92,0.00,,SKC,0.00,VWS V14.01,2013-03-04 02:23:00,
2013-03-03 20:24:00,36.8,34.7,30.18,SW,236,0.0,0.0,92,0.00,,SKC,0.00,VWS V14.01,2013-03-04 02:24:00,
2013-03-03 20:25:00,36.8,34.7,30.18,SW,236,0.0,0.0,92,0.00,,SKC,0.00,VWS V14.01,2013-03-04 02:25:00,
2013-03-03 20:26:00,36.8,34.7,30.18,SW,236,0.0,0.0,92,0.00,,SKC,0.00,VWS V14.01,2013-03-04 02:26:00,
2013-03-03 20:27:00,36.8,34.7,30.18,SW,236,0.0,0.0,92,0.00,,SKC,0.00,VWS V14.01,2013-03-04 02:27:00,
2013-03-03 20:28:00,36.8,34.7,30.18,SW,236,0.0,0.0,92,0.00,,SKC,0.00,VWS V14.01,2013-03-04 02:28:00,
2013-03-03 20:29:00,36.8,34.7,30.18,SW,236,0.0,0.0,92,0.00,,SKC,0.00,VWS V14.01,2013-03-04 02:29:00,
2013-03-03 20:30:00,36.8,34.7,30.18,SW,236,0.0,0.0,92,0.00,,SKC,0.00,VWS V14.01,2013-03-04 02:30:00,
2013-03-03 20:31:00,36.8,34.7,30.18,SW,236,0.0,0.0,92,0.00,,SKC,0.00,VWS V14.01,2013-03-04 02:31:00,
2013-03-03 20:32:00,36.8,34.7,30.18,SW,236,0.0,0.0,92,0.00,,SKC,0.00,VWS V14.01,2013-03-04 02:32:00,
2013-03-03 20:33:00,36.7,34.6,30.18,SW,236,0.0,0.0,92,0.00,,SKC,0.00,VWS V14.01,2013-03-04 02:33:00,
2013-03-03 20:34:00,36.7,34.6,30.18,SW,236,0.0,0.0,92,0.00,,SKC,0.00,VWS V14.01,2013-03-04 02:34:00,
2013-03-03 20:35:00,36.7,34.6,30.18,SW,236,0.0,0.0,92,0.00,,SKC,0.00,VWS V14.01,2013-03-04 02:35:00,
2013-03-03 20:36:00,36.6,34.5,30.18,SW,236,0.0,0.0,92,0.00,,SKC,0.00,VWS V14.01,2013-03-04 02:36:00,
2013-03-03 20:37:00,36.6,34.5,30.18,SW,236,0.0,0.0,92,0.00,,SKC,0.00,VWS V14.01,2013-03-04 02:37:00,
2013-03-03 20:38:00,36.6,34.5,30.18,SW,236,0.0,0.0,92,0.00,,SKC,0.00,VWS V14.01,2013-03-04 02:38:00,
2013-03-03 20:39:00,36.5,34.4,30.18,SW,236,0.0,0.0,92,0.00,,SKC,0.00,VWS V14.01,2013-03-04 02:39:00,
2013-03-03 20:40:00,36.5,34.4,30.18,SW,236,0.0,0.0,92,0.00,,SKC,0.00,VWS V14.01,2013-03-04 02:40:00,
2013-03-03 20:41:00,36.5,34.4,30.18,SW,236,0.0,0.0,92,0.00,,SKC,0.00,VWS V14.01,2013-03-04 02:41:00,
2013-03-03 20:42:00,36.5,34.4,30.18,SW,236,0.0,0.0,92,0.00,,SKC,0.00,VWS V14.01,2013-03-04 02:42:00,
2013-03-03 20:43:00,36.5,34.4,30.18,SW,236,0.0,0.0,92,0.00,,SKC,0.00,VWS V14.01,2013-03-04 02:43:00,
2013-03-03 20:44:00,36.5,34.4,30.18,SW,236,0.0,0.0,92,0.00,,SKC,0.00,VWS V14.01,2013-03-04 02:44:00,
2013-03-03 20:45:00,36.5,34.4,30.18,SW,236,0.0,0.0,92,0.00,,SKC,0.00,VWS V14.01,2013-03-04 02:45:00,
2013-03-03 20:46:00,36.5,34.4,30.18,SW,236,0.0,0.0,92,0.00,,SKC,0.00,VWS V14.01,2013-03-04 02:46:00,
2013-03-03 20:47:00,36.5,34.4,30.18,SW,236,0.0,0.0,92,0.00,,SKC,0.00,VWS V14.01,2013-03-04 02:47:00,
2013-03-03 20:48:00,36.5,34.4,30.18,SW,236,0.0,0.0,92,0.00,,SKC,0.00,VWS V14.01,2013-03-04 02:48:00,
2013-03-03 20:49:00,36.4,34.3,30.18,SW,236,0.0,0.0,92,0.00,,SKC,0.00,VWS V14.01,2013-03-04 02:49:00,
2013-03-03 20:50:00,36.4,34.3,30.18,SW,236,0.0,0.0,92,0.00,,SKC,0.00,VWS V14.01,2013-03-04 02:50:00,
2013-03-03 20:51:00,36.4,34.3,30.18,SW,236,0.0,0.0,92,0.00,,SKC,0.00,VWS V14.01,2013-03-04 02:51:00,
2013-03-03 20:52:00,36.4,34.3,30.18,SW,236,0.0,0.0,92,0.00,,SKC,0.00,VWS V14.01,2013-03-04 02:52:00,
2013-03-03 20:53:00,36.4,34.3,30.18,SW,236,0.0,0.0,92,0.00,,SKC,0.00,VWS V14.01,2013-03-04 02:53:00,
2013-03-03 20:54:00,36.4,34.3,30.18,SW,236,0.0,0.0,92,0.00,,SKC,0.00,VWS V14.01,2013-03-04 02:54:00,
2013-03-03 20:55:00,36.3,34.2,30.18,SW,236,0.0,0.0,92,0.00,,SKC,0.00,VWS V14.01,2013-03-04 02:55:00,
2013-03-03 20:56:00,36.3,34.2,30.18,SW,236,0.0,0.0,92,0.00,,SKC,0.00,VWS V14.01,2013-03-04 02:56:00,
2013-03-03 20:57:00,36.3,34.2,30.18,SW,236,0.0,0.0,92,0.00,,SKC,0.00,VWS V14.01,2013-03-04 02:57:00,
2013-03-03 20:58:00,36.3,34.2,30.18,SW,236,0.0,0.0,92,0.00,,SKC,0.00,VWS V14.01,2013-03-04 02:58:00,
2013-03-03 20:59:00,36.2,34.1,30.18,SW,236,0.0,0.0,92,0.00,,SKC,0.00,VWS V14.01,2013-03-04 02:59:00,
2013-03-03 21:00:00,36.2,34.1,30.18,SW,236,0.0,0.0,92,0.00,,SKC,0.00,VWS V14.01,2013-03-04 03:00:00,
2013-03-03 21:01:00,36.2,34.1,30.18,SW,236,0.0,0.0,92,0.00,,SKC,0.00,VWS V14.01,2013-03-04 03:01:00,
2013-03-03 21:02:00,36.2,34.1,30.18,SW,236,0.0,0.0,92,0.00,,SKC,0.00,VWS V14.01,2013-03-04 03:02:00,
2013-03-03 21:03:00,36.1,34.0,30.18,SW,236,0.0,0.0,92,0.00,,SKC,0.00,VWS V14.01,2013-03-04 03:03:00,
2013-03-03 21:04:00,36.1,34.0,30.18,SW,236,0.0,0.0,92,0.00,,SKC,0.00,VWS V14.01,2013-03-04 03:04:00,
2013-03-03 21:05:00,36.0,33.9,30.18,SW,236,0.0,0.0,92,0.00,,SKC,0.00,VWS V14.01,2013-03-04 03:05:00,
2013-03-03 21:06:00,36.0,33.9,30.18,SW,236,0.0,0.0,92,0.00,,SKC,0.00,VWS V14.01,2013-03-04 03:06:00,
2013-03-03 21:07:00,36.0,33.9,30.18,SW,236,0.0,0.0,92,0.00,,SKC,0.00,VWS V14.01,2013-03-04 03:07:00,
2013-03-03 21:08:00,35.9,33.8,30.18,SW,236,0.0,0.0,92,0.00,,SKC,0.00,VWS V14.01,2013-03-04 03:08:00,
2013-03-03 21:09:00,35.9,33.8,30.18,SW,236,0.0,0.0,92,0.00,,SKC,0.00,VWS V14.01,2013-03-04 03:09:00,
2013-03-03 21:10:00,35.9,33.8,30.18,SW,236,0.0,0.0,92,0.00,,SKC,0.00,VWS V14.01,2013-03-04 03:10:00,
2013-03-03 21:11:00,35.8,33.7,30.18,SW,236,0.0,0.0,92,0.00,,SKC,0.00,VWS V14.01,2013-03-04 03:11:00,
2013-03-03 21:12:00,35.7,33.6,30.17,SW,236,0.0,0.0,92,0.00,,SKC,0.00,VWS V14.01,2013-03-04 03:12:00,
2013-03-03 21:13:00,35.7,33.6,30.18,SW,236,0.0,0.0,92,0.00,,SKC,0.00,VWS V14.01,2013-03-04 03:13:00,
2013-03-03 21:14:00,35.7,33.6,30.17,SW,236,0.0,0.0,92,0.00,,SKC,0.00,VWS V14.01,2013-03-04 03:14:00,
2013-03-03 21:15:00,35.7,33.6,30.17,SW,236,0.0,0.0,92,0.00,,SKC,0.00,VWS V14.01,2013-03-04 03:15:00,
2013-03-03 21:16:00,35.6,33.5,30.17,SW,236,0.0,0.0,92,0.00,,SKC,0.00,VWS V14.01,2013-03-04 03:16:00,
2013-03-03 21:17:00,35.7,33.6,30.17,SW,236,0.0,0.0,92,0.00,,SKC,0.00,VWS V14.01,2013-03-04 03:17:00,
2013-03-03 21:18:00,35.6,33.5,30.17,SW,236,0.0,0.0,92,0.00,,SKC,0.00,VWS V14.01,2013-03-04 03:18:00,
2013-03-03 21:19:00,35.6,33.5,30.17,SW,236,0.0,0.0,92,0.00,,SKC,0.00,VWS V14.01,2013-03-04 03:19:00,
2013-03-03 21:20:00,35.6,33.5,30.17,SW,236,0.0,0.0,92,0.00,,SKC,0.00,VWS V14.01,2013-03-04 03:20:00,
2013-03-03 21:21:00,35.6,33.5,30.17,SW,236,0.0,0.0,92,0.00,,SKC,0.00,VWS V14.01,2013-03-04 03:21:00,
2013-03-03 21:22:00,35.6,33.5,30.17,SW,236,0.0,0.0,92,0.00,,SKC,0.00,VWS V14.01,2013-03-04 03:22:00,
2013-03-03 21:23:00,35.5,33.4,30.18,SW,236,0.0,0.0,92,0.00,,SKC,0.00,VWS V14.01,2013-03-04 03:23:00,
2013-03-03 21:24:00,35.5,33.4,30.17,SW,236,0.0,0.0,92,0.00,,SKC,0.00,VWS V14.01,2013-03-04 03:24:00,
2013-03-03 21:25:00,35.5,33.4,30.17,SW,236,0.0,0.0,92,0.00,,SKC,0.00,VWS V14.01,2013-03-04 03:25:00,
2013-03-03 21:26:00,35.4,33.3,30.18,SW,236,0.0,0.0,92,0.00,,SKC,0.00,VWS V14.01,2013-03-04 03:26:00,
2013-03-03 21:27:00,35.4,33.3,30.18,SW,236,0.0,0.0,92,0.00,,SKC,0.00,VWS V14.01,2013-03-04 03:27:00,
2013-03-03 21:28:00,35.3,33.2,30.18,SW,236,0.0,0.0,92,0.00,,SKC,0.00,VWS V14.01,2013-03-04 03:28:00,
2013-03-03 21:29:00,35.3,33.2,30.17,SW,236,0.0,0.0,92,0.00,,SKC,0.00,VWS V14.01,2013-03-04 03:29:00,
2013-03-03 21:30:00,35.3,33.2,30.18,SW,236,0.0,0.0,92,0.00,,SKC,0.00,VWS V14.01,2013-03-04 03:30:00,
2013-03-03 21:31:00,35.3,33.2,30.18,SW,236,0.0,0.0,92,0.00,,SKC,0.00,VWS V14.01,2013-03-04 03:31:00,
2013-03-03 21:32:00,35.2,33.1,30.18,SW,236,0.0,0.0,92,0.00,,SKC,0.00,VWS V14.01,2013-03-04 03:32:00,
2013-03-03 21:33:00,35.2,33.1,30.18,SW,236,0.0,0.0,92,0.00,,SKC,0.00,VWS V14.01,2013-03-04 03:33:00,
2013-03-03 21:34:00,35.2,33.1,30.18,SW,236,0.0,0.0,92,0.00,,SKC,0.00,VWS V14.01,2013-03-04 03:34:00,
2013-03-03 21:35:00,35.2,33.1,30.18,SW,236,0.0,0.0,92,0.00,,SKC,0.00,VWS V14.01,2013-03-04 03:35:00,
2013-03-03 21:36:00,35.1,33.0,30.18,SW,236,0.0,0.0,92,0.00,,SKC,0.00,VWS V14.01,2013-03-04 03:36:00,
2013-03-03 21:37:00,35.1,33.0,30.18,SW,236,0.0,0.0,92,0.00,,SKC,0.00,VWS V14.01,2013-03-04 03:37:00,
2013-03-03 21:38:00,35.1,33.0,30.18,SW,236,0.0,0.0,92,0.00,,SKC,0.00,VWS V14.01,2013-03-04 03:38:00,
2013-03-03 21:39:00,35.0,32.9,30.18,SW,236,0.0,0.0,92,0.00,,SKC,0.00,VWS V14.01,2013-03-04 03:39:00,
2013-03-03 21:40:00,35.0,32.9,30.18,SW,236,0.0,0.0,92,0.00,,SKC,0.00,VWS V14.01,2013-03-04 03:40:00,
2013-03-03 21:41:00,35.0,32.9,30.17,SW,236,0.0,0.0,92,0.00,,SKC,0.00,VWS V14.01,2013-03-04 03:41:00,
2013-03-03 21:42:00,34.9,32.8,30.17,SW,236,0.0,0.0,92,0.00,,SKC,0.00,VWS V14.01,2013-03-04 03:42:00,
2013-03-03 21:43:00,34.9,32.8,30.17,SW,236,0.0,0.0,92,0.00,,SKC,0.00,VWS V14.01,2013-03-04 03:43:00,
2013-03-03 21:44:00,34.9,32.8,30.17,SW,236,0.0,0.0,92,0.00,,SKC,0.00,VWS V14.01,2013-03-04 03:44:00,
2013-03-03 21:45:00,34.9,32.8,30.17,SW,236,0.0,0.0,92,0.00,,SKC,0.00,VWS V14.01,2013-03-04 03:45:00,
2013-03-03 21:46:00,34.8,32.7,30.17,SW,236,0.0,0.0,92,0.00,,SKC,0.00,VWS V14.01,2013-03-04 03:46:00,
2013-03-03 21:47:00,34.8,32.7,30.17,SW,236,0.0,0.0,92,0.00,,SKC,0.00,VWS V14.01,2013-03-04 03:47:00,
2013-03-03 21:48:00,34.7,32.6,30.17,SW,236,0.0,0.0,92,0.00,,SKC,0.00,VWS V14.01,2013-03-04 03:48:00,
2013-03-03 21:49:00,34.7,32.6,30.17,SW,236,0.0,0.0,92,0.00,,SKC,0.00,VWS V14.01,2013-03-04 03:49:00,
2013-03-03 21:50:00,34.7,32.6,30.17,SW,236,0.0,0.0,92,0.00,,SKC,0.00,VWS V14.01,2013-03-04 03:50:00,
2013-03-03 21:51:00,34.6,32.5,30.17,SW,236,0.0,0.0,92,0.00,,SKC,0.00,VWS V14.01,2013-03-04 03:51:00,
2013-03-03 21:52:00,34.6,32.5,30.17,SW,236,0.0,0.0,92,0.00,,SKC,0.00,VWS V14.01,2013-03-04 03:52:00,
2013-03-03 21:53:00,34.6,32.5,30.17,SW,236,0.0,0.0,92,0.00,,SKC,0.00,VWS V14.01,2013-03-04 03:53:00,
2013-03-03 21:54:00,34.5,32.4,30.17,SW,236,0.0,0.0,92,0.00,,SKC,0.00,VWS V14.01,2013-03-04 03:54:00,
2013-03-03 21:55:00,34.5,32.4,30.17,SW,236,0.0,0.0,92,0.00,,SKC,0.00,VWS V14.01,2013-03-04 03:55:00,
2013-03-03 21:56:00,34.4,32.3,30.17,SW,236,0.0,0.0,92,0.00,,SKC,0.00,VWS V14.01,2013-03-04 03:56:00,
2013-03-03 21:57:00,34.4,32.3,30.17,SW,236,0.0,0.0,92,0.00,,SKC,0.00,VWS V14.01,2013-03-04 03:57:00,
2013-03-03 21:58:00,34.4,32.3,30.17,SW,236,0.0,0.0,92,0.00,,SKC,0.00,VWS V14.01,2013-03-04 03:58:00,
2013-03-03 21:59:00,34.4,32.3,30.17,SW,236,0.0,0.0,92,0.00,,SKC,0.00,VWS V14.01,2013-03-04 03:59:00,
2013-03-03 22:00:00,34.4,32.3,30.17,SW,236,0.0,0.0,92,0.00,,SKC,0.00,VWS V14.01,2013-03-04 04:00:00,
2013-03-03 22:01:00,34.4,32.3,30.17,SW,236,0.0,0.0,92,0.00,,SKC,0.00,VWS V14.01,2013-03-04 04:01:00,
2013-03-03 22:02:00,34.3,32.2,30.17,SW,236,0.0,0.0,92,0.00,,SKC,0.00,VWS V14.01,2013-03-04 04:02:00,
2013-03-03 22:03:00,34.4,32.3,30.17,SW,236,0.0,0.0,92,0.00,,SKC,0.00,VWS V14.01,2013-03-04 04:03:00,
2013-03-03 22:04:00,34.4,32.3,30.17,SW,236,0.0,0.0,92,0.00,,SKC,0.00,VWS V14.01,2013-03-04 04:04:00,
2013-03-03 22:05:00,34.5,32.4,30.16,SW,236,0.0,0.0,92,0.00,,SKC,0.00,VWS V14.01,2013-03-04 04:05:00,
2013-03-03 22:06:00,34.5,32.4,30.16,SW,236,0.0,0.0,92,0.00,,SKC,0.00,VWS V14.01,2013-03-04 04:06:00,
2013-03-03 22:07:00,34.5,32.4,30.16,SW,236,0.0,0.0,92,0.00,,SKC,0.00,VWS V14.01,2013-03-04 04:07:00,
2013-03-03 22:08:00,34.6,32.5,30.16,SW,236,0.0,0.0,92,0.00,,SKC,0.00,VWS V14.01,2013-03-04 04:08:00,
2013-03-03 22:09:00,34.6,32.5,30.16,SW,236,0.0,0.0,92,0.00,,SKC,0.00,VWS V14.01,2013-03-04 04:09:00,
2013-03-03 22:10:00,34.6,32.5,30.16,SW,236,0.0,0.0,92,0.00,,SKC,0.00,VWS V14.01,2013-03-04 04:10:00,
2013-03-03 22:11:00,34.6,32.5,30.16,SW,236,0.0,0.0,92,0.00,,SKC,0.00,VWS V14.01,2013-03-04 04:11:00,
2013-03-03 22:12:00,34.6,32.5,30.16,SW,236,0.0,0.0,92,0.00,,SKC,0.00,VWS V14.01,2013-03-04 04:12:00,
2013-03-03 22:13:00,34.7,32.6,30.16,SW,236,0.0,0.0,92,0.00,,SKC,0.00,VWS V14.01,2013-03-04 04:13:00,
2013-03-03 22:14:00,34.7,32.6,30.16,SW,236,0.0,0.0,92,0.00,,SKC,0.00,VWS V14.01,2013-03-04 04:14:00,
2013-03-03 22:15:00,34.7,32.6,30.16,SW,236,0.0,0.0,92,0.00,,SKC,0.00,VWS V14.01,2013-03-04 04:15:00,
2013-03-03 22:16:00,34.7,32.6,30.16,SW,236,0.0,0.0,92,0.00,,SKC,0.00,VWS V14.01,2013-03-04 04:16:00,
2013-03-03 22:17:00,34.7,32.6,30.16,SW,236,0.0,0.0,92,0.00,,SKC,0.00,VWS V14.01,2013-03-04 04:17:00,
2013-03-03 22:18:00,34.8,32.7,30.16,SW,236,0.0,0.0,92,0.00,,SKC,0.00,VWS V14.01,2013-03-04 04:18:00,
2013-03-03 22:19:00,34.8,32.7,30.16,SW,236,0.0,0.0,92,0.00,,SKC,0.00,VWS V14.01,2013-03-04 04:19:00,
2013-03-03 22:20:00,34.8,32.7,30.16,SW,236,0.0,0.0,92,0.00,,SKC,0.00,VWS V14.01,2013-03-04 04:20:00,
2013-03-03 22:21:00,34.8,32.7,30.16,SW,236,0.0,0.0,92,0.00,,SKC,0.00,VWS V14.01,2013-03-04 04:21:00,
2013-03-03 22:22:00,34.8,32.7,30.16,SW,236,0.0,0.0,92,0.00,,SKC,0.00,VWS V14.01,2013-03-04 04:22:00,
2013-03-03 22:23:00,34.8,32.7,30.15,SW,236,0.0,0.0,92,0.00,,SKC,0.00,VWS V14.01,2013-03-04 04:23:00,
2013-03-03 22:24:00,34.8,32.7,30.15,SW,236,0.0,0.0,92,0.00,,SKC,0.00,VWS V14.01,2013-03-04 04:24:00,
2013-03-03 22:25:00,34.8,32.7,30.15,SW,236,0.0,0.0,92,0.00,,SKC,0.00,VWS V14.01,2013-03-04 04:25:00,
2013-03-03 22:26:00,34.8,32.7,30.15,SW,236,0.0,0.0,92,0.00,,SKC,0.00,VWS V14.01,2013-03-04 04:26:00,
2013-03-03 22:27:00,34.8,32.7,30.15,SW,236,0.0,0.0,92,0.00,,SKC,0.00,VWS V14.01,2013-03-04 04:27:00,
2013-03-03 22:28:00,34.8,32.7,30.15,SW,236,0.0,0.0,92,0.00,,SKC,0.00,VWS V14.01,2013-03-04 04:28:00,
2013-03-03 22:29:00,34.8,32.7,30.15,SW,236,0.0,0.0,92,0.00,,SKC,0.00,VWS V14.01,2013-03-04 04:29:00,
2013-03-03 22:30:00,34.8,32.7,30.15,SW,236,0.0,0.0,92,0.00,,SKC,0.00,VWS V14.01,2013-03-04 04:30:00,
2013-03-03 22:31:00,34.8,32.7,30.15,SW,236,0.0,0.0,92,0.00,,SKC,0.00,VWS V14.01,2013-03-04 04:31:00,
2013-03-03 22:32:00,34.7,32.6,30.15,SW,236,0.0,0.0,92,0.00,,SKC,0.00,VWS V14.01,2013-03-04 04:32:00,
2013-03-03 22:33:00,34.7,32.6,30.15,SW,236,0.0,0.0,92,0.00,,SKC,0.00,VWS V14.01,2013-03-04 04:33:00,
2013-03-03 22:34:00,34.7,32.6,30.15,SW,236,0.0,0.0,92,0.00,,SKC,0.00,VWS V14.01,2013-03-04 04:34:00,
2013-03-03 22:35:00,34.7,32.6,30.15,SW,236,0.0,0.0,92,0.00,,SKC,0.00,VWS V14.01,2013-03-04 04:35:00,
2013-03-03 22:36:00,34.7,32.6,30.15,SW,236,0.0,0.0,92,0.00,,SKC,0.00,VWS V14.01,2013-03-04 04:36:00,
2013-03-03 22:37:00,34.7,32.6,30.15,SW,236,0.0,0.0,92,0.00,,SKC,0.00,VWS V14.01,2013-03-04 04:37:00,
2013-03-03 22:38:00,34.6,32.5,30.15,SW,236,0.0,0.0,92,0.00,,SKC,0.00,VWS V14.01,2013-03-04 04:38:00,
2013-03-03 22:39:00,34.6,32.5,30.15,SW,236,0.0,0.0,92,0.00,,SKC,0.00,VWS V14.01,2013-03-04 04:39:00,
2013-03-03 22:40:00,34.6,32.5,30.15,SW,236,0.0,0.0,92,0.00,,SKC,0.00,VWS V14.01,2013-03-04 04:40:00,
2013-03-03 22:41:00,34.6,32.5,30.15,SW,236,0.0,0.0,92,0.00,,SKC,0.00,VWS V14.01,2013-03-04 04:41:00,
2013-03-03 22:42:00,34.6,32.5,30.15,SW,236,0.0,0.0,92,0.00,,SKC,0.00,VWS V14.01,2013-03-04 04:42:00,
2013-03-03 22:43:00,34.5,32.4,30.15,SW,236,0.0,0.0,92,0.00,,SKC,0.00,VWS V14.01,2013-03-04 04:43:00,
2013-03-03 22:44:00,34.5,32.4,30.15,SW,236,0.0,0.0,92,0.00,,SKC,0.00,VWS V14.01,2013-03-04 04:44:00,
2013-03-03 22:45:00,34.4,32.3,30.15,SW,236,0.0,0.0,92,0.00,,SKC,0.00,VWS V14.01,2013-03-04 04:45:00,
2013-03-03 22:46:00,34.4,32.3,30.15,SW,236,0.0,0.0,92,0.00,,SKC,0.00,VWS V14.01,2013-03-04 04:46:00,
2013-03-03 22:47:00,34.4,32.3,30.15,SW,236,0.0,0.0,92,0.00,,SKC,0.00,VWS V14.01,2013-03-04 04:47:00,
2013-03-03 22:48:00,34.3,32.2,30.15,SW,236,0.0,0.0,92,0.00,,SKC,0.00,VWS V14.01,2013-03-04 04:48:00,
2013-03-03 22:49:00,34.3,32.2,30.15,SW,236,0.0,0.0,92,0.00,,SKC,0.00,VWS V14.01,2013-03-04 04:49:00,
2013-03-03 22:50:00,34.3,32.2,30.15,SW,236,0.0,0.0,92,0.00,,SKC,0.00,VWS V14.01,2013-03-04 04:50:00,
2013-03-03 22:51:00,34.2,32.1,30.15,SW,236,0.0,0.0,92,0.00,,SKC,0.00,VWS V14.01,2013-03-04 04:51:00,
2013-03-03 22:52:00,34.2,32.1,30.15,SW,236,0.0,0.0,92,0.00,,SKC,0.00,VWS V14.01,2013-03-04 04:52:00,
2013-03-03 22:53:00,34.2,32.1,30.15,SW,236,0.0,0.0,92,0.00,,SKC,0.00,VWS V14.01,2013-03-04 04:53:00,
2013-03-03 22:54:00,34.2,32.1,30.15,SW,236,0.0,0.0,92,0.00,,SKC,0.00,VWS V14.01,2013-03-04 04:54:00,
2013-03-03 22:55:00,34.1,32.0,30.15,SW,236,0.0,0.0,92,0.00,,SKC,0.00,VWS V14.01,2013-03-04 04:55:00,
2013-03-03 22:56:00,34.1,32.0,30.15,SW,236,0.0,0.0,92,0.00,,SKC,0.00,VWS V14.01,2013-03-04 04:56:00,
2013-03-03 22:57:00,34.1,32.0,30.15,SW,236,0.0,0.0,92,0.00,,SKC,0.00,VWS V14.01,2013-03-04 04:57:00,
2013-03-03 22:58:00,34.1,32.0,30.15,SW,236,0.0,0.0,92,0.00,,SKC,0.00,VWS V14.01,2013-03-04 04:58:00,
2013-03-03 22:59:00,34.1,32.0,30.15,SW,236,0.0,0.0,92,0.00,,SKC,0.00,VWS V14.01,2013-03-04 04:59:00,
2013-03-03 23:00:00,34.0,31.9,30.15,SW,236,0.0,0.0,92,0.00,,SKC,0.00,VWS V14.01,2013-03-04 05:00:00,
2013-03-03 23:01:00,34.0,31.9,30.15,SW,236,0.0,0.0,92,0.00,,SKC,0.00,VWS V14.01,2013-03-04 05:01:00,
2013-03-03 23:02:00,34.0,31.9,30.15,SW,236,0.0,0.0,92,0.00,,SKC,0.00,VWS V14.01,2013-03-04 05:02:00,
2013-03-03 23:03:00,33.9,31.8,30.15,SW,236,0.0,0.0,92,0.00,,SKC,0.00,VWS V14.01,2013-03-04 05:03:00,
2013-03-03 23:04:00,33.9,31.8,30.15,SW,236,0.0,0.0,92,0.00,,SKC,0.00,VWS V14.01,2013-03-04 05:04:00,
2013-03-03 23:05:00,33.9,31.8,30.15,SW,236,0.0,0.0,92,0.00,,SKC,0.00,VWS V14.01,2013-03-04 05:05:00,
2013-03-03 23:06:00,33.9,31.8,30.15,SW,236,0.0,0.0,92,0.00,,SKC,0.00,VWS V14.01,2013-03-04 05:06:00,
2013-03-03 23:07:00,33.9,31.8,30.15,SW,236,0.0,0.0,92,0.00,,SKC,0.00,VWS V14.01,2013-03-04 05:07:00,
2013-03-03 23:08:00,33.8,31.7,30.15,SW,236,0.0,0.0,92,0.00,,SKC,0.00,VWS V14.01,2013-03-04 05:08:00,
2013-03-03 23:09:00,33.8,31.7,30.15,SW,236,0.0,0.0,92,0.00,,SKC,0.00,VWS V14.01,2013-03-04 05:09:00,
2013-03-03 23:10:00,33.8,31.7,30.15,SW,236,0.0,0.0,92,0.00,,SKC,0.00,VWS V14.01,2013-03-04 05:10:00,
2013-03-03 23:11:00,33.7,31.6,30.15,SW,236,0.0,0.0,92,0.00,,SKC,0.00,VWS V14.01,2013-03-04 05:11:00,
2013-03-03 23:12:00,33.7,31.6,30.15,SW,236,0.0,0.0,92,0.00,,SKC,0.00,VWS V14.01,2013-03-04 05:12:00,
2013-03-03 23:13:00,33.8,31.7,30.15,SW,236,0.0,0.0,92,0.00,,SKC,0.00,VWS V14.01,2013-03-04 05:13:00,
2013-03-03 23:14:00,33.8,31.7,30.15,SW,236,0.0,0.0,92,0.00,,SKC,0.00,VWS V14.01,2013-03-04 05:14:00,
2013-03-03 23:15:00,33.8,31.7,30.15,SW,236,0.0,0.0,92,0.00,,SKC,0.00,VWS V14.01,2013-03-04 05:15:00,
2013-03-03 23:16:00,33.8,31.7,30.15,SW,236,0.0,0.0,92,0.00,,SKC,0.00,VWS V14.01,2013-03-04 05:16:00,
2013-03-03 23:17:00,33.9,31.8,30.15,SW,236,0.0,0.0,92,0.00,,SKC,0.00,VWS V14.01,2013-03-04 05:17:00,
2013-03-03 23:18:00,33.9,31.8,30.15,SW,236,0.0,0.0,92,0.00,,SKC,0.00,VWS V14.01,2013-03-04 05:18:00,
2013-03-03 23:19:00,33.9,31.8,30.15,SW,236,0.0,0.0,92,0.00,,SKC,0.00,VWS V14.01,2013-03-04 05:19:00,
2013-03-03 23:20:00,34.0,31.9,30.15,SW,236,0.0,0.0,92,0.00,,SKC,0.00,VWS V14.01,2013-03-04 05:20:00,
2013-03-03 23:21:00,34.0,31.6,30.15,SW,236,0.0,0.0,91,0.00,,SKC,0.00,VWS V14.01,2013-03-04 05:21:00,
2013-03-03 23:22:00,34.0,31.6,30.15,SW,236,0.0,0.0,91,0.00,,SKC,0.00,VWS V14.01,2013-03-04 05:22:00,
2013-03-03 23:23:00,34.1,31.8,30.15,SW,236,0.0,0.0,91,0.00,,SKC,0.00,VWS V14.01,2013-03-04 05:23:00,
2013-03-03 23:24:00,34.1,31.8,30.15,SW,236,0.0,0.0,91,0.00,,SKC,0.00,VWS V14.01,2013-03-04 05:24:00,
2013-03-03 23:25:00,34.1,31.8,30.15,SW,236,0.0,0.0,91,0.00,,SKC,0.00,VWS V14.01,2013-03-04 05:25:00,
2013-03-03 23:26:00,34.1,31.8,30.15,SW,236,0.0,0.0,91,0.00,,SKC,0.00,VWS V14.01,2013-03-04 05:26:00,
2013-03-03 23:27:00,34.1,31.8,30.15,SW,236,0.0,0.0,91,0.00,,SKC,0.00,VWS V14.01,2013-03-04 05:27:00,
2013-03-03 23:28:00,34.1,32.0,30.15,SW,236,0.0,0.0,92,0.00,,SKC,0.00,VWS V14.01,2013-03-04 05:28:00,
2013-03-03 23:29:00,34.0,31.9,30.15,SW,236,0.0,0.0,92,0.00,,SKC,0.00,VWS V14.01,2013-03-04 05:29:00,
2013-03-03 23:30:00,34.0,31.9,30.15,SW,236,0.0,0.0,92,0.00,,SKC,0.00,VWS V14.01,2013-03-04 05:30:00,
2013-03-03 23:31:00,34.0,31.9,30.15,SW,236,0.0,0.0,92,0.00,,SKC,0.00,VWS V14.01,2013-03-04 05:31:00,
2013-03-03 23:32:00,34.0,31.9,30.15,SW,236,0.0,0.0,92,0.00,,SKC,0.00,VWS V14.01,2013-03-04 05:32:00,
2013-03-03 23:33:00,34.0,31.9,30.15,SW,236,0.0,0.0,92,0.00,,SKC,0.00,VWS V14.01,2013-03-04 05:33:00,
2013-03-03 23:34:00,34.0,31.9,30.15,SW,236,0.0,0.0,92,0.00,,SKC,0.00,VWS V14.01,2013-03-04 05:34:00,
2013-03-03 23:35:00,33.9,31.8,30.15,SW,236,0.0,0.0,92,0.00,,SKC,0.00,VWS V14.01,2013-03-04 05:35:00,
2013-03-03 23:36:00,33.9,31.8,30.15,SW,236,0.0,0.0,92,0.00,,SKC,0.00,VWS V14.01,2013-03-04 05:36:00,
2013-03-03 23:37:00,33.9,31.8,30.15,SW,236,0.0,0.0,92,0.00,,SKC,0.00,VWS V14.01,2013-03-04 05:37:00,
2013-03-03 23:38:00,33.8,31.7,30.15,SW,236,0.0,0.0,92,0.00,,SKC,0.00,VWS V14.01,2013-03-04 05:38:00,
2013-03-03 23:39:00,33.8,31.7,30.15,SW,236,0.0,0.0,92,0.00,,SKC,0.00,VWS V14.01,2013-03-04 05:39:00,
2013-03-03 23:40:00,33.8,31.7,30.15,SW,236,0.0,0.0,92,0.00,,SKC,0.00,VWS V14.01,2013-03-04 05:40:00,
2013-03-03 23:41:00,33.8,31.7,30.15,SW,236,0.0,0.0,92,0.00,,SKC,0.00,VWS V14.01,2013-03-04 05:41:00,
2013-03-03 23:42:00,33.7,31.6,30.15,SW,236,0.0,0.0,92,0.00,,SKC,0.00,VWS V14.01,2013-03-04 05:42:00,
2013-03-03 23:43:00,33.7,31.6,30.15,SW,236,0.0,0.0,92,0.00,,SKC,0.00,VWS V14.01,2013-03-04 05:43:00,
2013-03-03 23:44:00,33.7,31.6,30.15,SW,236,0.0,0.0,92,0.00,,SKC,0.00,VWS V14.01,2013-03-04 05:44:00,
2013-03-03 23:45:00,33.7,31.6,30.15,SW,236,0.0,0.0,92,0.00,,SKC,0.00,VWS V14.01,2013-03-04 05:45:00,
2013-03-03 23:46:00,33.6,31.5,30.15,SW,236,0.0,0.0,92,0.00,,SKC,0.00,VWS V14.01,2013-03-04 05:46:00,
2013-03-03 23:47:00,33.6,31.5,30.15,SW,236,0.0,0.0,92,0.00,,SKC,0.00,VWS V14.01,2013-03-04 05:47:00,
2013-03-03 23:48:00,33.5,31.4,30.15,SW,236,0.0,0.0,92,0.00,,SKC,0.00,VWS V14.01,2013-03-04 05:48:00,
2013-03-03 23:49:00,33.5,31.4,30.15,SW,236,0.0,0.0,92,0.00,,SKC,0.00,VWS V14.01,2013-03-04 05:49:00,
2013-03-03 23:50:00,33.5,31.4,30.15,SW,236,0.0,0.0,92,0.00,,SKC,0.00,VWS V14.01,2013-03-04 05:50:00,
2013-03-03 23:51:00,33.5,31.4,30.15,SW,236,0.0,0.0,92,0.00,,SKC,0.00,VWS V14.01,2013-03-04 05:51:00,
2013-03-03 23:52:00,33.5,31.4,30.15,SW,236,0.0,0.0,92,0.00,,SKC,0.00,VWS V14.01,2013-03-04 05:52:00,
2013-03-03 23:53:00,33.4,31.3,30.15,SW,236,0.0,0.0,92,0.00,,SKC,0.00,VWS V14.01,2013-03-04 05:53:00,
2013-03-03 23:54:00,33.4,31.3,30.15,SW,236,0.0,0.0,92,0.00,,SKC,0.00,VWS V14.01,2013-03-04 05:54:00,
2013-03-03 23:55:00,33.4,31.3,30.15,SW,236,0.0,0.0,92,0.00,,SKC,0.00,VWS V14.01,2013-03-04 05:55:00,
2013-03-03 23:56:00,33.4,31.3,30.15,SW,236,0.0,0.0,92,0.00,,SKC,0.00,VWS V14.01,2013-03-04 05:56:00,
2013-03-03 23:57:00,33.4,31.3,30.15,SW,236,0.0,0.0,92,0.00,,SKC,0.00,VWS V14.01,2013-03-04 05:57:00,
2013-03-03 23:58:00,33.4,31.3,30.15,SW,236,0.0,0.0,92,0.00,,SKC,0.00,VWS V14.01,2013-03-04 05:58:00,
2013-03-03 23:59:00,33.4,31.3,30.15,SW,236,0.0,0.0,92,0.00,,SKC,0.00,VWS V14.01,2013-03-04 05:59:00,